Wetterdaten: Donnerstag, 26.05.2022
Datum Zeit Temp. 2m Temp +5 cm Feuchte A. Luftdruck Regen Wind Richtung Richtung Sonnenschein UV Solar Taupunkt Windchill Windben
26.05.2022 00:00 12,4 C 11,7 C 71 % 1020,8 hPa 0,0 l/m 9,7 km/h (2 Bft) S-SW 202 0 min 0,0 UV-I 0 W/m 7,3 C 10,4 C 12,9 km/h (3 Bft)
26.05.2022 00:01 12,4 C 11,7 C 71 % 1020,7 hPa 0,0 l/m 6,4 km/h (2 Bft) S-SW 202 0 min 0,0 UV-I 0 W/m 7,3 C 12,4 C 8,0 km/h (2 Bft)
26.05.2022 00:02 12,4 C 11,7 C 71 % 1020,7 hPa 0,0 l/m 8,0 km/h (2 Bft) S-SW 202 0 min 0,0 UV-I 0 W/m 7,3 C 11,4 C 12,9 km/h (3 Bft)
26.05.2022 00:03 12,4 C 11,7 C 71 % 1020,8 hPa 0,0 l/m 11,3 km/h (2 Bft) S-SW 202 0 min 0,0 UV-I 0 W/m 7,3 C 9,6 C 19,3 km/h (3 Bft)
26.05.2022 00:04 12,4 C 11,7 C 71 % 1020,7 hPa 0,0 l/m 11,3 km/h (2 Bft) SW 225 0 min 0,0 UV-I 0 W/m 7,3 C 9,6 C 16,1 km/h (3 Bft)
26.05.2022 00:05 12,4 C 11,7 C 71 % 1020,7 hPa 0,0 l/m 14,5 km/h (3 Bft) S-SW 202 0 min 0,0 UV-I 0 W/m 7,3 C 8,2 C 17,7 km/h (3 Bft)
26.05.2022 00:06 12,4 C 11,7 C 71 % 1020,8 hPa 0,0 l/m 9,7 km/h (2 Bft) S 180 0 min 0,0 UV-I 0 W/m 7,3 C 10,4 C 12,9 km/h (3 Bft)
26.05.2022 00:07 12,4 C 11,7 C 71 % 1020,7 hPa 0,0 l/m 8,0 km/h (2 Bft) S-SW 202 0 min 0,0 UV-I 0 W/m 7,3 C 11,4 C 11,3 km/h (2 Bft)
26.05.2022 00:08 12,4 C 11,7 C 71 % 1020,8 hPa 0,0 l/m 8,0 km/h (2 Bft) S 180 0 min 0,0 UV-I 0 W/m 7,3 C 11,4 C 14,5 km/h (3 Bft)
26.05.2022 00:09 12,4 C 11,7 C 71 % 1020,8 hPa 0,0 l/m 11,3 km/h (2 Bft) S 180 0 min 0,0 UV-I 0 W/m 7,3 C 9,6 C 17,7 km/h (3 Bft)
26.05.2022 00:10 12,4 C 11,7 C 71 % 1020,8 hPa 0,0 l/m 16,1 km/h (3 Bft) S-SW 202 0 min 0,0 UV-I 0 W/m 7,3 C 7,6 C 22,5 km/h (4 Bft)
26.05.2022 00:11 12,4 C 11,7 C 71 % 1020,7 hPa 0,0 l/m 12,9 km/h (3 Bft) S-SW 202 0 min 0,0 UV-I 0 W/m 7,3 C 8,9 C 19,3 km/h (3 Bft)
26.05.2022 00:12 12,4 C 11,7 C 71 % 1020,7 hPa 0,0 l/m 11,3 km/h (2 Bft) SW 225 0 min 0,0 UV-I 0 W/m 7,3 C 9,6 C 16,1 km/h (3 Bft)
26.05.2022 00:13 12,4 C 11,7 C 71 % 1020,7 hPa 0,0 l/m 12,9 km/h (3 Bft) S-SW 202 0 min 0,0 UV-I 0 W/m 7,3 C 8,9 C 17,7 km/h (3 Bft)
26.05.2022 00:14 12,4 C 11,7 C 71 % 1020,7 hPa 0,0 l/m 16,1 km/h (3 Bft) S-SW 202 0 min 0,0 UV-I 0 W/m 7,3 C 7,6 C 24,1 km/h (4 Bft)
26.05.2022 00:15 12,4 C 11,7 C 71 % 1020,8 hPa 0,0 l/m 11,3 km/h (2 Bft) S-SW 202 0 min 0,0 UV-I 0 W/m 7,3 C 9,6 C 22,5 km/h (4 Bft)
26.05.2022 00:16 12,4 C 11,7 C 71 % 1020,8 hPa 0,0 l/m 11,3 km/h (2 Bft) SW 225 0 min 0,0 UV-I 0 W/m 7,3 C 9,6 C 16,1 km/h (3 Bft)
26.05.2022 00:17 12,4 C 11,7 C 71 % 1020,8 hPa 0,0 l/m 9,7 km/h (2 Bft) S-SW 202 0 min 0,0 UV-I 0 W/m 7,3 C 10,4 C 16,1 km/h (3 Bft)
26.05.2022 00:18 12,4 C 11,7 C 72 % 1020,8 hPa 0,0 l/m 12,9 km/h (3 Bft) S-SW 202 0 min 0,0 UV-I 0 W/m 7,5 C 8,9 C 19,3 km/h (3 Bft)
26.05.2022 00:19 12,4 C 11,7 C 72 % 1020,7 hPa 0,0 l/m 17,7 km/h (3 Bft) S-SW 202 0 min 0,0 UV-I 0 W/m 7,5 C 7,1 C 22,5 km/h (4 Bft)
26.05.2022 00:20 12,4 C 11,7 C 72 % 1020,7 hPa 0,0 l/m 17,7 km/h (3 Bft) S-SW 202 0 min 0,0 UV-I 0 W/m 7,5 C 7,1 C 25,7 km/h (4 Bft)
26.05.2022 00:21 12,4 C 11,7 C 72 % 1020,8 hPa 0,0 l/m 11,3 km/h (2 Bft) SW 225 0 min 0,0 UV-I 0 W/m 7,5 C 9,6 C 25,7 km/h (4 Bft)
26.05.2022 00:22 12,4 C 11,7 C 72 % 1020,8 hPa 0,0 l/m 12,9 km/h (3 Bft) S 180 0 min 0,0 UV-I 0 W/m 7,5 C 8,9 C 17,7 km/h (3 Bft)
26.05.2022 00:23 12,4 C 11,7 C 72 % 1020,9 hPa 0,0 l/m 11,3 km/h (2 Bft) S-SW 202 0 min 0,0 UV-I 0 W/m 7,5 C 9,6 C 16,1 km/h (3 Bft)
26.05.2022 00:24 12,4 C 11,7 C 72 % 1020,8 hPa 0,0 l/m 9,7 km/h (2 Bft) S 180 0 min 0,0 UV-I 0 W/m 7,5 C 10,4 C 12,9 km/h (3 Bft)
26.05.2022 00:25 12,4 C 11,7 C 72 % 1020,8 hPa 0,0 l/m 9,7 km/h (2 Bft) S 180 0 min 0,0 UV-I 0 W/m 7,5 C 10,4 C 16,1 km/h (3 Bft)
26.05.2022 00:26 12,4 C 11,7 C 72 % 1021,0 hPa 0,0 l/m 12,9 km/h (3 Bft) SW 225 0 min 0,0 UV-I 0 W/m 7,5 C 8,9 C 19,3 km/h (3 Bft)
26.05.2022 00:27 12,4 C 11,7 C 72 % 1020,8 hPa 0,0 l/m 11,3 km/h (2 Bft) SW 225 0 min 0,0 UV-I 0 W/m 7,5 C 9,6 C 16,1 km/h (3 Bft)
26.05.2022 00:28 12,4 C 11,7 C 72 % 1020,9 hPa 0,0 l/m 14,5 km/h (3 Bft) SW 225 0 min 0,0 UV-I 0 W/m 7,5 C 8,2 C 22,5 km/h (4 Bft)
26.05.2022 00:29 12,4 C 11,7 C 72 % 1020,8 hPa 0,0 l/m 9,7 km/h (2 Bft) S-SW 202 0 min 0,0 UV-I 0 W/m 7,5 C 10,4 C 19,3 km/h (3 Bft)
26.05.2022 00:30 12,4 C 11,7 C 72 % 1020,9 hPa 0,0 l/m 17,7 km/h (3 Bft) S-SW 202 0 min 0,0 UV-I 0 W/m 7,5 C 7,1 C 22,5 km/h (4 Bft)
26.05.2022 00:31 12,3 C 11,7 C 72 % 1020,8 hPa 0,0 l/m 14,5 km/h (3 Bft) SW 225 0 min 0,0 UV-I 0 W/m 7,4 C 8,1 C 22,5 km/h (4 Bft)
26.05.2022 00:32 12,3 C 11,7 C 72 % 1021,0 hPa 0,0 l/m 14,5 km/h (3 Bft) S-SW 202 0 min 0,0 UV-I 0 W/m 7,4 C 8,1 C 19,3 km/h (3 Bft)
26.05.2022 00:33 12,3 C 11,7 C 72 % 1020,8 hPa 0,0 l/m 12,9 km/h (3 Bft) S-SW 202 0 min 0,0 UV-I 0 W/m 7,4 C 8,8 C 22,5 km/h (4 Bft)
26.05.2022 00:34 12,3 C 11,7 C 72 % 1020,8 hPa 0,0 l/m 12,9 km/h (3 Bft) S-SW 202 0 min 0,0 UV-I 0 W/m 7,4 C 8,8 C 22,5 km/h (4 Bft)
26.05.2022 00:35 12,3 C 11,7 C 72 % 1020,8 hPa 0,0 l/m 12,9 km/h (3 Bft) S-SW 202 0 min 0,0 UV-I 0 W/m 7,4 C 8,8 C 17,7 km/h (3 Bft)
26.05.2022 00:36 12,3 C 11,7 C 73 % 1020,8 hPa 0,0 l/m 8,0 km/h (2 Bft) S-SW 202 0 min 0,0 UV-I 0 W/m 7,6 C 11,3 C 11,3 km/h (2 Bft)
26.05.2022 00:37 12,3 C 11,7 C 73 % 1020,9 hPa 0,0 l/m 11,3 km/h (2 Bft) S-SW 202 0 min 0,0 UV-I 0 W/m 7,6 C 9,5 C 16,1 km/h (3 Bft)
26.05.2022 00:38 12,3 C 11,7 C 72 % 1020,9 hPa 0,0 l/m 12,9 km/h (3 Bft) S-SW 202 0 min 0,0 UV-I 0 W/m 7,4 C 8,8 C 17,7 km/h (3 Bft)
26.05.2022 00:39 12,3 C 11,7 C 73 % 1020,9 hPa 0,0 l/m 9,7 km/h (2 Bft) S 180 0 min 0,0 UV-I 0 W/m 7,6 C 10,3 C 14,5 km/h (3 Bft)
26.05.2022 00:40 12,3 C 11,7 C 73 % 1020,9 hPa 0,0 l/m 14,5 km/h (3 Bft) S-SW 202 0 min 0,0 UV-I 0 W/m 7,6 C 8,1 C 22,5 km/h (4 Bft)
26.05.2022 00:41 12,3 C 11,7 C 73 % 1020,9 hPa 0,0 l/m 14,5 km/h (3 Bft) S-SW 202 0 min 0,0 UV-I 0 W/m 7,6 C 8,1 C 17,7 km/h (3 Bft)
26.05.2022 00:42 12,3 C 11,7 C 73 % 1020,9 hPa 0,0 l/m 8,0 km/h (2 Bft) S-SW 202 0 min 0,0 UV-I 0 W/m 7,6 C 11,3 C 11,3 km/h (2 Bft)
26.05.2022 00:43 12,3 C 11,7 C 73 % 1020,9 hPa 0,0 l/m 11,3 km/h (2 Bft) S-SW 202 0 min 0,0 UV-I 0 W/m 7,6 C 9,5 C 17,7 km/h (3 Bft)
26.05.2022 00:44 12,2 C 11,7 C 73 % 1020,9 hPa 0,0 l/m 12,9 km/h (3 Bft) S-SW 202 0 min 0,0 UV-I 0 W/m 7,5 C 8,6 C 22,5 km/h (4 Bft)
26.05.2022 00:45 12,2 C 11,7 C 73 % 1020,9 hPa 0,0 l/m 12,9 km/h (3 Bft) S-SW 202 0 min 0,0 UV-I 0 W/m 7,5 C 8,6 C 17,7 km/h (3 Bft)
26.05.2022 00:46 12,3 C 11,7 C 73 % 1020,9 hPa 0,0 l/m 12,9 km/h (3 Bft) S-SW 202 0 min 0,0 UV-I 0 W/m 7,6 C 8,8 C 16,1 km/h (3 Bft)
26.05.2022 00:47 12,3 C 11,7 C 73 % 1020,9 hPa 0,0 l/m 14,5 km/h (3 Bft) S-SW 202 0 min 0,0 UV-I 0 W/m 7,6 C 8,1 C 20,9 km/h (4 Bft)
26.05.2022 00:48 12,3 C 11,7 C 73 % 1020,9 hPa 0,0 l/m 16,1 km/h (3 Bft) SW 225 0 min 0,0 UV-I 0 W/m 7,6 C 7,5 C 19,3 km/h (3 Bft)
26.05.2022 00:49 12,3 C 11,7 C 73 % 1020,9 hPa 0,0 l/m 9,7 km/h (2 Bft) SW 225 0 min 0,0 UV-I 0 W/m 7,6 C 10,3 C 17,7 km/h (3 Bft)
26.05.2022 00:50 12,3 C 11,7 C 73 % 1020,8 hPa 0,0 l/m 8,0 km/h (2 Bft) S 180 0 min 0,0 UV-I 0 W/m 7,6 C 11,3 C 12,9 km/h (3 Bft)
26.05.2022 00:51 12,3 C 11,7 C 73 % 1020,9 hPa 0,0 l/m 8,0 km/h (2 Bft) S-SW 202 0 min 0,0 UV-I 0 W/m 7,6 C 11,3 C 16,1 km/h (3 Bft)
26.05.2022 00:52 12,3 C 11,7 C 73 % 1020,9 hPa 0,0 l/m 9,7 km/h (2 Bft) S-SW 202 0 min 0,0 UV-I 0 W/m 7,6 C 10,3 C 14,5 km/h (3 Bft)
26.05.2022 00:53 12,3 C 11,7 C 73 % 1020,9 hPa 0,0 l/m 14,5 km/h (3 Bft) S-SW 202 0 min 0,0 UV-I 0 W/m 7,6 C 8,1 C 20,9 km/h (4 Bft)
26.05.2022 00:54 12,2 C 11,7 C 73 % 1020,9 hPa 0,0 l/m 11,3 km/h (2 Bft) S-SW 202 0 min 0,0 UV-I 0 W/m 7,5 C 9,4 C 17,7 km/h (3 Bft)
26.05.2022 00:55 12,2 C 11,7 C 73 % 1020,9 hPa 0,0 l/m 11,3 km/h (2 Bft) SW 225 0 min 0,0 UV-I 0 W/m 7,5 C 9,4 C 16,1 km/h (3 Bft)
26.05.2022 00:56 12,2 C 11,7 C 73 % 1021,0 hPa 0,0 l/m 9,7 km/h (2 Bft) S-SW 202 0 min 0,0 UV-I 0 W/m 7,5 C 10,2 C 14,5 km/h (3 Bft)
26.05.2022 00:57 12,2 C 11,7 C 73 % 1021,0 hPa 0,0 l/m 8,0 km/h (2 Bft) SW 225 0 min 0,0 UV-I 0 W/m 7,5 C 11,2 C 12,9 km/h (3 Bft)
26.05.2022 00:58 12,3 C 11,7 C 73 % 1021,0 hPa 0,0 l/m 14,5 km/h (3 Bft) SW 225 0 min 0,0 UV-I 0 W/m 7,6 C 8,1 C 20,9 km/h (4 Bft)
26.05.2022 00:59 12,2 C 11,7 C 73 % 1021,0 hPa 0,0 l/m 11,3 km/h (2 Bft) SW 225 0 min 0,0 UV-I 0 W/m 7,5 C 9,4 C 17,7 km/h (3 Bft)
26.05.2022 01:00 12,2 C 11,7 C 73 % 1020,9 hPa 0,0 l/m 11,3 km/h (2 Bft) SW 225 0 min 0,0 UV-I 0 W/m 7,5 C 9,4 C 17,7 km/h (3 Bft)
26.05.2022 01:01 12,2 C 11,7 C 73 % 1021,0 hPa 0,0 l/m 14,5 km/h (3 Bft) S-SW 202 0 min 0,0 UV-I 0 W/m 7,5 C 8,0 C 22,5 km/h (4 Bft)
26.05.2022 01:02 12,2 C 11,7 C 73 % 1021,0 hPa 0,0 l/m 14,5 km/h (3 Bft) S-SW 202 0 min 0,0 UV-I 0 W/m 7,5 C 8,0 C 19,3 km/h (3 Bft)
26.05.2022 01:03 12,2 C 11,7 C 73 % 1021,0 hPa 0,0 l/m 11,3 km/h (2 Bft) S-SW 202 0 min 0,0 UV-I 0 W/m 7,5 C 9,4 C 17,7 km/h (3 Bft)
26.05.2022 01:04 12,2 C 11,7 C 73 % 1021,0 hPa 0,0 l/m 11,3 km/h (2 Bft) S-SW 202 0 min 0,0 UV-I 0 W/m 7,5 C 9,4 C 16,1 km/h (3 Bft)
26.05.2022 01:05 12,2 C 11,7 C 73 % 1021,0 hPa 0,0 l/m 9,7 km/h (2 Bft) S-SW 202 0 min 0,0 UV-I 0 W/m 7,5 C 10,2 C 11,3 km/h (2 Bft)
26.05.2022 01:06 12,2 C 11,7 C 73 % 1020,9 hPa 0,0 l/m 9,7 km/h (2 Bft) S-SW 202 0 min 0,0 UV-I 0 W/m 7,5 C 10,2 C 14,5 km/h (3 Bft)
26.05.2022 01:07 12,2 C 11,7 C 73 % 1021,0 hPa 0,0 l/m 11,3 km/h (2 Bft) S-SW 202 0 min 0,0 UV-I 0 W/m 7,5 C 9,4 C 14,5 km/h (3 Bft)
26.05.2022 01:08 12,2 C 11,7 C 73 % 1021,0 hPa 0,0 l/m 8,0 km/h (2 Bft) SW 225 0 min 0,0 UV-I 0 W/m 7,5 C 11,2 C 14,5 km/h (3 Bft)
26.05.2022 01:09 12,2 C 11,7 C 73 % 1021,0 hPa 0,0 l/m 14,5 km/h (3 Bft) S-SW 202 0 min 0,0 UV-I 0 W/m 7,5 C 8,0 C 20,9 km/h (4 Bft)
26.05.2022 01:10 12,2 C 11,7 C 73 % 1021,0 hPa 0,0 l/m 11,3 km/h (2 Bft) W-SW 247 0 min 0,0 UV-I 0 W/m 7,5 C 9,4 C 14,5 km/h (3 Bft)
26.05.2022 01:11 12,2 C 11,7 C 74 % 1021,0 hPa 0,0 l/m 14,5 km/h (3 Bft) SW 225 0 min 0,0 UV-I 0 W/m 7,7 C 8,0 C 20,9 km/h (4 Bft)
26.05.2022 01:12 12,2 C 11,7 C 74 % 1021,0 hPa 0,0 l/m 12,9 km/h (3 Bft) SW 225 0 min 0,0 UV-I 0 W/m 7,7 C 8,6 C 22,5 km/h (4 Bft)
26.05.2022 01:13 12,2 C 11,7 C 74 % 1021,0 hPa 0,0 l/m 14,5 km/h (3 Bft) S-SW 202 0 min 0,0 UV-I 0 W/m 7,7 C 8,0 C 20,9 km/h (4 Bft)
26.05.2022 01:14 12,2 C 11,7 C 74 % 1020,9 hPa 0,0 l/m 17,7 km/h (3 Bft) SW 225 0 min 0,0 UV-I 0 W/m 7,7 C 6,8 C 24,1 km/h (4 Bft)
26.05.2022 01:15 12,2 C 11,7 C 74 % 1020,9 hPa 0,0 l/m 11,3 km/h (2 Bft) SW 225 0 min 0,0 UV-I 0 W/m 7,7 C 9,4 C 19,3 km/h (3 Bft)
26.05.2022 01:16 12,2 C 11,7 C 74 % 1021,0 hPa 0,0 l/m 11,3 km/h (2 Bft) SW 225 0 min 0,0 UV-I 0 W/m 7,7 C 9,4 C 16,1 km/h (3 Bft)
26.05.2022 01:17 12,2 C 11,7 C 74 % 1020,9 hPa 0,0 l/m 12,9 km/h (3 Bft) SW 225 0 min 0,0 UV-I 0 W/m 7,7 C 8,6 C 20,9 km/h (4 Bft)
26.05.2022 01:18 12,2 C 11,7 C 75 % 1020,9 hPa 0,0 l/m 11,3 km/h (2 Bft) SW 225 0 min 0,0 UV-I 0 W/m 7,9 C 9,4 C 16,1 km/h (3 Bft)
26.05.2022 01:19 12,2 C 11,7 C 75 % 1021,0 hPa 0,0 l/m 11,3 km/h (2 Bft) S-SW 202 0 min 0,0 UV-I 0 W/m 7,9 C 9,4 C 17,7 km/h (3 Bft)
26.05.2022 01:20 12,2 C 11,7 C 74 % 1021,0 hPa 0,0 l/m 8,0 km/h (2 Bft) SW 225 0 min 0,0 UV-I 0 W/m 7,7 C 11,2 C 12,9 km/h (3 Bft)
26.05.2022 01:21 12,1 C 11,7 C 75 % 1021,0 hPa 0,0 l/m 8,0 km/h (2 Bft) S 180 0 min 0,0 UV-I 0 W/m 7,8 C 11,1 C 16,1 km/h (3 Bft)
26.05.2022 01:22 12,1 C 11,7 C 75 % 1021,0 hPa 0,0 l/m 8,0 km/h (2 Bft) S-SW 202 0 min 0,0 UV-I 0 W/m 7,8 C 11,1 C 11,3 km/h (2 Bft)
26.05.2022 01:23 12,1 C 11,7 C 75 % 1021,0 hPa 0,0 l/m 12,9 km/h (3 Bft) S-SW 202 0 min 0,0 UV-I 0 W/m 7,8 C 8,5 C 20,9 km/h (4 Bft)
26.05.2022 01:24 12,1 C 11,7 C 75 % 1021,1 hPa 0,0 l/m 11,3 km/h (2 Bft) W-SW 247 0 min 0,0 UV-I 0 W/m 7,8 C 9,3 C 19,3 km/h (3 Bft)
26.05.2022 01:25 12,1 C 11,7 C 75 % 1021,1 hPa 0,0 l/m 19,3 km/h (3 Bft) S-SW 202 0 min 0,0 UV-I 0 W/m 7,8 C 6,2 C 30,6 km/h (5 Bft)
26.05.2022 01:26 12,1 C 11,7 C 75 % 1021,0 hPa 0,0 l/m 19,3 km/h (3 Bft) S-SW 202 0 min 0,0 UV-I 0 W/m 7,8 C 6,2 C 25,7 km/h (4 Bft)
26.05.2022 01:27 12,1 C 11,7 C 75 % 1021,2 hPa 0,0 l/m 16,1 km/h (3 Bft) S-SW 202 0 min 0,0 UV-I 0 W/m 7,8 C 7,3 C 24,1 km/h (4 Bft)
26.05.2022 01:28 12,1 C 11,7 C 75 % 1021,2 hPa 0,0 l/m 11,3 km/h (2 Bft) SW 225 0 min 0,0 UV-I 0 W/m 7,8 C 9,3 C 19,3 km/h (3 Bft)
26.05.2022 01:29 12,0 C 11,7 C 75 % 1021,2 hPa 0,0 l/m 16,1 km/h (3 Bft) S-SW 202 0 min 0,0 UV-I 0 W/m 7,7 C 7,1 C 19,3 km/h (3 Bft)
26.05.2022 01:30 12,0 C 11,1 C 75 % 1021,2 hPa 0,0 l/m 16,1 km/h (3 Bft) S-SW 202 0 min 0,0 UV-I 0 W/m 7,7 C 7,1 C 22,5 km/h (4 Bft)
26.05.2022 01:31 12,0 C 11,1 C 76 % 1021,2 hPa 0,0 l/m 14,5 km/h (3 Bft) W-SW 247 0 min 0,0 UV-I 0 W/m 7,9 C 7,8 C 25,7 km/h (4 Bft)
26.05.2022 01:32 12,0 C 11,1 C 76 % 1021,2 hPa 0,0 l/m 16,1 km/h (3 Bft) SW 225 0 min 0,0 UV-I 0 W/m 7,9 C 7,1 C 22,5 km/h (4 Bft)
26.05.2022 01:33 11,9 C 11,1 C 76 % 1021,3 hPa 0,0 l/m 17,7 km/h (3 Bft) S-SW 202 0 min 0,0 UV-I 0 W/m 7,8 C 6,5 C 24,1 km/h (4 Bft)
26.05.2022 01:34 11,9 C 11,1 C 76 % 1021,2 hPa 0,0 l/m 19,3 km/h (3 Bft) SW 225 0 min 0,0 UV-I 0 W/m 7,8 C 6,0 C 25,7 km/h (4 Bft)
26.05.2022 01:35 11,9 C 11,1 C 76 % 1021,2 hPa 0,0 l/m 12,9 km/h (3 Bft) W-SW 247 0 min 0,0 UV-I 0 W/m 7,8 C 8,3 C 22,5 km/h (4 Bft)
26.05.2022 01:36 11,9 C 11,1 C 76 % 1021,2 hPa 0,0 l/m 12,9 km/h (3 Bft) SW 225 0 min 0,0 UV-I 0 W/m 7,8 C 8,3 C 17,7 km/h (3 Bft)
26.05.2022 01:37 11,8 C 11,1 C 76 % 1021,1 hPa 0,0 l/m 16,1 km/h (3 Bft) S-SW 202 0 min 0,0 UV-I 0 W/m 7,7 C 6,9 C 25,7 km/h (4 Bft)
26.05.2022 01:38 11,9 C 11,1 C 76 % 1021,2 hPa 0,0 l/m 14,5 km/h (3 Bft) SW 225 0 min 0,0 UV-I 0 W/m 7,8 C 7,6 C 24,1 km/h (4 Bft)
26.05.2022 01:39 11,8 C 11,1 C 77 % 1021,2 hPa 0,0 l/m 14,5 km/h (3 Bft) SW 225 0 min 0,0 UV-I 0 W/m 7,9 C 7,5 C 22,5 km/h (4 Bft)
26.05.2022 01:40 11,8 C 11,1 C 77 % 1021,2 hPa 0,0 l/m 14,5 km/h (3 Bft) SW 225 0 min 0,0 UV-I 0 W/m 7,9 C 7,5 C 19,3 km/h (3 Bft)
26.05.2022 01:41 11,8 C 11,1 C 77 % 1021,2 hPa 0,0 l/m 14,5 km/h (3 Bft) S-SW 202 0 min 0,0 UV-I 0 W/m 7,9 C 7,5 C 19,3 km/h (3 Bft)
26.05.2022 01:42 11,8 C 11,1 C 77 % 1021,3 hPa 0,0 l/m 17,7 km/h (3 Bft) S-SW 202 0 min 0,0 UV-I 0 W/m 7,9 C 6,3 C 22,5 km/h (4 Bft)
26.05.2022 01:43 11,7 C 11,1 C 77 % 1021,3 hPa 0,0 l/m 22,5 km/h (4 Bft) S-SW 202 0 min 0,0 UV-I 0 W/m 7,8 C 4,8 C 29,0 km/h (5 Bft)
26.05.2022 01:44 11,7 C 11,1 C 77 % 1021,2 hPa 0,0 l/m 17,7 km/h (3 Bft) S-SW 202 0 min 0,0 UV-I 0 W/m 7,8 C 6,2 C 24,1 km/h (4 Bft)
26.05.2022 01:45 11,7 C 11,1 C 77 % 1021,2 hPa 0,0 l/m 19,3 km/h (3 Bft) S-SW 202 0 min 0,0 UV-I 0 W/m 7,8 C 5,7 C 29,0 km/h (5 Bft)
26.05.2022 01:46 11,7 C 11,1 C 78 % 1021,3 hPa 0,0 l/m 16,1 km/h (3 Bft) SW 225 0 min 0,0 UV-I 0 W/m 8,0 C 6,8 C 22,5 km/h (4 Bft)
26.05.2022 01:47 11,7 C 11,1 C 78 % 1021,3 hPa 0,0 l/m 11,3 km/h (2 Bft) SW 225 0 min 0,0 UV-I 0 W/m 8,0 C 8,8 C 16,1 km/h (3 Bft)
26.05.2022 01:48 11,7 C 11,1 C 78 % 1021,3 hPa 0,0 l/m 16,1 km/h (3 Bft) S-SW 202 0 min 0,0 UV-I 0 W/m 8,0 C 6,8 C 27,4 km/h (4 Bft)
26.05.2022 01:49 11,6 C 11,1 C 78 % 1021,3 hPa 0,0 l/m 14,5 km/h (3 Bft) S-SW 202 0 min 0,0 UV-I 0 W/m 7,9 C 7,3 C 20,9 km/h (4 Bft)
26.05.2022 01:50 11,6 C 11,1 C 78 % 1021,3 hPa 0,0 l/m 17,7 km/h (3 Bft) S-SW 202 0 min 0,0 UV-I 0 W/m 7,9 C 6,1 C 25,7 km/h (4 Bft)
26.05.2022 01:51 11,6 C 11,1 C 78 % 1021,4 hPa 0,0 l/m 12,9 km/h (3 Bft) S-SW 202 0 min 0,0 UV-I 0 W/m 7,9 C 7,9 C 17,7 km/h (3 Bft)
26.05.2022 01:52 11,6 C 11,1 C 79 % 1021,3 hPa 0,0 l/m 12,9 km/h (3 Bft) S-SW 202 0 min 0,0 UV-I 0 W/m 8,1 C 7,9 C 20,9 km/h (4 Bft)
26.05.2022 01:53 11,5 C 11,1 C 79 % 1021,4 hPa 0,0 l/m 12,9 km/h (3 Bft) S-SW 202 0 min 0,0 UV-I 0 W/m 8,0 C 7,8 C 19,3 km/h (3 Bft)
26.05.2022 01:54 11,5 C 11,1 C 79 % 1021,3 hPa 0,0 l/m 11,3 km/h (2 Bft) SW 225 0 min 0,0 UV-I 0 W/m 8,0 C 8,6 C 16,1 km/h (3 Bft)
26.05.2022 01:55 11,4 C 11,1 C 79 % 1021,3 hPa 0,0 l/m 8,0 km/h (2 Bft) S-SW 202 0 min 0,0 UV-I 0 W/m 7,9 C 10,3 C 12,9 km/h (3 Bft)
26.05.2022 01:56 11,4 C 11,1 C 79 % 1021,3 hPa 0,0 l/m 11,3 km/h (2 Bft) S-SW 202 0 min 0,0 UV-I 0 W/m 7,9 C 8,5 C 17,7 km/h (3 Bft)
26.05.2022 01:57 11,4 C 11,1 C 79 % 1021,3 hPa 0,0 l/m 14,5 km/h (3 Bft) SW 225 0 min 0,0 UV-I 0 W/m 7,9 C 7,0 C 19,3 km/h (3 Bft)
26.05.2022 01:58 11,4 C 11,1 C 80 % 1021,3 hPa 0,0 l/m 8,0 km/h (2 Bft) S-SW 202 0 min 0,0 UV-I 0 W/m 8,1 C 10,3 C 16,1 km/h (3 Bft)
26.05.2022 01:59 11,4 C 11,1 C 80 % 1021,5 hPa 0,0 l/m 12,9 km/h (3 Bft) S-SW 202 0 min 0,0 UV-I 0 W/m 8,1 C 7,7 C 19,3 km/h (3 Bft)
26.05.2022 02:00 11,4 C 11,1 C 80 % 1021,3 hPa 0,0 l/m 11,3 km/h (2 Bft) SW 225 0 min 0,0 UV-I 0 W/m 8,1 C 8,5 C 14,5 km/h (3 Bft)
26.05.2022 02:01 11,4 C 11,1 C 80 % 1021,3 hPa 0,0 l/m 11,3 km/h (2 Bft) SW 225 0 min 0,0 UV-I 0 W/m 8,1 C 8,5 C 19,3 km/h (3 Bft)
26.05.2022 02:02 11,4 C 11,1 C 80 % 1021,2 hPa 0,0 l/m 11,3 km/h (2 Bft) S-SW 202 0 min 0,0 UV-I 0 W/m 8,1 C 8,5 C 20,9 km/h (4 Bft)
26.05.2022 02:03 11,4 C 11,1 C 80 % 1021,3 hPa 0,0 l/m 11,3 km/h (2 Bft) SW 225 0 min 0,0 UV-I 0 W/m 8,1 C 8,5 C 16,1 km/h (3 Bft)
26.05.2022 02:04 11,3 C 10,6 C 80 % 1021,3 hPa 0,0 l/m 6,4 km/h (2 Bft) SW 225 0 min 0,0 UV-I 0 W/m 8,0 C 11,3 C 11,3 km/h (2 Bft)
26.05.2022 02:05 11,3 C 10,6 C 80 % 1021,2 hPa 0,0 l/m 9,7 km/h (2 Bft) S-SW 202 0 min 0,0 UV-I 0 W/m 8,0 C 9,2 C 12,9 km/h (3 Bft)
26.05.2022 02:06 11,3 C 10,6 C 80 % 1021,2 hPa 0,0 l/m 11,3 km/h (2 Bft) S-SW 202 0 min 0,0 UV-I 0 W/m 8,0 C 8,4 C 16,1 km/h (3 Bft)
26.05.2022 02:07 11,3 C 10,6 C 80 % 1021,2 hPa 0,0 l/m 12,9 km/h (3 Bft) S-SW 202 0 min 0,0 UV-I 0 W/m 8,0 C 7,6 C 20,9 km/h (4 Bft)
26.05.2022 02:08 11,3 C 10,6 C 80 % 1021,3 hPa 0,0 l/m 8,0 km/h (2 Bft) S-SW 202 0 min 0,0 UV-I 0 W/m 8,0 C 10,2 C 12,9 km/h (3 Bft)
26.05.2022 02:09 11,3 C 10,6 C 80 % 1021,2 hPa 0,0 l/m 14,5 km/h (3 Bft) S-SW 202 0 min 0,0 UV-I 0 W/m 8,0 C 6,9 C 17,7 km/h (3 Bft)
26.05.2022 02:10 11,3 C 10,6 C 80 % 1021,2 hPa 0,0 l/m 8,0 km/h (2 Bft) S 180 0 min 0,0 UV-I 0 W/m 8,0 C 10,2 C 14,5 km/h (3 Bft)
26.05.2022 02:11 11,3 C 10,6 C 81 % 1021,1 hPa 0,0 l/m 9,7 km/h (2 Bft) S-SW 202 0 min 0,0 UV-I 0 W/m 8,2 C 9,2 C 11,3 km/h (2 Bft)
26.05.2022 02:12 11,3 C 10,6 C 81 % 1021,2 hPa 0,0 l/m 12,9 km/h (3 Bft) S-SW 202 0 min 0,0 UV-I 0 W/m 8,2 C 7,6 C 17,7 km/h (3 Bft)
26.05.2022 02:13 11,3 C 10,6 C 81 % 1021,2 hPa 0,0 l/m 8,0 km/h (2 Bft) S-SW 202 0 min 0,0 UV-I 0 W/m 8,2 C 10,2 C 14,5 km/h (3 Bft)
26.05.2022 02:14 11,3 C 10,6 C 81 % 1021,2 hPa 0,0 l/m 8,0 km/h (2 Bft) S 180 0 min 0,0 UV-I 0 W/m 8,2 C 10,2 C 11,3 km/h (2 Bft)
26.05.2022 02:15 11,2 C 10,6 C 81 % 1021,2 hPa 0,0 l/m 11,3 km/h (2 Bft) S 180 0 min 0,0 UV-I 0 W/m 8,1 C 8,2 C 16,1 km/h (3 Bft)
26.05.2022 02:16 11,3 C 10,6 C 81 % 1021,2 hPa 0,0 l/m 12,9 km/h (3 Bft) S-SW 202 0 min 0,0 UV-I 0 W/m 8,2 C 7,6 C 16,1 km/h (3 Bft)
26.05.2022 02:17 11,3 C 10,6 C 81 % 1021,2 hPa 0,0 l/m 9,7 km/h (2 Bft) S-SW 202 0 min 0,0 UV-I 0 W/m 8,2 C 9,2 C 12,9 km/h (3 Bft)
26.05.2022 02:18 11,2 C 10,6 C 81 % 1021,3 hPa 0,0 l/m 4,8 km/h (1 Bft) S 180 0 min 0,0 UV-I 0 W/m 8,1 C 11,2 C 8,0 km/h (2 Bft)
26.05.2022 02:19 11,2 C 10,6 C 81 % 1021,2 hPa 0,0 l/m 8,0 km/h (2 Bft) S-SW 202 0 min 0,0 UV-I 0 W/m 8,1 C 10,1 C 11,3 km/h (2 Bft)
26.05.2022 02:20 11,2 C 10,6 C 81 % 1021,2 hPa 0,0 l/m 8,0 km/h (2 Bft) S-SW 202 0 min 0,0 UV-I 0 W/m 8,1 C 10,1 C 9,7 km/h (2 Bft)
26.05.2022 02:21 11,2 C 10,6 C 81 % 1021,1 hPa 0,0 l/m 6,4 km/h (2 Bft) S-SW 202 0 min 0,0 UV-I 0 W/m 8,1 C 11,2 C 11,3 km/h (2 Bft)
26.05.2022 02:22 11,2 C 10,6 C 81 % 1021,2 hPa 0,0 l/m 8,0 km/h (2 Bft) S-SW 202 0 min 0,0 UV-I 0 W/m 8,1 C 10,1 C 11,3 km/h (2 Bft)
26.05.2022 02:23 11,2 C 10,6 C 81 % 1021,1 hPa 0,0 l/m 9,7 km/h (2 Bft) S-SW 202 0 min 0,0 UV-I 0 W/m 8,1 C 9,1 C 14,5 km/h (3 Bft)
26.05.2022 02:24 11,2 C 10,6 C 81 % 1021,2 hPa 0,0 l/m 9,7 km/h (2 Bft) S 180 0 min 0,0 UV-I 0 W/m 8,1 C 9,1 C 16,1 km/h (3 Bft)
26.05.2022 02:25 11,2 C 10,6 C 81 % 1021,2 hPa 0,0 l/m 8,0 km/h (2 Bft) S-SW 202 0 min 0,0 UV-I 0 W/m 8,1 C 10,1 C 11,3 km/h (2 Bft)
26.05.2022 02:26 11,2 C 10,6 C 81 % 1021,2 hPa 0,0 l/m 11,3 km/h (2 Bft) S-SW 202 0 min 0,0 UV-I 0 W/m 8,1 C 8,2 C 19,3 km/h (3 Bft)
26.05.2022 02:27 11,2 C 10,6 C 81 % 1021,2 hPa 0,0 l/m 14,5 km/h (3 Bft) S-SW 202 0 min 0,0 UV-I 0 W/m 8,1 C 6,8 C 17,7 km/h (3 Bft)
26.05.2022 02:28 11,2 C 10,6 C 81 % 1021,2 hPa 0,0 l/m 12,9 km/h (3 Bft) S-SW 202 0 min 0,0 UV-I 0 W/m 8,1 C 7,5 C 17,7 km/h (3 Bft)
26.05.2022 02:29 11,2 C 10,6 C 81 % 1021,1 hPa 0,0 l/m 11,3 km/h (2 Bft) S 180 0 min 0,0 UV-I 0 W/m 8,1 C 8,2 C 14,5 km/h (3 Bft)
26.05.2022 02:30 11,2 C 10,6 C 81 % 1021,0 hPa 0,0 l/m 12,9 km/h (3 Bft) S-SW 202 0 min 0,0 UV-I 0 W/m 8,1 C 7,5 C 16,1 km/h (3 Bft)
26.05.2022 02:31 11,2 C 10,6 C 81 % 1021,1 hPa 0,0 l/m 9,7 km/h (2 Bft) S-SW 202 0 min 0,0 UV-I 0 W/m 8,1 C 9,1 C 16,1 km/h (3 Bft)
26.05.2022 02:32 11,2 C 10,6 C 81 % 1021,3 hPa 0,0 l/m 9,7 km/h (2 Bft) S-SW 202 0 min 0,0 UV-I 0 W/m 8,1 C 9,1 C 14,5 km/h (3 Bft)
26.05.2022 02:33 11,2 C 10,6 C 81 % 1021,2 hPa 0,0 l/m 11,3 km/h (2 Bft) S-SW 202 0 min 0,0 UV-I 0 W/m 8,1 C 8,2 C 16,1 km/h (3 Bft)
26.05.2022 02:34 11,2 C 10,6 C 82 % 1021,2 hPa 0,0 l/m 9,7 km/h (2 Bft) S-SW 202 0 min 0,0 UV-I 0 W/m 8,2 C 9,1 C 17,7 km/h (3 Bft)
26.05.2022 02:35 11,2 C 10,6 C 82 % 1021,1 hPa 0,0 l/m 9,7 km/h (2 Bft) SW 225 0 min 0,0 UV-I 0 W/m 8,2 C 9,1 C 12,9 km/h (3 Bft)
26.05.2022 02:36 11,2 C 10,6 C 82 % 1021,1 hPa 0,0 l/m 9,7 km/h (2 Bft) S-SW 202 0 min 0,0 UV-I 0 W/m 8,2 C 9,1 C 14,5 km/h (3 Bft)
26.05.2022 02:37 11,2 C 10,6 C 82 % 1021,1 hPa 0,0 l/m 8,0 km/h (2 Bft) S-SW 202 0 min 0,0 UV-I 0 W/m 8,2 C 10,1 C 19,3 km/h (3 Bft)
26.05.2022 02:38 11,1 C 10,6 C 82 % 1021,2 hPa 0,0 l/m 12,9 km/h (3 Bft) S-SW 202 0 min 0,0 UV-I 0 W/m 8,1 C 7,4 C 17,7 km/h (3 Bft)
26.05.2022 02:39 11,1 C 10,6 C 82 % 1021,1 hPa 0,0 l/m 11,3 km/h (2 Bft) S-SW 202 0 min 0,0 UV-I 0 W/m 8,1 C 8,1 C 17,7 km/h (3 Bft)
26.05.2022 02:40 11,1 C 10,6 C 82 % 1021,2 hPa 0,0 l/m 8,0 km/h (2 Bft) S-SW 202 0 min 0,0 UV-I 0 W/m 8,1 C 10,0 C 11,3 km/h (2 Bft)
26.05.2022 02:41 11,1 C 10,6 C 82 % 1021,0 hPa 0,0 l/m 9,7 km/h (2 Bft) S-SW 202 0 min 0,0 UV-I 0 W/m 8,1 C 9,0 C 12,9 km/h (3 Bft)
26.05.2022 02:42 11,1 C 10,6 C 82 % 1021,1 hPa 0,0 l/m 11,3 km/h (2 Bft) S-SW 202 0 min 0,0 UV-I 0 W/m 8,1 C 8,1 C 14,5 km/h (3 Bft)
26.05.2022 02:43 11,1 C 10,6 C 82 % 1021,2 hPa 0,0 l/m 11,3 km/h (2 Bft) S-SW 202 0 min 0,0 UV-I 0 W/m 8,1 C 8,1 C 14,5 km/h (3 Bft)
26.05.2022 02:44 11,1 C 10,6 C 82 % 1021,2 hPa 0,0 l/m 14,5 km/h (3 Bft) S-SW 202 0 min 0,0 UV-I 0 W/m 8,1 C 6,7 C 17,7 km/h (3 Bft)
26.05.2022 02:45 11,1 C 10,6 C 82 % 1021,1 hPa 0,0 l/m 11,3 km/h (2 Bft) S-SW 202 0 min 0,0 UV-I 0 W/m 8,1 C 8,1 C 16,1 km/h (3 Bft)
26.05.2022 02:46 11,1 C 10,6 C 82 % 1021,1 hPa 0,0 l/m 8,0 km/h (2 Bft) S-SW 202 0 min 0,0 UV-I 0 W/m 8,1 C 10,0 C 11,3 km/h (2 Bft)
26.05.2022 02:47 11,1 C 10,6 C 82 % 1021,1 hPa 0,0 l/m 8,0 km/h (2 Bft) S 180 0 min 0,0 UV-I 0 W/m 8,1 C 10,0 C 9,7 km/h (2 Bft)
26.05.2022 02:48 11,1 C 10,6 C 82 % 1021,1 hPa 0,0 l/m 11,3 km/h (2 Bft) S 180 0 min 0,0 UV-I 0 W/m 8,1 C 8,1 C 14,5 km/h (3 Bft)
26.05.2022 02:49 11,1 C 10,6 C 82 % 1021,1 hPa 0,0 l/m 8,0 km/h (2 Bft) S-SW 202 0 min 0,0 UV-I 0 W/m 8,1 C 10,0 C 9,7 km/h (2 Bft)
26.05.2022 02:50 11,1 C 10,6 C 82 % 1021,1 hPa 0,0 l/m 8,0 km/h (2 Bft) S 180 0 min 0,0 UV-I 0 W/m 8,1 C 10,0 C 9,7 km/h (2 Bft)
26.05.2022 02:51 11,1 C 10,6 C 82 % 1021,1 hPa 0,0 l/m 8,0 km/h (2 Bft) S 180 0 min 0,0 UV-I 0 W/m 8,1 C 10,0 C 11,3 km/h (2 Bft)
26.05.2022 02:52 11,1 C 10,6 C 82 % 1021,1 hPa 0,0 l/m 6,4 km/h (2 Bft) S-SW 202 0 min 0,0 UV-I 0 W/m 8,1 C 11,1 C 9,7 km/h (2 Bft)
26.05.2022 02:53 11,1 C 10,6 C 83 % 1021,1 hPa 0,0 l/m 6,4 km/h (2 Bft) S-SW 202 0 min 0,0 UV-I 0 W/m 8,3 C 11,1 C 8,0 km/h (2 Bft)
26.05.2022 02:54 11,1 C 10,6 C 83 % 1021,2 hPa 0,0 l/m 9,7 km/h (2 Bft) S-SW 202 0 min 0,0 UV-I 0 W/m 8,3 C 9,0 C 14,5 km/h (3 Bft)
26.05.2022 02:55 11,1 C 10,6 C 83 % 1021,2 hPa 0,0 l/m 8,0 km/h (2 Bft) S-SW 202 0 min 0,0 UV-I 0 W/m 8,3 C 10,0 C 12,9 km/h (3 Bft)
26.05.2022 02:56 11,1 C 10,6 C 83 % 1021,1 hPa 0,0 l/m 12,9 km/h (3 Bft) S-SW 202 0 min 0,0 UV-I 0 W/m 8,3 C 7,4 C 16,1 km/h (3 Bft)
26.05.2022 02:57 11,1 C 10,6 C 83 % 1021,1 hPa 0,0 l/m 9,7 km/h (2 Bft) S-SW 202 0 min 0,0 UV-I 0 W/m 8,3 C 9,0 C 12,9 km/h (3 Bft)
26.05.2022 02:58 11,1 C 10,6 C 83 % 1021,1 hPa 0,0 l/m 12,9 km/h (3 Bft) S-SW 202 0 min 0,0 UV-I 0 W/m 8,3 C 7,4 C 14,5 km/h (3 Bft)
26.05.2022 02:59 11,1 C 10,6 C 83 % 1021,1 hPa 0,0 l/m 9,7 km/h (2 Bft) S-SW 202 0 min 0,0 UV-I 0 W/m 8,3 C 9,0 C 12,9 km/h (3 Bft)
26.05.2022 03:00 11,1 C 10,6 C 83 % 1021,0 hPa 0,0 l/m 11,3 km/h (2 Bft) S 180 0 min 0,0 UV-I 0 W/m 8,3 C 8,1 C 17,7 km/h (3 Bft)
26.05.2022 03:01 11,1 C 10,6 C 83 % 1021,1 hPa 0,0 l/m 12,9 km/h (3 Bft) S 180 0 min 0,0 UV-I 0 W/m 8,3 C 7,4 C 17,7 km/h (3 Bft)
26.05.2022 03:02 11,1 C 10,6 C 82 % 1021,1 hPa 0,0 l/m 12,9 km/h (3 Bft) S-SW 202 0 min 0,0 UV-I 0 W/m 8,1 C 7,4 C 16,1 km/h (3 Bft)
26.05.2022 03:03 11,1 C 10,6 C 82 % 1021,0 hPa 0,0 l/m 6,4 km/h (2 Bft) S-SW 202 0 min 0,0 UV-I 0 W/m 8,1 C 11,1 C 11,3 km/h (2 Bft)
26.05.2022 03:04 11,1 C 10,6 C 82 % 1021,1 hPa 0,0 l/m 9,7 km/h (2 Bft) S 180 0 min 0,0 UV-I 0 W/m 8,1 C 9,0 C 16,1 km/h (3 Bft)
26.05.2022 03:05 11,1 C 10,6 C 82 % 1021,1 hPa 0,0 l/m 9,7 km/h (2 Bft) S 180 0 min 0,0 UV-I 0 W/m 8,1 C 9,0 C 16,1 km/h (3 Bft)
26.05.2022 03:06 11,1 C 10,6 C 82 % 1021,1 hPa 0,0 l/m 11,3 km/h (2 Bft) S-SW 202 0 min 0,0 UV-I 0 W/m 8,1 C 8,1 C 17,7 km/h (3 Bft)
26.05.2022 03:07 11,2 C 10,6 C 82 % 1021,1 hPa 0,0 l/m 12,9 km/h (3 Bft) S 180 0 min 0,0 UV-I 0 W/m 8,2 C 7,5 C 27,4 km/h (4 Bft)
26.05.2022 03:08 11,2 C 10,6 C 82 % 1021,1 hPa 0,0 l/m 16,1 km/h (3 Bft) S 180 0 min 0,0 UV-I 0 W/m 8,2 C 6,2 C 19,3 km/h (3 Bft)
26.05.2022 03:09 11,1 C 10,6 C 82 % 1021,1 hPa 0,0 l/m 14,5 km/h (3 Bft) S 180 0 min 0,0 UV-I 0 W/m 8,1 C 6,7 C 19,3 km/h (3 Bft)
26.05.2022 03:10 11,1 C 10,6 C 82 % 1021,1 hPa 0,0 l/m 12,9 km/h (3 Bft) S 180 0 min 0,0 UV-I 0 W/m 8,1 C 7,4 C 16,1 km/h (3 Bft)
26.05.2022 03:11 11,1 C 10,6 C 82 % 1021,1 hPa 0,0 l/m 14,5 km/h (3 Bft) S-SW 202 0 min 0,0 UV-I 0 W/m 8,1 C 6,7 C 20,9 km/h (4 Bft)
26.05.2022 03:12 11,1 C 10,6 C 82 % 1021,2 hPa 0,0 l/m 17,7 km/h (3 Bft) S-SW 202 0 min 0,0 UV-I 0 W/m 8,1 C 5,5 C 25,7 km/h (4 Bft)
26.05.2022 03:13 11,1 C 10,6 C 83 % 1021,1 hPa 0,0 l/m 16,1 km/h (3 Bft) S-SW 202 0 min 0,0 UV-I 0 W/m 8,3 C 6,0 C 27,4 km/h (4 Bft)
26.05.2022 03:14 11,1 C 10,6 C 83 % 1021,2 hPa 0,0 l/m 12,9 km/h (3 Bft) S-SW 202 0 min 0,0 UV-I 0 W/m 8,3 C 7,4 C 17,7 km/h (3 Bft)
26.05.2022 03:15 11,1 C 10,6 C 83 % 1021,2 hPa 0,0 l/m 17,7 km/h (3 Bft) S-SW 202 0 min 0,0 UV-I 0 W/m 8,3 C 5,5 C 24,1 km/h (4 Bft)
26.05.2022 03:16 11,0 C 10,6 C 83 % 1021,2 hPa 0,0 l/m 17,7 km/h (3 Bft) S-SW 202 0 min 0,0 UV-I 0 W/m 8,2 C 5,3 C 22,5 km/h (4 Bft)
26.05.2022 03:17 11,0 C 10,0 C 83 % 1021,2 hPa 0,0 l/m 19,3 km/h (3 Bft) S-SW 202 0 min 0,0 UV-I 0 W/m 8,2 C 4,8 C 22,5 km/h (4 Bft)
26.05.2022 03:18 10,9 C 10,0 C 84 % 1021,2 hPa 0,0 l/m 17,7 km/h (3 Bft) S-SW 202 0 min 0,0 UV-I 0 W/m 8,3 C 5,2 C 24,1 km/h (4 Bft)
26.05.2022 03:19 10,9 C 9,4 C 84 % 1021,2 hPa 0,0 l/m 14,5 km/h (3 Bft) S-SW 202 0 min 0,0 UV-I 0 W/m 8,3 C 6,4 C 19,3 km/h (3 Bft)
26.05.2022 03:20 10,8 C 9,4 C 84 % 1021,3 hPa 0,0 l/m 14,5 km/h (3 Bft) S-SW 202 0 min 0,0 UV-I 0 W/m 8,2 C 6,3 C 19,3 km/h (3 Bft)
26.05.2022 03:21 10,8 C 9,4 C 85 % 1021,2 hPa 0,0 l/m 14,5 km/h (3 Bft) S-SW 202 0 min 0,0 UV-I 0 W/m 8,4 C 6,3 C 20,9 km/h (4 Bft)
26.05.2022 03:22 10,7 C 9,4 C 85 % 1021,2 hPa 0,0 l/m 12,9 km/h (3 Bft) S-SW 202 0 min 0,0 UV-I 0 W/m 8,3 C 6,9 C 16,1 km/h (3 Bft)
26.05.2022 03:23 10,7 C 9,4 C 85 % 1021,2 hPa 0,0 l/m 11,3 km/h (2 Bft) S-SW 202 0 min 0,0 UV-I 0 W/m 8,3 C 7,7 C 17,7 km/h (3 Bft)
26.05.2022 03:24 10,6 C 9,4 C 86 % 1021,3 hPa 0,0 l/m 14,5 km/h (3 Bft) S-SW 202 0 min 0,0 UV-I 0 W/m 8,4 C 6,1 C 17,7 km/h (3 Bft)
26.05.2022 03:25 10,6 C 9,4 C 86 % 1021,3 hPa 0,0 l/m 14,5 km/h (3 Bft) S-SW 202 0 min 0,0 UV-I 0 W/m 8,4 C 6,1 C 19,3 km/h (3 Bft)
26.05.2022 03:26 10,6 C 9,4 C 86 % 1021,3 hPa 0,0 l/m 11,3 km/h (2 Bft) S-SW 202 0 min 0,0 UV-I 0 W/m 8,4 C 7,6 C 14,5 km/h (3 Bft)
26.05.2022 03:27 10,5 C 9,4 C 86 % 1021,3 hPa 0,0 l/m 12,9 km/h (3 Bft) S 180 0 min 0,0 UV-I 0 W/m 8,3 C 6,7 C 17,7 km/h (3 Bft)
26.05.2022 03:28 10,5 C 9,4 C 87 % 1021,4 hPa 0,0 l/m 16,1 km/h (3 Bft) S 180 0 min 0,0 UV-I 0 W/m 8,4 C 5,3 C 24,1 km/h (4 Bft)
26.05.2022 03:29 10,4 C 9,4 C 87 % 1021,3 hPa 0,0 l/m 11,3 km/h (2 Bft) S-SW 202 0 min 0,0 UV-I 0 W/m 8,3 C 7,3 C 16,1 km/h (3 Bft)
26.05.2022 03:30 10,4 C 9,4 C 87 % 1021,3 hPa 0,0 l/m 14,5 km/h (3 Bft) S 180 0 min 0,0 UV-I 0 W/m 8,3 C 5,8 C 19,3 km/h (3 Bft)
26.05.2022 03:31 10,4 C 9,4 C 87 % 1021,2 hPa 0,2 l/m 14,5 km/h (3 Bft) S 180 0 min 0,0 UV-I 0 W/m 8,3 C 5,8 C 24,1 km/h (4 Bft)
26.05.2022 03:32 10,4 C 9,4 C 87 % 1021,3 hPa 0,0 l/m 11,3 km/h (2 Bft) S 180 0 min 0,0 UV-I 0 W/m 8,3 C 7,3 C 17,7 km/h (3 Bft)
26.05.2022 03:33 10,4 C 9,4 C 88 % 1021,3 hPa 0,0 l/m 14,5 km/h (3 Bft) S-SW 202 0 min 0,0 UV-I 0 W/m 8,5 C 5,8 C 20,9 km/h (4 Bft)
26.05.2022 03:34 10,3 C 9,4 C 88 % 1021,3 hPa 0,0 l/m 14,5 km/h (3 Bft) S 180 0 min 0,0 UV-I 0 W/m 8,4 C 5,7 C 17,7 km/h (3 Bft)
26.05.2022 03:35 10,3 C 9,4 C 88 % 1021,3 hPa 0,0 l/m 14,5 km/h (3 Bft) S-SW 202 0 min 0,0 UV-I 0 W/m 8,4 C 5,7 C 19,3 km/h (3 Bft)
26.05.2022 03:36 10,3 C 9,4 C 88 % 1021,3 hPa 0,0 l/m 14,5 km/h (3 Bft) S-SO 157 0 min 0,0 UV-I 0 W/m 8,4 C 5,7 C 17,7 km/h (3 Bft)
26.05.2022 03:37 10,3 C 9,4 C 88 % 1021,3 hPa 0,0 l/m 11,3 km/h (2 Bft) S-SW 202 0 min 0,0 UV-I 0 W/m 8,4 C 7,2 C 17,7 km/h (3 Bft)
26.05.2022 03:38 10,3 C 9,4 C 88 % 1021,2 hPa 0,0 l/m 9,7 km/h (2 Bft) S 180 0 min 0,0 UV-I 0 W/m 8,4 C 8,1 C 16,1 km/h (3 Bft)
26.05.2022 03:39 10,3 C 9,4 C 89 % 1021,3 hPa 0,0 l/m 14,5 km/h (3 Bft) S 180 0 min 0,0 UV-I 0 W/m 8,6 C 5,7 C 25,7 km/h (4 Bft)
26.05.2022 03:40 10,3 C 9,4 C 89 % 1021,3 hPa 0,0 l/m 11,3 km/h (2 Bft) S 180 0 min 0,0 UV-I 0 W/m 8,6 C 7,2 C 19,3 km/h (3 Bft)
26.05.2022 03:41 10,3 C 9,4 C 89 % 1021,3 hPa 0,0 l/m 14,5 km/h (3 Bft) S 180 0 min 0,0 UV-I 0 W/m 8,6 C 5,7 C 17,7 km/h (3 Bft)
26.05.2022 03:42 10,3 C 9,4 C 89 % 1021,2 hPa 0,0 l/m 12,9 km/h (3 Bft) S-SW 202 0 min 0,0 UV-I 0 W/m 8,6 C 6,4 C 17,7 km/h (3 Bft)
26.05.2022 03:43 10,3 C 9,4 C 89 % 1021,3 hPa 0,0 l/m 14,5 km/h (3 Bft) S-SW 202 0 min 0,0 UV-I 0 W/m 8,6 C 5,7 C 22,5 km/h (4 Bft)
26.05.2022 03:44 10,2 C 9,4 C 89 % 1021,2 hPa 0,0 l/m 11,3 km/h (2 Bft) S-SW 202 0 min 0,0 UV-I 0 W/m 8,5 C 7,1 C 16,1 km/h (3 Bft)
26.05.2022 03:45 10,2 C 9,4 C 89 % 1021,3 hPa 0,0 l/m 12,9 km/h (3 Bft) S-SW 202 0 min 0,0 UV-I 0 W/m 8,5 C 6,3 C 17,7 km/h (3 Bft)
26.05.2022 03:46 10,3 C 9,4 C 89 % 1021,3 hPa 0,0 l/m 11,3 km/h (2 Bft) S-SW 202 0 min 0,0 UV-I 0 W/m 8,6 C 7,2 C 16,1 km/h (3 Bft)
26.05.2022 03:47 10,3 C 9,4 C 89 % 1021,3 hPa 0,0 l/m 11,3 km/h (2 Bft) S-SW 202 0 min 0,0 UV-I 0 W/m 8,6 C 7,2 C 14,5 km/h (3 Bft)
26.05.2022 03:48 10,2 C 9,4 C 89 % 1021,3 hPa 0,0 l/m 11,3 km/h (2 Bft) SW 225 0 min 0,0 UV-I 0 W/m 8,5 C 7,1 C 16,1 km/h (3 Bft)
26.05.2022 03:49 10,3 C 9,4 C 89 % 1021,3 hPa 0,0 l/m 9,7 km/h (2 Bft) S-SW 202 0 min 0,0 UV-I 0 W/m 8,6 C 8,1 C 14,5 km/h (3 Bft)
26.05.2022 03:50 10,3 C 9,4 C 89 % 1021,3 hPa 0,0 l/m 8,0 km/h (2 Bft) S-SW 202 0 min 0,0 UV-I 0 W/m 8,6 C 9,2 C 11,3 km/h (2 Bft)
26.05.2022 03:51 10,2 C 9,4 C 89 % 1021,2 hPa 0,0 l/m 9,7 km/h (2 Bft) S-SW 202 0 min 0,0 UV-I 0 W/m 8,5 C 8,0 C 14,5 km/h (3 Bft)
26.05.2022 03:52 10,2 C 9,4 C 89 % 1021,2 hPa 0,0 l/m 8,0 km/h (2 Bft) S 180 0 min 0,0 UV-I 0 W/m 8,5 C 9,1 C 9,7 km/h (2 Bft)
26.05.2022 03:53 10,2 C 9,4 C 89 % 1021,3 hPa 0,0 l/m 9,7 km/h (2 Bft) S-SW 202 0 min 0,0 UV-I 0 W/m 8,5 C 8,0 C 12,9 km/h (3 Bft)
26.05.2022 03:54 10,2 C 9,4 C 89 % 1021,3 hPa 0,0 l/m 9,7 km/h (2 Bft) S-SW 202 0 min 0,0 UV-I 0 W/m 8,5 C 8,0 C 19,3 km/h (3 Bft)
26.05.2022 03:55 10,2 C 9,4 C 89 % 1021,2 hPa 0,0 l/m 12,9 km/h (3 Bft) S 180 0 min 0,0 UV-I 0 W/m 8,5 C 6,3 C 17,7 km/h (3 Bft)
26.05.2022 03:56 10,3 C 9,4 C 90 % 1021,3 hPa 0,0 l/m 9,7 km/h (2 Bft) S 180 0 min 0,0 UV-I 0 W/m 8,7 C 8,1 C 16,1 km/h (3 Bft)
26.05.2022 03:57 10,3 C 9,4 C 90 % 1021,2 hPa 0,0 l/m 8,0 km/h (2 Bft) S-SW 202 0 min 0,0 UV-I 0 W/m 8,7 C 9,2 C 11,3 km/h (2 Bft)
26.05.2022 03:58 10,3 C 9,4 C 90 % 1021,3 hPa 0,0 l/m 6,4 km/h (2 Bft) S-SW 202 0 min 0,0 UV-I 0 W/m 8,7 C 10,3 C 12,9 km/h (3 Bft)
26.05.2022 03:59 10,3 C 9,4 C 90 % 1021,2 hPa 0,0 l/m 12,9 km/h (3 Bft) S-SW 202 0 min 0,0 UV-I 0 W/m 8,7 C 6,4 C 14,5 km/h (3 Bft)
26.05.2022 04:00 10,2 C 9,4 C 90 % 1021,2 hPa 0,0 l/m 12,9 km/h (3 Bft) S-SW 202 0 min 0,0 UV-I 0 W/m 8,6 C 6,3 C 17,7 km/h (3 Bft)
26.05.2022 04:01 10,3 C 9,4 C 90 % 1021,2 hPa 0,0 l/m 8,0 km/h (2 Bft) S-SW 202 0 min 0,0 UV-I 0 W/m 8,7 C 9,2 C 11,3 km/h (2 Bft)
26.05.2022 04:02 10,3 C 9,4 C 90 % 1021,2 hPa 0,0 l/m 8,0 km/h (2 Bft) S-SW 202 0 min 0,0 UV-I 0 W/m 8,7 C 9,2 C 11,3 km/h (2 Bft)
26.05.2022 04:03 10,3 C 9,4 C 90 % 1021,1 hPa 0,0 l/m 12,9 km/h (3 Bft) S-SW 202 0 min 0,0 UV-I 0 W/m 8,7 C 6,4 C 19,3 km/h (3 Bft)
26.05.2022 04:04 10,3 C 9,4 C 90 % 1021,2 hPa 0,0 l/m 11,3 km/h (2 Bft) S 180 0 min 0,0 UV-I 0 W/m 8,7 C 7,2 C 16,1 km/h (3 Bft)
26.05.2022 04:05 10,3 C 9,4 C 90 % 1021,2 hPa 0,0 l/m 16,1 km/h (3 Bft) S-SW 202 0 min 0,0 UV-I 0 W/m 8,7 C 5,1 C 20,9 km/h (4 Bft)
26.05.2022 04:06 10,3 C 9,4 C 90 % 1021,3 hPa 0,0 l/m 14,5 km/h (3 Bft) S-SW 202 0 min 0,0 UV-I 0 W/m 8,7 C 5,7 C 19,3 km/h (3 Bft)
26.05.2022 04:07 10,3 C 9,4 C 90 % 1021,2 hPa 0,0 l/m 12,9 km/h (3 Bft) S-SW 202 0 min 0,0 UV-I 0 W/m 8,7 C 6,4 C 17,7 km/h (3 Bft)
26.05.2022 04:08 10,2 C 9,4 C 90 % 1021,2 hPa 0,0 l/m 12,9 km/h (3 Bft) S-SW 202 0 min 0,0 UV-I 0 W/m 8,6 C 6,3 C 22,5 km/h (4 Bft)
26.05.2022 04:09 10,3 C 9,4 C 90 % 1021,2 hPa 0,0 l/m 14,5 km/h (3 Bft) S 180 0 min 0,0 UV-I 0 W/m 8,7 C 5,7 C 25,7 km/h (4 Bft)
26.05.2022 04:10 10,3 C 9,4 C 90 % 1021,3 hPa 0,0 l/m 12,9 km/h (3 Bft) S-SW 202 0 min 0,0 UV-I 0 W/m 8,7 C 6,4 C 14,5 km/h (3 Bft)
26.05.2022 04:11 10,3 C 9,4 C 90 % 1021,2 hPa 0,0 l/m 11,3 km/h (2 Bft) S-SW 202 0 min 0,0 UV-I 0 W/m 8,7 C 7,2 C 17,7 km/h (3 Bft)
26.05.2022 04:12 10,3 C 9,4 C 90 % 1021,2 hPa 0,0 l/m 12,9 km/h (3 Bft) S-SW 202 0 min 0,0 UV-I 0 W/m 8,7 C 6,4 C 20,9 km/h (4 Bft)
26.05.2022 04:13 10,3 C 9,4 C 90 % 1021,2 hPa 0,0 l/m 14,5 km/h (3 Bft) S-SW 202 0 min 0,0 UV-I 0 W/m 8,7 C 5,7 C 20,9 km/h (4 Bft)
26.05.2022 04:14 10,3 C 9,4 C 90 % 1021,2 hPa 0,0 l/m 16,1 km/h (3 Bft) S-SW 202 0 min 0,0 UV-I 0 W/m 8,7 C 5,1 C 27,4 km/h (4 Bft)
26.05.2022 04:15 10,3 C 9,4 C 90 % 1021,3 hPa 0,0 l/m 14,5 km/h (3 Bft) S-SW 202 0 min 0,0 UV-I 0 W/m 8,7 C 5,7 C 20,9 km/h (4 Bft)
26.05.2022 04:16 10,3 C 9,4 C 90 % 1021,2 hPa 0,0 l/m 9,7 km/h (2 Bft) S-SW 202 0 min 0,0 UV-I 0 W/m 8,7 C 8,1 C 14,5 km/h (3 Bft)
26.05.2022 04:17 10,3 C 9,4 C 90 % 1021,2 hPa 0,0 l/m 9,7 km/h (2 Bft) SW 225 0 min 0,0 UV-I 0 W/m 8,7 C 8,1 C 12,9 km/h (3 Bft)
26.05.2022 04:18 10,3 C 9,4 C 90 % 1021,3 hPa 0,0 l/m 14,5 km/h (3 Bft) S-SW 202 0 min 0,0 UV-I 0 W/m 8,7 C 5,7 C 17,7 km/h (3 Bft)
26.05.2022 04:19 10,3 C 9,4 C 90 % 1021,3 hPa 0,0 l/m 14,5 km/h (3 Bft) S-SW 202 0 min 0,0 UV-I 0 W/m 8,7 C 5,7 C 19,3 km/h (3 Bft)
26.05.2022 04:20 10,3 C 9,4 C 90 % 1021,2 hPa 0,0 l/m 11,3 km/h (2 Bft) S-SW 202 0 min 0,0 UV-I 0 W/m 8,7 C 7,2 C 14,5 km/h (3 Bft)
26.05.2022 04:21 10,3 C 9,4 C 90 % 1021,3 hPa 0,0 l/m 11,3 km/h (2 Bft) S-SW 202 0 min 0,0 UV-I 0 W/m 8,7 C 7,2 C 12,9 km/h (3 Bft)
26.05.2022 04:22 10,3 C 9,4 C 90 % 1021,2 hPa 0,0 l/m 11,3 km/h (2 Bft) S 180 0 min 0,0 UV-I 0 W/m 8,7 C 7,2 C 14,5 km/h (3 Bft)
26.05.2022 04:23 10,3 C 9,4 C 90 % 1021,2 hPa 0,0 l/m 12,9 km/h (3 Bft) S 180 0 min 0,0 UV-I 0 W/m 8,7 C 6,4 C 17,7 km/h (3 Bft)
26.05.2022 04:24 10,3 C 9,4 C 90 % 1021,2 hPa 0,0 l/m 8,0 km/h (2 Bft) W 270 0 min 0,0 UV-I 0 W/m 8,7 C 9,2 C 14,5 km/h (3 Bft)
26.05.2022 04:25 10,3 C 9,4 C 90 % 1021,2 hPa 0,0 l/m 11,3 km/h (2 Bft) S-SW 202 0 min 0,0 UV-I 0 W/m 8,7 C 7,2 C 16,1 km/h (3 Bft)
26.05.2022 04:26 10,3 C 9,4 C 90 % 1021,3 hPa 0,0 l/m 12,9 km/h (3 Bft) S-SW 202 0 min 0,0 UV-I 0 W/m 8,7 C 6,4 C 17,7 km/h (3 Bft)
26.05.2022 04:27 10,3 C 9,4 C 90 % 1021,2 hPa 0,0 l/m 9,7 km/h (2 Bft) SW 225 0 min 0,0 UV-I 0 W/m 8,7 C 8,1 C 16,1 km/h (3 Bft)
26.05.2022 04:28 10,3 C 9,4 C 90 % 1021,2 hPa 0,0 l/m 12,9 km/h (3 Bft) S-SW 202 0 min 0,0 UV-I 0 W/m 8,7 C 6,4 C 17,7 km/h (3 Bft)
26.05.2022 04:29 10,3 C 9,4 C 90 % 1021,2 hPa 0,0 l/m 12,9 km/h (3 Bft) S-SW 202 0 min 0,0 UV-I 0 W/m 8,7 C 6,4 C 17,7 km/h (3 Bft)
26.05.2022 04:30 10,3 C 9,4 C 90 % 1021,1 hPa 0,0 l/m 9,7 km/h (2 Bft) S-SW 202 0 min 0,0 UV-I 0 W/m 8,7 C 8,1 C 14,5 km/h (3 Bft)
26.05.2022 04:31 10,3 C 9,4 C 90 % 1021,1 hPa 0,0 l/m 8,0 km/h (2 Bft) S 180 0 min 0,0 UV-I 0 W/m 8,7 C 9,2 C 11,3 km/h (2 Bft)
26.05.2022 04:32 10,3 C 9,4 C 90 % 1021,1 hPa 0,0 l/m 12,9 km/h (3 Bft) S-SW 202 0 min 0,0 UV-I 0 W/m 8,7 C 6,4 C 19,3 km/h (3 Bft)
26.05.2022 04:33 10,3 C 9,4 C 90 % 1021,2 hPa 0,0 l/m 11,3 km/h (2 Bft) S 180 0 min 0,0 UV-I 0 W/m 8,7 C 7,2 C 16,1 km/h (3 Bft)
26.05.2022 04:34 10,3 C 9,4 C 90 % 1021,1 hPa 0,0 l/m 9,7 km/h (2 Bft) S-SW 202 0 min 0,0 UV-I 0 W/m 8,7 C 8,1 C 12,9 km/h (3 Bft)
26.05.2022 04:35 10,3 C 9,4 C 90 % 1021,2 hPa 0,0 l/m 9,7 km/h (2 Bft) SW 225 0 min 0,0 UV-I 0 W/m 8,7 C 8,1 C 16,1 km/h (3 Bft)
26.05.2022 04:36 10,3 C 9,4 C 90 % 1021,2 hPa 0,0 l/m 12,9 km/h (3 Bft) S-SW 202 0 min 0,0 UV-I 0 W/m 8,7 C 6,4 C 16,1 km/h (3 Bft)
26.05.2022 04:37 10,3 C 9,4 C 90 % 1021,2 hPa 0,0 l/m 11,3 km/h (2 Bft) S-SW 202 0 min 0,0 UV-I 0 W/m 8,7 C 7,2 C 20,9 km/h (4 Bft)
26.05.2022 04:38 10,3 C 9,4 C 90 % 1021,2 hPa 0,0 l/m 11,3 km/h (2 Bft) S-SW 202 0 min 0,0 UV-I 0 W/m 8,7 C 7,2 C 16,1 km/h (3 Bft)
26.05.2022 04:39 10,3 C 9,4 C 90 % 1021,2 hPa 0,0 l/m 9,7 km/h (2 Bft) S 180 0 min 0,0 UV-I 0 W/m 8,7 C 8,1 C 14,5 km/h (3 Bft)
26.05.2022 04:40 10,3 C 9,4 C 90 % 1021,1 hPa 0,0 l/m 8,0 km/h (2 Bft) S 180 0 min 0,0 UV-I 0 W/m 8,7 C 9,2 C 12,9 km/h (3 Bft)
26.05.2022 04:41 10,3 C 9,4 C 90 % 1021,2 hPa 0,0 l/m 9,7 km/h (2 Bft) S-SW 202 0 min 0,0 UV-I 0 W/m 8,7 C 8,1 C 12,9 km/h (3 Bft)
26.05.2022 04:42 10,3 C 9,4 C 90 % 1021,1 hPa 0,0 l/m 9,7 km/h (2 Bft) S-SW 202 0 min 0,0 UV-I 0 W/m 8,7 C 8,1 C 16,1 km/h (3 Bft)
26.05.2022 04:43 10,3 C 9,4 C 90 % 1021,1 hPa 0,0 l/m 11,3 km/h (2 Bft) S 180 0 min 0,0 UV-I 0 W/m 8,7 C 7,2 C 17,7 km/h (3 Bft)
26.05.2022 04:44 10,3 C 9,4 C 90 % 1021,1 hPa 0,0 l/m 11,3 km/h (2 Bft) S-SW 202 0 min 0,0 UV-I 0 W/m 8,7 C 7,2 C 12,9 km/h (3 Bft)
26.05.2022 04:45 10,3 C 9,4 C 90 % 1021,1 hPa 0,0 l/m 9,7 km/h (2 Bft) S-SW 202 0 min 0,0 UV-I 0 W/m 8,7 C 8,1 C 12,9 km/h (3 Bft)
26.05.2022 04:46 10,3 C 9,4 C 90 % 1021,1 hPa 0,0 l/m 9,7 km/h (2 Bft) S 180 0 min 0,0 UV-I 0 W/m 8,7 C 8,1 C 12,9 km/h (3 Bft)
26.05.2022 04:47 10,3 C 9,4 C 90 % 1021,1 hPa 0,0 l/m 8,0 km/h (2 Bft) S-SW 202 0 min 0,0 UV-I 0 W/m 8,7 C 9,2 C 11,3 km/h (2 Bft)
26.05.2022 04:48 10,3 C 9,4 C 90 % 1021,1 hPa 0,0 l/m 6,4 km/h (2 Bft) S-SW 202 0 min 0,0 UV-I 0 W/m 8,7 C 10,3 C 9,7 km/h (2 Bft)
26.05.2022 04:49 10,2 C 9,4 C 90 % 1021,0 hPa 0,0 l/m 8,0 km/h (2 Bft) S-SW 202 0 min 0,0 UV-I 0 W/m 8,6 C 9,1 C 9,7 km/h (2 Bft)
26.05.2022 04:50 10,2 C 9,4 C 90 % 1021,0 hPa 0,0 l/m 11,3 km/h (2 Bft) S 180 0 min 0,0 UV-I 0 W/m 8,6 C 7,1 C 14,5 km/h (3 Bft)
26.05.2022 04:51 10,3 C 9,4 C 90 % 1021,0 hPa 0,0 l/m 8,0 km/h (2 Bft) S-SW 202 0 min 0,0 UV-I 0 W/m 8,7 C 9,2 C 12,9 km/h (3 Bft)
26.05.2022 04:52 10,2 C 9,4 C 90 % 1021,1 hPa 0,0 l/m 9,7 km/h (2 Bft) S-SW 202 0 min 0,0 UV-I 0 W/m 8,6 C 8,0 C 11,3 km/h (2 Bft)
26.05.2022 04:53 10,2 C 9,4 C 90 % 1021,0 hPa 0,0 l/m 8,0 km/h (2 Bft) S-SW 202 0 min 0,0 UV-I 0 W/m 8,6 C 9,1 C 11,3 km/h (2 Bft)
26.05.2022 04:54 10,2 C 9,4 C 90 % 1021,1 hPa 0,0 l/m 8,0 km/h (2 Bft) S 180 0 min 0,0 UV-I 0 W/m 8,6 C 9,1 C 11,3 km/h (2 Bft)
26.05.2022 04:55 10,2 C 9,4 C 90 % 1021,1 hPa 0,0 l/m 9,7 km/h (2 Bft) S-SW 202 0 min 0,0 UV-I 0 W/m 8,6 C 8,0 C 14,5 km/h (3 Bft)
26.05.2022 04:56 10,2 C 9,4 C 90 % 1021,1 hPa 0,0 l/m 9,7 km/h (2 Bft) S-SW 202 0 min 0,0 UV-I 0 W/m 8,6 C 8,0 C 12,9 km/h (3 Bft)
26.05.2022 04:57 10,2 C 9,4 C 90 % 1021,1 hPa 0,0 l/m 8,0 km/h (2 Bft) S 180 0 min 0,0 UV-I 0 W/m 8,6 C 9,1 C 11,3 km/h (2 Bft)
26.05.2022 04:58 10,2 C 9,4 C 90 % 1021,0 hPa 0,0 l/m 4,8 km/h (1 Bft) S-SW 202 0 min 0,0 UV-I 0 W/m 8,6 C 10,2 C 8,0 km/h (2 Bft)
26.05.2022 04:59 10,2 C 9,4 C 90 % 1021,1 hPa 0,0 l/m 8,0 km/h (2 Bft) S-SW 202 0 min 0,0 UV-I 0 W/m 8,6 C 9,1 C 14,5 km/h (3 Bft)
26.05.2022 05:00 10,2 C 9,4 C 91 % 1021,1 hPa 0,0 l/m 6,4 km/h (2 Bft) S-SW 202 0 min 0,0 UV-I 0 W/m 8,8 C 10,2 C 9,7 km/h (2 Bft)
26.05.2022 05:01 10,2 C 9,4 C 90 % 1021,1 hPa 0,0 l/m 8,0 km/h (2 Bft) S-SW 202 0 min 0,0 UV-I 0 W/m 8,6 C 9,1 C 11,3 km/h (2 Bft)
26.05.2022 05:02 10,2 C 9,4 C 91 % 1021,2 hPa 0,0 l/m 8,0 km/h (2 Bft) S-SW 202 0 min 0,0 UV-I 0 W/m 8,8 C 9,1 C 11,3 km/h (2 Bft)
26.05.2022 05:03 10,2 C 9,4 C 91 % 1021,2 hPa 0,0 l/m 8,0 km/h (2 Bft) S-SW 202 0 min 0,0 UV-I 0 W/m 8,8 C 9,1 C 11,3 km/h (2 Bft)
26.05.2022 05:04 10,2 C 9,4 C 90 % 1021,2 hPa 0,0 l/m 6,4 km/h (2 Bft) S-SW 202 0 min 0,0 UV-I 0 W/m 8,6 C 10,2 C 9,7 km/h (2 Bft)
26.05.2022 05:05 10,2 C 9,4 C 91 % 1021,1 hPa 0,0 l/m 6,4 km/h (2 Bft) S-SW 202 0 min 0,0 UV-I 0 W/m 8,8 C 10,2 C 9,7 km/h (2 Bft)
26.05.2022 05:06 10,2 C 9,4 C 91 % 1021,2 hPa 0,0 l/m 8,0 km/h (2 Bft) S-SW 202 0 min 0,0 UV-I 0 W/m 8,8 C 9,1 C 11,3 km/h (2 Bft)
26.05.2022 05:07 10,2 C 9,4 C 91 % 1021,2 hPa 0,0 l/m 8,0 km/h (2 Bft) S-SW 202 0 min 0,0 UV-I 0 W/m 8,8 C 9,1 C 11,3 km/h (2 Bft)
26.05.2022 05:08 10,2 C 9,4 C 91 % 1021,1 hPa 0,0 l/m 6,4 km/h (2 Bft) S 180 0 min 0,0 UV-I 0 W/m 8,8 C 10,2 C 9,7 km/h (2 Bft)
26.05.2022 05:09 10,3 C 9,4 C 90 % 1021,1 hPa 0,0 l/m 8,0 km/h (2 Bft) S 180 0 min 0,0 UV-I 0 W/m 8,7 C 9,2 C 11,3 km/h (2 Bft)
26.05.2022 05:10 10,2 C 9,4 C 90 % 1021,2 hPa 0,0 l/m 8,0 km/h (2 Bft) S-SW 202 0 min 0,0 UV-I 0 W/m 8,6 C 9,1 C 11,3 km/h (2 Bft)
26.05.2022 05:11 10,3 C 9,4 C 91 % 1021,2 hPa 0,0 l/m 8,0 km/h (2 Bft) S-SW 202 0 min 0,0 UV-I 0 W/m 8,9 C 9,2 C 11,3 km/h (2 Bft)
26.05.2022 05:12 10,2 C 9,4 C 91 % 1021,1 hPa 0,0 l/m 8,0 km/h (2 Bft) S 180 0 min 0,0 UV-I 0 W/m 8,8 C 9,1 C 12,9 km/h (3 Bft)
26.05.2022 05:13 10,2 C 9,4 C 91 % 1021,2 hPa 0,0 l/m 6,4 km/h (2 Bft) S-SW 202 0 min 0,0 UV-I 0 W/m 8,8 C 10,2 C 8,0 km/h (2 Bft)
26.05.2022 05:14 10,3 C 9,4 C 90 % 1021,2 hPa 0,0 l/m 8,0 km/h (2 Bft) S-SW 202 0 min 0,0 UV-I 0 W/m 8,7 C 9,2 C 16,1 km/h (3 Bft)
26.05.2022 05:15 10,2 C 9,4 C 91 % 1021,2 hPa 0,0 l/m 9,7 km/h (2 Bft) S 180 0 min 0,0 UV-I 0 W/m 8,8 C 8,0 C 12,9 km/h (3 Bft)
26.05.2022 05:16 10,3 C 9,4 C 91 % 1021,1 hPa 0,0 l/m 11,3 km/h (2 Bft) S 180 0 min 0,0 UV-I 0 W/m 8,9 C 7,2 C 12,9 km/h (3 Bft)
26.05.2022 05:17 10,2 C 9,4 C 91 % 1021,2 hPa 0,0 l/m 8,0 km/h (2 Bft) S-SW 202 0 min 0,0 UV-I 0 W/m 8,8 C 9,1 C 12,9 km/h (3 Bft)
26.05.2022 05:18 10,3 C 9,4 C 91 % 1021,2 hPa 0,0 l/m 9,7 km/h (2 Bft) S-SW 202 0 min 0,0 UV-I 0 W/m 8,9 C 8,1 C 12,9 km/h (3 Bft)
26.05.2022 05:19 10,3 C 9,4 C 91 % 1021,1 hPa 0,0 l/m 9,7 km/h (2 Bft) S 180 0 min 0,0 UV-I 0 W/m 8,9 C 8,1 C 16,1 km/h (3 Bft)
26.05.2022 05:20 10,3 C 9,4 C 91 % 1021,1 hPa 0,0 l/m 9,7 km/h (2 Bft) S 180 0 min 0,0 UV-I 0 W/m 8,9 C 8,1 C 12,9 km/h (3 Bft)
26.05.2022 05:21 10,3 C 9,4 C 91 % 1021,2 hPa 0,0 l/m 8,0 km/h (2 Bft) S-SW 202 0 min 0,0 UV-I 0 W/m 8,9 C 9,2 C 9,7 km/h (2 Bft)
26.05.2022 05:22 10,3 C 9,4 C 91 % 1021,1 hPa 0,0 l/m 11,3 km/h (2 Bft) S-SW 202 0 min 0,0 UV-I 0 W/m 8,9 C 7,2 C 16,1 km/h (3 Bft)
26.05.2022 05:23 10,3 C 9,4 C 91 % 1021,2 hPa 0,0 l/m 9,7 km/h (2 Bft) S 180 0 min 0,0 UV-I 0 W/m 8,9 C 8,1 C 16,1 km/h (3 Bft)
26.05.2022 05:24 10,3 C 9,4 C 91 % 1021,1 hPa 0,0 l/m 11,3 km/h (2 Bft) S 180 0 min 0,0 UV-I 0 W/m 8,9 C 7,2 C 16,1 km/h (3 Bft)
26.05.2022 05:25 10,3 C 9,4 C 91 % 1021,2 hPa 0,0 l/m 14,5 km/h (3 Bft) S-SW 202 0 min 0,0 UV-I 0 W/m 8,9 C 5,7 C 17,7 km/h (3 Bft)
26.05.2022 05:26 10,3 C 9,4 C 91 % 1021,1 hPa 0,0 l/m 14,5 km/h (3 Bft) S-SW 202 0 min 0,0 UV-I 0 W/m 8,9 C 5,7 C 17,7 km/h (3 Bft)
26.05.2022 05:27 10,3 C 9,4 C 91 % 1021,2 hPa 0,0 l/m 14,5 km/h (3 Bft) S-SW 202 0 min 0,0 UV-I 0 W/m 8,9 C 5,7 C 19,3 km/h (3 Bft)
26.05.2022 05:28 10,3 C 9,4 C 91 % 1021,2 hPa 0,0 l/m 11,3 km/h (2 Bft) S-SW 202 0 min 0,0 UV-I 0 W/m 8,9 C 7,2 C 16,1 km/h (3 Bft)
26.05.2022 05:29 10,3 C 9,4 C 91 % 1021,2 hPa 0,0 l/m 9,7 km/h (2 Bft) S 180 0 min 0,0 UV-I 0 W/m 8,9 C 8,1 C 14,5 km/h (3 Bft)
26.05.2022 05:30 10,3 C 9,4 C 91 % 1021,2 hPa 0,0 l/m 8,0 km/h (2 Bft) S-SW 202 0 min 0,0 UV-I 0 W/m 8,9 C 9,2 C 11,3 km/h (2 Bft)
26.05.2022 05:31 10,3 C 9,4 C 91 % 1021,3 hPa 0,0 l/m 8,0 km/h (2 Bft) S-SW 202 0 min 0,0 UV-I 0 W/m 8,9 C 9,2 C 16,1 km/h (3 Bft)
26.05.2022 05:32 10,3 C 9,4 C 91 % 1021,2 hPa 0,0 l/m 9,7 km/h (2 Bft) S-SW 202 0 min 0,0 UV-I 0 W/m 8,9 C 8,1 C 16,1 km/h (3 Bft)
26.05.2022 05:33 10,3 C 9,4 C 91 % 1021,1 hPa 0,0 l/m 9,7 km/h (2 Bft) SW 225 0 min 0,0 UV-I 0 W/m 8,9 C 8,1 C 14,5 km/h (3 Bft)
26.05.2022 05:34 10,3 C 9,4 C 91 % 1021,2 hPa 0,0 l/m 8,0 km/h (2 Bft) S 180 0 min 0,0 UV-I 0 W/m 8,9 C 9,2 C 12,9 km/h (3 Bft)
26.05.2022 05:35 10,3 C 9,4 C 91 % 1021,2 hPa 0,0 l/m 8,0 km/h (2 Bft) S-SW 202 0 min 0,0 UV-I 0 W/m 8,9 C 9,2 C 11,3 km/h (2 Bft)
26.05.2022 05:36 10,3 C 9,4 C 91 % 1021,3 hPa 0,0 l/m 6,4 km/h (2 Bft) S 180 0 min 0,0 UV-I 0 W/m 8,9 C 10,3 C 11,3 km/h (2 Bft)
26.05.2022 05:37 10,3 C 9,4 C 91 % 1021,3 hPa 0,0 l/m 6,4 km/h (2 Bft) SW 225 0 min 0,0 UV-I 0 W/m 8,9 C 10,3 C 9,7 km/h (2 Bft)
26.05.2022 05:38 10,3 C 9,4 C 91 % 1021,3 hPa 0,0 l/m 6,4 km/h (2 Bft) S-SW 202 0 min 0,0 UV-I 0 W/m 8,9 C 10,3 C 8,0 km/h (2 Bft)
26.05.2022 05:39 10,3 C 9,4 C 91 % 1021,2 hPa 0,0 l/m 11,3 km/h (2 Bft) S-SW 202 0 min 0,0 UV-I 0 W/m 8,9 C 7,2 C 14,5 km/h (3 Bft)
26.05.2022 05:40 10,3 C 9,4 C 91 % 1021,2 hPa 0,0 l/m 12,9 km/h (3 Bft) S 180 0 min 0,0 UV-I 0 W/m 8,9 C 6,4 C 16,1 km/h (3 Bft)
26.05.2022 05:41 10,3 C 9,4 C 91 % 1021,2 hPa 0,0 l/m 11,3 km/h (2 Bft) S 180 0 min 0,0 UV-I 0 W/m 8,9 C 7,2 C 16,1 km/h (3 Bft)
26.05.2022 05:42 10,3 C 9,4 C 91 % 1021,2 hPa 0,0 l/m 9,7 km/h (2 Bft) S 180 0 min 0,0 UV-I 0 W/m 8,9 C 8,1 C 12,9 km/h (3 Bft)
26.05.2022 05:43 10,3 C 9,4 C 91 % 1021,3 hPa 0,0 l/m 8,0 km/h (2 Bft) S-SW 202 0 min 0,0 UV-I 0 W/m 8,9 C 9,2 C 11,3 km/h (2 Bft)
26.05.2022 05:44 10,3 C 9,4 C 91 % 1021,2 hPa 0,0 l/m 11,3 km/h (2 Bft) S 180 0 min 0,0 UV-I 0 W/m 8,9 C 7,2 C 16,1 km/h (3 Bft)
26.05.2022 05:45 10,3 C 9,4 C 91 % 1021,3 hPa 0,0 l/m 8,0 km/h (2 Bft) S 180 0 min 0,0 UV-I 0 W/m 8,9 C 9,2 C 11,3 km/h (2 Bft)
26.05.2022 05:46 10,3 C 9,4 C 90 % 1021,3 hPa 0,0 l/m 12,9 km/h (3 Bft) S-SW 202 0 min 0,0 UV-I 0 W/m 8,7 C 6,4 C 16,1 km/h (3 Bft)
26.05.2022 05:47 10,3 C 9,4 C 91 % 1021,2 hPa 0,0 l/m 11,3 km/h (2 Bft) S-SW 202 0 min 0,0 UV-I 0 W/m 8,9 C 7,2 C 16,1 km/h (3 Bft)
26.05.2022 05:48 10,3 C 9,4 C 90 % 1021,2 hPa 0,0 l/m 9,7 km/h (2 Bft) S 180 0 min 0,0 UV-I 0 W/m 8,7 C 8,1 C 17,7 km/h (3 Bft)
26.05.2022 05:49 10,3 C 9,4 C 90 % 1021,3 hPa 0,0 l/m 11,3 km/h (2 Bft) S 180 0 min 0,0 UV-I 0 W/m 8,7 C 7,2 C 16,1 km/h (3 Bft)
26.05.2022 05:50 10,3 C 9,4 C 90 % 1021,2 hPa 0,0 l/m 9,7 km/h (2 Bft) S 180 0 min 0,0 UV-I 0 W/m 8,7 C 8,1 C 12,9 km/h (3 Bft)
26.05.2022 05:51 10,3 C 9,4 C 90 % 1021,2 hPa 0,0 l/m 9,7 km/h (2 Bft) S-SW 202 0 min 0,0 UV-I 0 W/m 8,7 C 8,1 C 14,5 km/h (3 Bft)
26.05.2022 05:52 10,3 C 9,4 C 90 % 1021,2 hPa 0,0 l/m 9,7 km/h (2 Bft) S-SW 202 0 min 0,0 UV-I 0 W/m 8,7 C 8,1 C 14,5 km/h (3 Bft)
26.05.2022 05:53 10,3 C 9,4 C 90 % 1021,2 hPa 0,0 l/m 12,9 km/h (3 Bft) S-SW 202 0 min 0,0 UV-I 0 W/m 8,7 C 6,4 C 16,1 km/h (3 Bft)
26.05.2022 05:54 10,3 C 9,4 C 90 % 1021,3 hPa 0,0 l/m 12,9 km/h (3 Bft) S 180 0 min 0,0 UV-I 0 W/m 8,7 C 6,4 C 19,3 km/h (3 Bft)
26.05.2022 05:55 10,3 C 9,4 C 90 % 1021,2 hPa 0,0 l/m 9,7 km/h (2 Bft) S-SW 202 0 min 0,0 UV-I 0 W/m 8,7 C 8,1 C 14,5 km/h (3 Bft)
26.05.2022 05:56 10,3 C 9,4 C 90 % 1021,2 hPa 0,0 l/m 11,3 km/h (2 Bft) S-SW 202 0 min 0,0 UV-I 0 W/m 8,7 C 7,2 C 12,9 km/h (3 Bft)
26.05.2022 05:57 10,3 C 9,4 C 90 % 1021,3 hPa 0,0 l/m 8,0 km/h (2 Bft) S 180 0 min 0,0 UV-I 0 W/m 8,7 C 9,2 C 14,5 km/h (3 Bft)
26.05.2022 05:58 10,3 C 9,4 C 90 % 1021,3 hPa 0,0 l/m 8,0 km/h (2 Bft) W 270 0 min 0,0 UV-I 0 W/m 8,7 C 9,2 C 12,9 km/h (3 Bft)
26.05.2022 05:59 10,3 C 9,4 C 90 % 1021,3 hPa 0,0 l/m 8,0 km/h (2 Bft) S-SW 202 0 min 0,0 UV-I 0 W/m 8,7 C 9,2 C 12,9 km/h (3 Bft)
26.05.2022 06:00 10,3 C 9,4 C 90 % 1021,4 hPa 0,0 l/m 6,4 km/h (2 Bft) S 180 0 min 0,0 UV-I 0 W/m 8,7 C 10,3 C 8,0 km/h (2 Bft)
26.05.2022 06:01 10,4 C 9,4 C 90 % 1021,3 hPa 0,0 l/m 6,4 km/h (2 Bft) S-SW 202 0 min 0,0 UV-I 0 W/m 8,8 C 10,4 C 11,3 km/h (2 Bft)
26.05.2022 06:02 10,3 C 9,4 C 90 % 1021,4 hPa 0,0 l/m 8,0 km/h (2 Bft) S-SW 202 0 min 0,0 UV-I 0 W/m 8,7 C 9,2 C 11,3 km/h (2 Bft)
26.05.2022 06:03 10,3 C 9,4 C 90 % 1021,4 hPa 0,0 l/m 6,4 km/h (2 Bft) S 180 0 min 0,0 UV-I 0 W/m 8,7 C 10,3 C 11,3 km/h (2 Bft)
26.05.2022 06:04 10,3 C 10,0 C 90 % 1021,4 hPa 0,0 l/m 9,7 km/h (2 Bft) S-SW 202 0 min 0,0 UV-I 0 W/m 8,7 C 8,1 C 12,9 km/h (3 Bft)
26.05.2022 06:05 10,4 C 10,0 C 90 % 1021,4 hPa 0,0 l/m 8,0 km/h (2 Bft) S 180 0 min 0,0 UV-I 0 W/m 8,8 C 9,3 C 14,5 km/h (3 Bft)
26.05.2022 06:06 10,4 C 10,0 C 90 % 1021,4 hPa 0,0 l/m 11,3 km/h (2 Bft) S 180 0 min 0,0 UV-I 5 W/m 8,8 C 7,3 C 19,3 km/h (3 Bft)
26.05.2022 06:07 10,4 C 10,0 C 90 % 1021,4 hPa 0,0 l/m 9,7 km/h (2 Bft) SW 225 0 min 0,0 UV-I 5 W/m 8,8 C 8,2 C 16,1 km/h (3 Bft)
26.05.2022 06:08 10,4 C 10,0 C 90 % 1021,4 hPa 0,0 l/m 12,9 km/h (3 Bft) S 180 0 min 0,0 UV-I 5 W/m 8,8 C 6,5 C 19,3 km/h (3 Bft)
26.05.2022 06:09 10,4 C 10,0 C 90 % 1021,4 hPa 0,0 l/m 11,3 km/h (2 Bft) S-SW 202 0 min 0,0 UV-I 5 W/m 8,8 C 7,3 C 16,1 km/h (3 Bft)
26.05.2022 06:10 10,4 C 10,0 C 90 % 1021,5 hPa 0,0 l/m 8,0 km/h (2 Bft) S-SW 202 0 min 0,0 UV-I 7 W/m 8,8 C 9,3 C 12,9 km/h (3 Bft)
26.05.2022 06:11 10,4 C 10,0 C 90 % 1021,5 hPa 0,0 l/m 9,7 km/h (2 Bft) SW 225 0 min 0,0 UV-I 5 W/m 8,8 C 8,2 C 12,9 km/h (3 Bft)
26.05.2022 06:12 10,4 C 10,0 C 90 % 1021,5 hPa 0,0 l/m 9,7 km/h (2 Bft) S-SW 202 0 min 0,0 UV-I 7 W/m 8,8 C 8,2 C 14,5 km/h (3 Bft)
26.05.2022 06:13 10,4 C 10,0 C 90 % 1021,5 hPa 0,0 l/m 9,7 km/h (2 Bft) S-SW 202 0 min 0,0 UV-I 11 W/m 8,8 C 8,2 C 12,9 km/h (3 Bft)
26.05.2022 06:14 10,4 C 10,0 C 90 % 1021,5 hPa 0,0 l/m 9,7 km/h (2 Bft) SW 225 0 min 0,0 UV-I 9 W/m 8,8 C 8,2 C 12,9 km/h (3 Bft)
26.05.2022 06:15 10,4 C 10,0 C 90 % 1021,6 hPa 0,0 l/m 8,0 km/h (2 Bft) S-SW 202 0 min 0,0 UV-I 9 W/m 8,8 C 9,3 C 11,3 km/h (2 Bft)
26.05.2022 06:16 10,4 C 10,0 C 90 % 1021,6 hPa 0,0 l/m 6,4 km/h (2 Bft) SW 225 0 min 0,0 UV-I 11 W/m 8,8 C 10,4 C 9,7 km/h (2 Bft)
26.05.2022 06:17 10,4 C 10,0 C 90 % 1021,6 hPa 0,0 l/m 6,4 km/h (2 Bft) SW 225 0 min 0,0 UV-I 12 W/m 8,8 C 10,4 C 9,7 km/h (2 Bft)
26.05.2022 06:18 10,4 C 10,0 C 90 % 1021,6 hPa 0,0 l/m 8,0 km/h (2 Bft) S-SW 202 0 min 0,0 UV-I 12 W/m 8,8 C 9,3 C 11,3 km/h (2 Bft)
26.05.2022 06:19 10,4 C 10,0 C 90 % 1021,6 hPa 0,0 l/m 6,4 km/h (2 Bft) S-SW 202 0 min 0,0 UV-I 12 W/m 8,8 C 10,4 C 8,0 km/h (2 Bft)
26.05.2022 06:20 10,4 C 10,0 C 90 % 1021,7 hPa 0,0 l/m 4,8 km/h (1 Bft) SW 225 0 min 0,0 UV-I 14 W/m 8,8 C 10,4 C 6,4 km/h (2 Bft)
26.05.2022 06:21 10,4 C 10,0 C 90 % 1021,6 hPa 0,0 l/m 6,4 km/h (2 Bft) S-SW 202 0 min 0,0 UV-I 14 W/m 8,8 C 10,4 C 8,0 km/h (2 Bft)
26.05.2022 06:22 10,5 C 10,0 C 90 % 1021,6 hPa 0,0 l/m 9,7 km/h (2 Bft) S 180 0 min 0,0 UV-I 14 W/m 8,9 C 8,3 C 17,7 km/h (3 Bft)
26.05.2022 06:23 10,4 C 10,0 C 90 % 1021,6 hPa 0,0 l/m 8,0 km/h (2 Bft) S-SW 202 0 min 0,0 UV-I 12 W/m 8,8 C 9,3 C 14,5 km/h (3 Bft)
26.05.2022 06:24 10,5 C 10,0 C 90 % 1021,7 hPa 0,0 l/m 8,0 km/h (2 Bft) SW 225 0 min 0,0 UV-I 16 W/m 8,9 C 9,4 C 11,3 km/h (2 Bft)
26.05.2022 06:25 10,4 C 10,0 C 90 % 1021,7 hPa 0,0 l/m 8,0 km/h (2 Bft) S-SW 202 0 min 0,0 UV-I 16 W/m 8,8 C 9,3 C 11,3 km/h (2 Bft)
26.05.2022 06:26 10,4 C 10,0 C 90 % 1021,6 hPa 0,0 l/m 8,0 km/h (2 Bft) S-SW 202 0 min 0,0 UV-I 18 W/m 8,8 C 9,3 C 11,3 km/h (2 Bft)
26.05.2022 06:27 10,4 C 10,0 C 90 % 1021,6 hPa 0,0 l/m 9,7 km/h (2 Bft) S-SW 202 0 min 0,0 UV-I 19 W/m 8,8 C 8,2 C 14,5 km/h (3 Bft)
26.05.2022 06:28 10,4 C 10,0 C 90 % 1021,7 hPa 0,0 l/m 6,4 km/h (2 Bft) S-SW 202 0 min 0,0 UV-I 18 W/m 8,8 C 10,4 C 8,0 km/h (2 Bft)
26.05.2022 06:29 10,4 C 10,0 C 90 % 1021,8 hPa 0,0 l/m 9,7 km/h (2 Bft) S-SW 202 0 min 0,0 UV-I 19 W/m 8,8 C 8,2 C 14,5 km/h (3 Bft)
26.05.2022 06:30 10,5 C 10,0 C 90 % 1021,7 hPa 0,0 l/m 8,0 km/h (2 Bft) S-SW 202 0 min 0,0 UV-I 18 W/m 8,9 C 9,4 C 11,3 km/h (2 Bft)
26.05.2022 06:31 10,5 C 10,0 C 90 % 1021,7 hPa 0,0 l/m 8,0 km/h (2 Bft) S-SW 202 0 min 0,0 UV-I 19 W/m 8,9 C 9,4 C 14,5 km/h (3 Bft)
26.05.2022 06:32 10,4 C 10,0 C 90 % 1021,6 hPa 0,0 l/m 6,4 km/h (2 Bft) S-SW 202 0 min 0,0 UV-I 19 W/m 8,8 C 10,4 C 11,3 km/h (2 Bft)
26.05.2022 06:33 10,5 C 10,0 C 90 % 1021,7 hPa 0,0 l/m 8,0 km/h (2 Bft) S 180 0 min 0,0 UV-I 19 W/m 8,9 C 9,4 C 11,3 km/h (2 Bft)
26.05.2022 06:34 10,5 C 10,0 C 90 % 1021,7 hPa 0,0 l/m 11,3 km/h (2 Bft) S-SW 202 0 min 0,0 UV-I 19 W/m 8,9 C 7,4 C 14,5 km/h (3 Bft)
26.05.2022 06:35 10,4 C 10,0 C 90 % 1021,7 hPa 0,0 l/m 9,7 km/h (2 Bft) SW 225 0 min 0,0 UV-I 21 W/m 8,8 C 8,2 C 12,9 km/h (3 Bft)
26.05.2022 06:36 10,5 C 10,0 C 90 % 1021,7 hPa 0,0 l/m 8,0 km/h (2 Bft) S-SW 202 0 min 0,0 UV-I 19 W/m 8,9 C 9,4 C 9,7 km/h (2 Bft)
26.05.2022 06:37 10,5 C 10,0 C 90 % 1021,8 hPa 0,0 l/m 9,7 km/h (2 Bft) SW 225 0 min 0,0 UV-I 21 W/m 8,9 C 8,3 C 16,1 km/h (3 Bft)
26.05.2022 06:38 10,5 C 10,0 C 90 % 1021,8 hPa 0,0 l/m 8,0 km/h (2 Bft) S-SW 202 0 min 0,0 UV-I 21 W/m 8,9 C 9,4 C 11,3 km/h (2 Bft)
26.05.2022 06:39 10,5 C 10,0 C 90 % 1021,8 hPa 0,0 l/m 8,0 km/h (2 Bft) SW 225 0 min 0,0 UV-I 23 W/m 8,9 C 9,4 C 9,7 km/h (2 Bft)
26.05.2022 06:40 10,5 C 10,0 C 90 % 1021,8 hPa 0,0 l/m 6,4 km/h (2 Bft) S-SW 202 0 min 0,0 UV-I 26 W/m 8,9 C 10,5 C 11,3 km/h (2 Bft)
26.05.2022 06:41 10,6 C 10,0 C 90 % 1021,8 hPa 0,0 l/m 6,4 km/h (2 Bft) SW 225 0 min 0,0 UV-I 24 W/m 9,0 C 10,6 C 11,3 km/h (2 Bft)
26.05.2022 06:42 10,6 C 10,0 C 90 % 1021,8 hPa 0,0 l/m 9,7 km/h (2 Bft) SW 225 0 min 0,0 UV-I 26 W/m 9,0 C 8,4 C 11,3 km/h (2 Bft)
26.05.2022 06:43 10,6 C 10,0 C 90 % 1021,8 hPa 0,0 l/m 6,4 km/h (2 Bft) SW 225 0 min 0,0 UV-I 26 W/m 9,0 C 10,6 C 11,3 km/h (2 Bft)
26.05.2022 06:44 10,6 C 10,0 C 90 % 1021,8 hPa 0,0 l/m 9,7 km/h (2 Bft) S-SW 202 0 min 0,0 UV-I 26 W/m 9,0 C 8,4 C 17,7 km/h (3 Bft)
26.05.2022 06:45 10,6 C 10,0 C 90 % 1021,8 hPa 0,0 l/m 6,4 km/h (2 Bft) S 180 0 min 0,0 UV-I 26 W/m 9,0 C 10,6 C 8,0 km/h (2 Bft)
26.05.2022 06:46 10,6 C 10,0 C 90 % 1021,8 hPa 0,0 l/m 6,4 km/h (2 Bft) SW 225 0 min 0,0 UV-I 26 W/m 9,0 C 10,6 C 11,3 km/h (2 Bft)
26.05.2022 06:47 10,6 C 10,0 C 90 % 1021,9 hPa 0,0 l/m 6,4 km/h (2 Bft) S-SW 202 0 min 0,0 UV-I 20 W/m 9,0 C 10,6 C 8,0 km/h (2 Bft)
26.05.2022 06:48 10,6 C 10,0 C 90 % 1021,9 hPa 0,0 l/m 8,0 km/h (2 Bft) S-SW 202 0 min 0,0 UV-I 19 W/m 9,0 C 9,5 C 12,9 km/h (3 Bft)
26.05.2022 06:49 10,6 C 10,0 C 90 % 1021,8 hPa 0,0 l/m 9,7 km/h (2 Bft) S-SW 202 0 min 0,0 UV-I 21 W/m 9,0 C 8,4 C 12,9 km/h (3 Bft)
26.05.2022 06:50 10,6 C 10,0 C 90 % 1021,8 hPa 0,0 l/m 9,7 km/h (2 Bft) S-SW 202 0 min 0,0 UV-I 21 W/m 9,0 C 8,4 C 14,5 km/h (3 Bft)
26.05.2022 06:51 10,6 C 10,0 C 90 % 1021,8 hPa 0,0 l/m 11,3 km/h (2 Bft) SW 225 0 min 0,0 UV-I 19 W/m 9,0 C 7,6 C 16,1 km/h (3 Bft)
26.05.2022 06:52 10,6 C 10,0 C 90 % 1021,8 hPa 0,0 l/m 6,4 km/h (2 Bft) SW 225 0 min 0,0 UV-I 18 W/m 9,0 C 10,6 C 9,7 km/h (2 Bft)
26.05.2022 06:53 10,6 C 10,0 C 90 % 1021,8 hPa 0,0 l/m 6,4 km/h (2 Bft) S 180 0 min 0,0 UV-I 22 W/m 9,0 C 10,6 C 9,7 km/h (2 Bft)
26.05.2022 06:54 10,6 C 10,0 C 90 % 1021,9 hPa 0,0 l/m 6,4 km/h (2 Bft) S-SW 202 0 min 0,0 UV-I 23 W/m 9,0 C 10,6 C 9,7 km/h (2 Bft)
26.05.2022 06:55 10,6 C 10,0 C 90 % 1021,9 hPa 0,0 l/m 9,7 km/h (2 Bft) S-SW 202 0 min 0,0 UV-I 25 W/m 9,0 C 8,4 C 11,3 km/h (2 Bft)
26.05.2022 06:56 10,6 C 10,0 C 90 % 1021,9 hPa 0,0 l/m 6,4 km/h (2 Bft) S-SW 202 0 min 0,0 UV-I 25 W/m 9,0 C 10,6 C 12,9 km/h (3 Bft)
26.05.2022 06:57 10,6 C 10,0 C 90 % 1021,8 hPa 0,0 l/m 11,3 km/h (2 Bft) S-SW 202 0 min 0,0 UV-I 23 W/m 9,0 C 7,6 C 14,5 km/h (3 Bft)
26.05.2022 06:58 10,6 C 10,0 C 90 % 1021,7 hPa 0,0 l/m 11,3 km/h (2 Bft) SW 225 0 min 0,0 UV-I 21 W/m 9,0 C 7,6 C 14,5 km/h (3 Bft)
26.05.2022 06:59 10,6 C 10,0 C 90 % 1021,9 hPa 0,0 l/m 9,7 km/h (2 Bft) S-SW 202 0 min 0,0 UV-I 21 W/m 9,0 C 8,4 C 12,9 km/h (3 Bft)
26.05.2022 07:00 10,6 C 10,0 C 90 % 1022,0 hPa 0,0 l/m 11,3 km/h (2 Bft) S-SW 202 0 min 0,0 UV-I 26 W/m 9,0 C 7,6 C 14,5 km/h (3 Bft)
26.05.2022 07:01 10,6 C 10,0 C 90 % 1021,9 hPa 0,0 l/m 9,7 km/h (2 Bft) S 180 0 min 0,0 UV-I 26 W/m 9,0 C 8,4 C 16,1 km/h (3 Bft)
26.05.2022 07:02 10,6 C 10,0 C 89 % 1021,9 hPa 0,0 l/m 9,7 km/h (2 Bft) S-SW 202 0 min 0,0 UV-I 26 W/m 8,9 C 8,4 C 14,5 km/h (3 Bft)
26.05.2022 07:03 10,6 C 10,0 C 89 % 1021,9 hPa 0,0 l/m 9,7 km/h (2 Bft) SW 225 0 min 0,0 UV-I 26 W/m 8,9 C 8,4 C 14,5 km/h (3 Bft)
26.05.2022 07:04 10,6 C 10,0 C 89 % 1021,8 hPa 0,0 l/m 6,4 km/h (2 Bft) SW 225 0 min 0,0 UV-I 32 W/m 8,9 C 10,6 C 12,9 km/h (3 Bft)
26.05.2022 07:05 10,7 C 10,6 C 89 % 1021,8 hPa 0,0 l/m 11,3 km/h (2 Bft) S-SW 202 0 min 0,0 UV-I 35 W/m 9,0 C 7,7 C 16,1 km/h (3 Bft)
26.05.2022 07:06 10,7 C 10,6 C 89 % 1022,0 hPa 0,0 l/m 11,3 km/h (2 Bft) S-SW 202 0 min 0,0 UV-I 33 W/m 9,0 C 7,7 C 16,1 km/h (3 Bft)
26.05.2022 07:07 10,7 C 10,6 C 89 % 1021,9 hPa 0,0 l/m 12,9 km/h (3 Bft) S-SW 202 0 min 0,0 UV-I 32 W/m 9,0 C 6,9 C 17,7 km/h (3 Bft)
26.05.2022 07:08 10,7 C 10,6 C 89 % 1021,9 hPa 0,0 l/m 9,7 km/h (2 Bft) SW 225 0 min 0,0 UV-I 30 W/m 9,0 C 8,5 C 12,9 km/h (3 Bft)
26.05.2022 07:09 10,7 C 10,6 C 89 % 1021,9 hPa 0,0 l/m 11,3 km/h (2 Bft) SW 225 0 min 0,0 UV-I 33 W/m 9,0 C 7,7 C 14,5 km/h (3 Bft)
26.05.2022 07:10 10,7 C 10,6 C 89 % 1021,8 hPa 0,0 l/m 8,0 km/h (2 Bft) S-SW 202 0 min 0,0 UV-I 35 W/m 9,0 C 9,6 C 11,3 km/h (2 Bft)
26.05.2022 07:11 10,7 C 10,6 C 89 % 1021,9 hPa 0,0 l/m 4,8 km/h (1 Bft) W-SW 247 0 min 0,0 UV-I 33 W/m 9,0 C 10,7 C 6,4 km/h (2 Bft)
26.05.2022 07:12 10,7 C 10,6 C 89 % 1021,9 hPa 0,0 l/m 8,0 km/h (2 Bft) S 180 0 min 0,0 UV-I 32 W/m 9,0 C 9,6 C 11,3 km/h (2 Bft)
26.05.2022 07:13 10,7 C 10,6 C 89 % 1021,9 hPa 0,0 l/m 9,7 km/h (2 Bft) S 180 0 min 0,0 UV-I 32 W/m 9,0 C 8,5 C 12,9 km/h (3 Bft)
26.05.2022 07:14 10,7 C 10,6 C 89 % 1021,9 hPa 0,0 l/m 11,3 km/h (2 Bft) S-SW 202 0 min 0,0 UV-I 32 W/m 9,0 C 7,7 C 16,1 km/h (3 Bft)
26.05.2022 07:15 10,7 C 10,6 C 89 % 1021,9 hPa 0,0 l/m 11,3 km/h (2 Bft) S-SW 202 0 min 0,0 UV-I 32 W/m 9,0 C 7,7 C 14,5 km/h (3 Bft)
26.05.2022 07:16 10,7 C 10,6 C 89 % 1021,8 hPa 0,0 l/m 8,0 km/h (2 Bft) SW 225 0 min 0,0 UV-I 36 W/m 9,0 C 9,6 C 11,3 km/h (2 Bft)
26.05.2022 07:17 10,7 C 10,6 C 89 % 1021,8 hPa 0,0 l/m 11,3 km/h (2 Bft) SW 225 0 min 0,0 UV-I 44 W/m 9,0 C 7,7 C 16,1 km/h (3 Bft)
26.05.2022 07:18 10,7 C 10,6 C 89 % 1022,0 hPa 0,0 l/m 9,7 km/h (2 Bft) S-SW 202 0 min 0,0 UV-I 46 W/m 9,0 C 8,5 C 12,9 km/h (3 Bft)
26.05.2022 07:19 10,7 C 10,6 C 89 % 1021,9 hPa 0,0 l/m 9,7 km/h (2 Bft) SW 225 0 min 0,0 UV-I 42 W/m 9,0 C 8,5 C 14,5 km/h (3 Bft)
26.05.2022 07:20 10,7 C 10,6 C 89 % 1021,9 hPa 0,0 l/m 11,3 km/h (2 Bft) S-SW 202 0 min 0,0 UV-I 44 W/m 9,0 C 7,7 C 16,1 km/h (3 Bft)
26.05.2022 07:21 10,8 C 10,6 C 89 % 1021,9 hPa 0,0 l/m 8,0 km/h (2 Bft) S-SO 157 0 min 0,0 UV-I 40 W/m 9,1 C 9,7 C 12,9 km/h (3 Bft)
26.05.2022 07:22 10,8 C 10,6 C 89 % 1021,9 hPa 0,0 l/m 9,7 km/h (2 Bft) S-SW 202 0 min 0,0 UV-I 30 W/m 9,1 C 8,6 C 14,5 km/h (3 Bft)
26.05.2022 07:23 10,8 C 10,6 C 89 % 1021,9 hPa 0,0 l/m 4,8 km/h (1 Bft) SW 225 0 min 0,0 UV-I 33 W/m 9,1 C 10,8 C 8,0 km/h (2 Bft)
26.05.2022 07:24 10,8 C 10,6 C 89 % 1021,9 hPa 0,0 l/m 6,4 km/h (2 Bft) SW 225 0 min 0,0 UV-I 32 W/m 9,1 C 10,8 C 11,3 km/h (2 Bft)
26.05.2022 07:25 10,8 C 10,6 C 89 % 1021,9 hPa 0,0 l/m 9,7 km/h (2 Bft) S 180 0 min 0,0 UV-I 33 W/m 9,1 C 8,6 C 11,3 km/h (2 Bft)
26.05.2022 07:26 10,8 C 10,6 C 89 % 1022,0 hPa 0,0 l/m 9,7 km/h (2 Bft) S-SW 202 0 min 0,0 UV-I 32 W/m 9,1 C 8,6 C 14,5 km/h (3 Bft)
26.05.2022 07:27 10,8 C 10,6 C 89 % 1022,0 hPa 0,0 l/m 8,0 km/h (2 Bft) S-SW 202 0 min 0,0 UV-I 32 W/m 9,1 C 9,7 C 11,3 km/h (2 Bft)
26.05.2022 07:28 10,8 C 10,6 C 89 % 1022,0 hPa 0,0 l/m 8,0 km/h (2 Bft) S-SW 202 0 min 0,0 UV-I 34 W/m 9,1 C 9,7 C 11,3 km/h (2 Bft)
26.05.2022 07:29 10,8 C 10,6 C 89 % 1022,1 hPa 0,0 l/m 8,0 km/h (2 Bft) S 180 0 min 0,0 UV-I 26 W/m 9,1 C 9,7 C 12,9 km/h (3 Bft)
26.05.2022 07:30 10,8 C 10,6 C 89 % 1022,0 hPa 0,0 l/m 8,0 km/h (2 Bft) SW 225 0 min 0,0 UV-I 21 W/m 9,1 C 9,7 C 12,9 km/h (3 Bft)
26.05.2022 07:31 10,8 C 10,6 C 89 % 1022,1 hPa 0,0 l/m 9,7 km/h (2 Bft) S-SW 202 0 min 0,0 UV-I 21 W/m 9,1 C 8,6 C 12,9 km/h (3 Bft)
26.05.2022 07:32 10,8 C 10,6 C 89 % 1022,2 hPa 0,0 l/m 9,7 km/h (2 Bft) S-SW 202 0 min 0,0 UV-I 26 W/m 9,1 C 8,6 C 11,3 km/h (2 Bft)
26.05.2022 07:33 10,8 C 10,6 C 89 % 1022,1 hPa 0,0 l/m 9,7 km/h (2 Bft) S 180 0 min 0,0 UV-I 32 W/m 9,1 C 8,6 C 14,5 km/h (3 Bft)
26.05.2022 07:34 10,8 C 10,6 C 89 % 1022,1 hPa 0,0 l/m 11,3 km/h (2 Bft) S-SW 202 0 min 0,0 UV-I 25 W/m 9,1 C 7,8 C 14,5 km/h (3 Bft)
26.05.2022 07:35 10,8 C 10,6 C 89 % 1022,1 hPa 0,0 l/m 6,4 km/h (2 Bft) S 180 0 min 0,0 UV-I 19 W/m 9,1 C 10,8 C 8,0 km/h (2 Bft)
26.05.2022 07:36 10,8 C 10,6 C 89 % 1022,1 hPa 0,0 l/m 6,4 km/h (2 Bft) S-SW 202 0 min 0,0 UV-I 21 W/m 9,1 C 10,8 C 8,0 km/h (2 Bft)
26.05.2022 07:37 10,8 C 10,6 C 89 % 1022,1 hPa 0,0 l/m 9,7 km/h (2 Bft) S-SW 202 0 min 0,0 UV-I 23 W/m 9,1 C 8,6 C 12,9 km/h (3 Bft)
26.05.2022 07:38 10,8 C 10,6 C 89 % 1022,1 hPa 0,0 l/m 8,0 km/h (2 Bft) S-SW 202 0 min 0,0 UV-I 23 W/m 9,1 C 9,7 C 9,7 km/h (2 Bft)
26.05.2022 07:39 10,8 C 10,6 C 89 % 1022,1 hPa 0,0 l/m 6,4 km/h (2 Bft) S-SW 202 0 min 0,0 UV-I 22 W/m 9,1 C 10,8 C 9,7 km/h (2 Bft)
26.05.2022 07:40 10,8 C 10,6 C 89 % 1022,2 hPa 0,0 l/m 9,7 km/h (2 Bft) S-SW 202 0 min 0,0 UV-I 21 W/m 9,1 C 8,6 C 11,3 km/h (2 Bft)
26.05.2022 07:41 10,8 C 10,6 C 89 % 1022,1 hPa 0,0 l/m 8,0 km/h (2 Bft) S-SW 202 0 min 0,0 UV-I 25 W/m 9,1 C 9,7 C 11,3 km/h (2 Bft)
26.05.2022 07:42 10,8 C 10,6 C 89 % 1022,1 hPa 0,0 l/m 9,7 km/h (2 Bft) S-SW 202 0 min 0,0 UV-I 25 W/m 9,1 C 8,6 C 12,9 km/h (3 Bft)
26.05.2022 07:43 10,8 C 10,6 C 89 % 1022,2 hPa 0,0 l/m 8,0 km/h (2 Bft) SW 225 0 min 0,0 UV-I 21 W/m 9,1 C 9,7 C 11,3 km/h (2 Bft)
26.05.2022 07:44 10,8 C 10,6 C 89 % 1022,1 hPa 0,0 l/m 6,4 km/h (2 Bft) S-SW 202 0 min 0,0 UV-I 23 W/m 9,1 C 10,8 C 11,3 km/h (2 Bft)
26.05.2022 07:45 10,8 C 10,6 C 89 % 1022,1 hPa 0,0 l/m 8,0 km/h (2 Bft) S-SW 202 0 min 0,0 UV-I 27 W/m 9,1 C 9,7 C 9,7 km/h (2 Bft)
26.05.2022 07:46 10,8 C 10,6 C 89 % 1022,3 hPa 0,0 l/m 6,4 km/h (2 Bft) W-SW 247 0 min 0,0 UV-I 26 W/m 9,1 C 10,8 C 11,3 km/h (2 Bft)
26.05.2022 07:47 10,8 C 10,6 C 89 % 1022,3 hPa 0,0 l/m 3,2 km/h (1 Bft) W-SW 247 0 min 0,0 UV-I 23 W/m 9,1 C 10,8 C 4,8 km/h (1 Bft)
26.05.2022 07:48 10,8 C 10,6 C 89 % 1022,2 hPa 0,0 l/m 4,8 km/h (1 Bft) W-SW 247 0 min 0,0 UV-I 19 W/m 9,1 C 10,8 C 8,0 km/h (2 Bft)
26.05.2022 07:49 10,8 C 10,6 C 89 % 1022,1 hPa 0,0 l/m 3,2 km/h (1 Bft) SW 225 0 min 0,0 UV-I 19 W/m 9,1 C 10,8 C 6,4 km/h (2 Bft)
26.05.2022 07:50 10,8 C 10,6 C 89 % 1022,2 hPa 0,0 l/m 8,0 km/h (2 Bft) SW 225 0 min 0,0 UV-I 21 W/m 9,1 C 9,7 C 12,9 km/h (3 Bft)
26.05.2022 07:51 10,8 C 10,6 C 89 % 1022,2 hPa 0,0 l/m 4,8 km/h (1 Bft) SW 225 0 min 0,0 UV-I 26 W/m 9,1 C 10,8 C 8,0 km/h (2 Bft)
26.05.2022 07:52 10,8 C 10,6 C 89 % 1022,2 hPa 0,0 l/m 6,4 km/h (2 Bft) SW 225 0 min 0,0 UV-I 33 W/m 9,1 C 10,8 C 8,0 km/h (2 Bft)
26.05.2022 07:53 10,8 C 10,6 C 89 % 1022,2 hPa 0,0 l/m 8,0 km/h (2 Bft) S-SW 202 0 min 0,0 UV-I 40 W/m 9,1 C 9,7 C 11,3 km/h (2 Bft)
26.05.2022 07:54 10,8 C 10,6 C 89 % 1022,2 hPa 0,0 l/m 8,0 km/h (2 Bft) S-SW 202 0 min 0,0 UV-I 46 W/m 9,1 C 9,7 C 9,7 km/h (2 Bft)
26.05.2022 07:55 10,8 C 10,6 C 89 % 1022,2 hPa 0,0 l/m 9,7 km/h (2 Bft) S-SW 202 0 min 0,0 UV-I 51 W/m 9,1 C 8,6 C 12,9 km/h (3 Bft)
26.05.2022 07:56 10,8 C 10,6 C 89 % 1022,2 hPa 0,0 l/m 8,0 km/h (2 Bft) S-SW 202 0 min 0,0 UV-I 54 W/m 9,1 C 9,7 C 11,3 km/h (2 Bft)
26.05.2022 07:57 10,8 C 10,6 C 89 % 1022,4 hPa 0,0 l/m 6,4 km/h (2 Bft) SW 225 0 min 0,0 UV-I 59 W/m 9,1 C 10,8 C 11,3 km/h (2 Bft)
26.05.2022 07:58 10,9 C 11,1 C 89 % 1022,3 hPa 0,0 l/m 8,0 km/h (2 Bft) S 180 0 min 0,0 UV-I 56 W/m 9,2 C 9,8 C 11,3 km/h (2 Bft)
26.05.2022 07:59 10,9 C 11,1 C 89 % 1022,2 hPa 0,0 l/m 9,7 km/h (2 Bft) SW 225 0 min 0,0 UV-I 53 W/m 9,2 C 8,8 C 14,5 km/h (3 Bft)
26.05.2022 08:00 10,9 C 11,1 C 89 % 1022,3 hPa 0,0 l/m 9,7 km/h (2 Bft) S-SW 202 0 min 0,0 UV-I 53 W/m 9,2 C 8,8 C 12,9 km/h (3 Bft)
26.05.2022 08:01 10,9 C 11,1 C 89 % 1022,4 hPa 0,0 l/m 8,0 km/h (2 Bft) S-SW 202 0 min 0,0 UV-I 49 W/m 9,2 C 9,8 C 9,7 km/h (2 Bft)
26.05.2022 08:02 10,9 C 11,1 C 89 % 1022,3 hPa 0,0 l/m 9,7 km/h (2 Bft) SW 225 0 min 0,0 UV-I 44 W/m 9,2 C 8,8 C 11,3 km/h (2 Bft)
26.05.2022 08:03 10,9 C 11,1 C 89 % 1022,5 hPa 0,0 l/m 9,7 km/h (2 Bft) S-SW 202 0 min 0,0 UV-I 57 W/m 9,2 C 8,8 C 12,9 km/h (3 Bft)
26.05.2022 08:04 10,9 C 11,1 C 89 % 1022,5 hPa 0,0 l/m 8,0 km/h (2 Bft) S-SW 202 0 min 0,0 UV-I 65 W/m 9,2 C 9,8 C 11,3 km/h (2 Bft)
26.05.2022 08:05 10,9 C 11,1 C 89 % 1022,5 hPa 0,0 l/m 11,3 km/h (2 Bft) S-SW 202 0 min 0,0 UV-I 65 W/m 9,2 C 7,9 C 16,1 km/h (3 Bft)
26.05.2022 08:06 10,9 C 11,1 C 89 % 1022,5 hPa 0,0 l/m 9,7 km/h (2 Bft) S 180 0 min 0,0 UV-I 60 W/m 9,2 C 8,8 C 12,9 km/h (3 Bft)
26.05.2022 08:07 10,9 C 11,1 C 89 % 1022,4 hPa 0,0 l/m 9,7 km/h (2 Bft) S-SW 202 0 min 0,0 UV-I 54 W/m 9,2 C 8,8 C 12,9 km/h (3 Bft)
26.05.2022 08:08 10,9 C 11,1 C 89 % 1022,4 hPa 0,0 l/m 9,7 km/h (2 Bft) SW 225 0 min 0,0 UV-I 53 W/m 9,2 C 8,8 C 14,5 km/h (3 Bft)
26.05.2022 08:09 11,0 C 11,1 C 89 % 1022,5 hPa 0,0 l/m 8,0 km/h (2 Bft) S-SW 202 0 min 0,0 UV-I 44 W/m 9,3 C 9,9 C 11,3 km/h (2 Bft)
26.05.2022 08:10 11,0 C 11,1 C 89 % 1022,4 hPa 0,0 l/m 9,7 km/h (2 Bft) S-SW 202 0 min 0,0 UV-I 42 W/m 9,3 C 8,9 C 12,9 km/h (3 Bft)
26.05.2022 08:11 11,0 C 11,1 C 88 % 1022,4 hPa 0,0 l/m 4,8 km/h (1 Bft) S-SW 202 0 min 0,0 UV-I 40 W/m 9,1 C 11,0 C 6,4 km/h (2 Bft)
26.05.2022 08:12 11,0 C 11,1 C 89 % 1022,4 hPa 0,0 l/m 8,0 km/h (2 Bft) S 180 0 min 0,0 UV-I 42 W/m 9,3 C 9,9 C 12,9 km/h (3 Bft)
26.05.2022 08:13 11,0 C 11,1 C 88 % 1022,5 hPa 0,0 l/m 8,0 km/h (2 Bft) S-SW 202 0 min 0,0 UV-I 49 W/m 9,1 C 9,9 C 14,5 km/h (3 Bft)
26.05.2022 08:14 11,1 C 11,1 C 89 % 1022,5 hPa 0,0 l/m 11,3 km/h (2 Bft) S 180 0 min 0,0 UV-I 53 W/m 9,4 C 8,1 C 14,5 km/h (3 Bft)
26.05.2022 08:15 11,0 C 11,1 C 88 % 1022,5 hPa 0,0 l/m 9,7 km/h (2 Bft) SW 225 0 min 0,0 UV-I 55 W/m 9,1 C 8,9 C 11,3 km/h (2 Bft)
26.05.2022 08:16 11,0 C 11,1 C 88 % 1022,6 hPa 0,0 l/m 8,0 km/h (2 Bft) S-SW 202 0 min 0,0 UV-I 56 W/m 9,1 C 9,9 C 11,3 km/h (2 Bft)
26.05.2022 08:17 11,0 C 11,1 C 88 % 1022,5 hPa 0,0 l/m 9,7 km/h (2 Bft) S-SW 202 0 min 0,0 UV-I 60 W/m 9,1 C 8,9 C 16,1 km/h (3 Bft)
26.05.2022 08:18 11,1 C 11,1 C 88 % 1022,5 hPa 0,0 l/m 11,3 km/h (2 Bft) S-SW 202 0 min 0,0 UV-I 69 W/m 9,2 C 8,1 C 17,7 km/h (3 Bft)
26.05.2022 08:19 11,1 C 11,1 C 88 % 1022,5 hPa 0,0 l/m 9,7 km/h (2 Bft) S-SW 202 0 min 0,0 UV-I 65 W/m 9,2 C 9,0 C 11,3 km/h (2 Bft)
26.05.2022 08:20 11,1 C 11,1 C 88 % 1022,6 hPa 0,0 l/m 9,7 km/h (2 Bft) S-SW 202 0 min 0,0 UV-I 57 W/m 9,2 C 9,0 C 14,5 km/h (3 Bft)
26.05.2022 08:21 11,1 C 11,1 C 88 % 1022,6 hPa 0,0 l/m 12,9 km/h (3 Bft) S-SW 202 0 min 0,0 UV-I 56 W/m 9,2 C 7,4 C 14,5 km/h (3 Bft)
26.05.2022 08:22 11,1 C 11,1 C 88 % 1022,5 hPa 0,0 l/m 9,7 km/h (2 Bft) S-SW 202 0 min 0,0 UV-I 69 W/m 9,2 C 9,0 C 14,5 km/h (3 Bft)
26.05.2022 08:23 11,1 C 11,1 C 88 % 1022,6 hPa 0,0 l/m 9,7 km/h (2 Bft) S-SW 202 0 min 0,0 UV-I 76 W/m 9,2 C 9,0 C 11,3 km/h (2 Bft)
26.05.2022 08:24 11,1 C 11,1 C 88 % 1022,7 hPa 0,0 l/m 8,0 km/h (2 Bft) S 180 0 min 0,0 UV-I 79 W/m 9,2 C 10,0 C 14,5 km/h (3 Bft)
26.05.2022 08:25 11,1 C 11,1 C 88 % 1022,6 hPa 0,0 l/m 11,3 km/h (2 Bft) S-SW 202 0 min 0,0 UV-I 69 W/m 9,2 C 8,1 C 14,5 km/h (3 Bft)
26.05.2022 08:26 11,2 C 11,1 C 88 % 1022,6 hPa 0,0 l/m 8,0 km/h (2 Bft) S-SW 202 0 min 0,0 UV-I 72 W/m 9,3 C 10,1 C 12,9 km/h (3 Bft)
26.05.2022 08:27 11,1 C 11,1 C 88 % 1022,6 hPa 0,0 l/m 9,7 km/h (2 Bft) S-SW 202 0 min 0,3 UV-I 90 W/m 9,2 C 9,0 C 11,3 km/h (2 Bft)
26.05.2022 08:28 11,2 C 11,1 C 88 % 1022,6 hPa 0,0 l/m 9,7 km/h (2 Bft) S-SW 202 0 min 0,5 UV-I 88 W/m 9,3 C 9,1 C 14,5 km/h (3 Bft)
26.05.2022 08:29 11,2 C 11,7 C 88 % 1022,5 hPa 0,0 l/m 4,8 km/h (1 Bft) SW 225 0 min 0,6 UV-I 97 W/m 9,3 C 11,2 C 6,4 km/h (2 Bft)
26.05.2022 08:30 11,2 C 11,7 C 88 % 1022,7 hPa 0,0 l/m 4,8 km/h (1 Bft) SW 225 0 min 0,5 UV-I 93 W/m 9,3 C 11,2 C 6,4 km/h (2 Bft)
26.05.2022 08:31 11,2 C 11,7 C 88 % 1022,6 hPa 0,0 l/m 11,3 km/h (2 Bft) S-SW 202 0 min 0,0 UV-I 83 W/m 9,3 C 8,2 C 17,7 km/h (3 Bft)
26.05.2022 08:32 11,2 C 11,7 C 88 % 1022,6 hPa 0,0 l/m 6,4 km/h (2 Bft) W-SW 247 0 min 0,0 UV-I 71 W/m 9,3 C 11,2 C 9,7 km/h (2 Bft)
26.05.2022 08:33 11,2 C 11,7 C 88 % 1022,6 hPa 0,0 l/m 8,0 km/h (2 Bft) S-SW 202 0 min 0,0 UV-I 63 W/m 9,3 C 10,1 C 9,7 km/h (2 Bft)
26.05.2022 08:34 11,3 C 11,7 C 88 % 1022,7 hPa 0,0 l/m 8,0 km/h (2 Bft) W-SW 247 0 min 0,0 UV-I 63 W/m 9,4 C 10,2 C 11,3 km/h (2 Bft)
26.05.2022 08:35 11,2 C 11,7 C 88 % 1022,7 hPa 0,0 l/m 6,4 km/h (2 Bft) SW 225 0 min 0,0 UV-I 63 W/m 9,3 C 11,2 C 11,3 km/h (2 Bft)
26.05.2022 08:36 11,3 C 11,7 C 88 % 1022,7 hPa 0,0 l/m 6,4 km/h (2 Bft) W-SW 247 0 min 0,0 UV-I 65 W/m 9,4 C 11,3 C 12,9 km/h (3 Bft)
26.05.2022 08:37 11,3 C 11,7 C 88 % 1022,6 hPa 0,0 l/m 6,4 km/h (2 Bft) SW 225 0 min 0,0 UV-I 69 W/m 9,4 C 11,3 C 12,9 km/h (3 Bft)
26.05.2022 08:38 11,3 C 11,7 C 88 % 1022,7 hPa 0,0 l/m 8,0 km/h (2 Bft) SW 225 0 min 0,0 UV-I 72 W/m 9,4 C 10,2 C 12,9 km/h (3 Bft)
26.05.2022 08:39 11,3 C 11,7 C 87 % 1022,7 hPa 0,0 l/m 8,0 km/h (2 Bft) W-SW 247 0 min 0,6 UV-I 86 W/m 9,2 C 10,2 C 12,9 km/h (3 Bft)
26.05.2022 08:40 11,3 C 11,7 C 88 % 1022,8 hPa 0,0 l/m 11,3 km/h (2 Bft) SW 225 0 min 0,6 UV-I 90 W/m 9,4 C 8,4 C 19,3 km/h (3 Bft)
26.05.2022 08:41 11,3 C 11,7 C 87 % 1022,7 hPa 0,0 l/m 11,3 km/h (2 Bft) W 270 0 min 0,6 UV-I 90 W/m 9,2 C 8,4 C 20,9 km/h (4 Bft)
26.05.2022 08:42 11,3 C 11,7 C 87 % 1022,8 hPa 0,0 l/m 6,4 km/h (2 Bft) W-SW 247 0 min 0,6 UV-I 97 W/m 9,2 C 11,3 C 12,9 km/h (3 Bft)
26.05.2022 08:43 11,3 C 11,7 C 87 % 1022,7 hPa 0,0 l/m 4,8 km/h (1 Bft) W-SW 247 0 min 0,7 UV-I 111 W/m 9,2 C 11,3 C 8,0 km/h (2 Bft)
26.05.2022 08:44 11,3 C 11,7 C 87 % 1022,8 hPa 0,0 l/m 4,8 km/h (1 Bft) S-SW 202 0 min 0,8 UV-I 125 W/m 9,2 C 11,3 C 8,0 km/h (2 Bft)
26.05.2022 08:45 11,4 C 11,7 C 87 % 1022,7 hPa 0,0 l/m 8,0 km/h (2 Bft) S-SW 202 0 min 0,7 UV-I 116 W/m 9,3 C 10,3 C 11,3 km/h (2 Bft)
26.05.2022 08:46 11,4 C 11,7 C 87 % 1022,8 hPa 0,0 l/m 6,4 km/h (2 Bft) S-SW 202 0 min 0,6 UV-I 102 W/m 9,3 C 11,4 C 9,7 km/h (2 Bft)
26.05.2022 08:47 11,4 C 12,2 C 87 % 1022,8 hPa 0,0 l/m 9,7 km/h (2 Bft) S-SW 202 0 min 0,6 UV-I 102 W/m 9,3 C 9,3 C 12,9 km/h (3 Bft)
26.05.2022 08:48 11,4 C 12,2 C 87 % 1022,9 hPa 0,0 l/m 8,0 km/h (2 Bft) W-SW 247 0 min 0,8 UV-I 118 W/m 9,3 C 10,3 C 12,9 km/h (3 Bft)
26.05.2022 08:49 11,4 C 12,2 C 87 % 1022,8 hPa 0,0 l/m 12,9 km/h (3 Bft) SW 225 0 min 0,9 UV-I 137 W/m 9,3 C 7,7 C 16,1 km/h (3 Bft)
26.05.2022 08:50 11,4 C 12,2 C 87 % 1022,8 hPa 0,0 l/m 11,3 km/h (2 Bft) SW 225 0 min 1,0 UV-I 163 W/m 9,3 C 8,5 C 16,1 km/h (3 Bft)
26.05.2022 08:51 11,5 C 12,2 C 87 % 1022,8 hPa 0,0 l/m 11,3 km/h (2 Bft) W-SW 247 0 min 1,0 UV-I 163 W/m 9,4 C 8,6 C 16,1 km/h (3 Bft)
26.05.2022 08:52 11,6 C 12,2 C 87 % 1022,8 hPa 0,0 l/m 11,3 km/h (2 Bft) SW 225 0 min 1,0 UV-I 163 W/m 9,5 C 8,7 C 17,7 km/h (3 Bft)
26.05.2022 08:53 11,6 C 12,2 C 86 % 1022,8 hPa 0,0 l/m 11,3 km/h (2 Bft) S-SW 202 0 min 1,1 UV-I 179 W/m 9,3 C 8,7 C 19,3 km/h (3 Bft)
26.05.2022 08:54 11,6 C 12,2 C 86 % 1022,8 hPa 0,0 l/m 12,9 km/h (3 Bft) S-SW 202 0 min 1,1 UV-I 192 W/m 9,3 C 7,9 C 17,7 km/h (3 Bft)
26.05.2022 08:55 11,7 C 12,8 C 86 % 1022,7 hPa 0,0 l/m 8,0 km/h (2 Bft) SW 225 0 min 1,1 UV-I 166 W/m 9,4 C 10,6 C 12,9 km/h (3 Bft)
26.05.2022 08:56 11,7 C 12,8 C 86 % 1022,8 hPa 0,0 l/m 6,4 km/h (2 Bft) SW 225 0 min 1,1 UV-I 158 W/m 9,4 C 11,7 C 11,3 km/h (2 Bft)
26.05.2022 08:57 11,7 C 12,8 C 86 % 1022,8 hPa 0,0 l/m 6,4 km/h (2 Bft) S-SW 202 0 min 1,3 UV-I 188 W/m 9,4 C 11,7 C 9,7 km/h (2 Bft)
26.05.2022 08:58 11,8 C 12,8 C 86 % 1022,9 hPa 0,0 l/m 8,0 km/h (2 Bft) SW 225 0 min 1,4 UV-I 213 W/m 9,5 C 10,7 C 22,5 km/h (4 Bft)
26.05.2022 08:59 11,8 C 12,8 C 86 % 1022,8 hPa 0,0 l/m 11,3 km/h (2 Bft) SW 225 0 min 1,4 UV-I 202 W/m 9,5 C 8,9 C 17,7 km/h (3 Bft)
26.05.2022 09:00 11,8 C 12,8 C 86 % 1022,9 hPa 0,0 l/m 8,0 km/h (2 Bft) W-SW 247 0 min 1,5 UV-I 218 W/m 9,5 C 10,7 C 12,9 km/h (3 Bft)
26.05.2022 09:01 11,9 C 13,3 C 86 % 1022,8 hPa 0,0 l/m 6,4 km/h (2 Bft) SW 225 0 min 1,7 UV-I 280 W/m 9,6 C 11,9 C 12,9 km/h (3 Bft)
26.05.2022 09:02 12,0 C 13,3 C 86 % 1022,9 hPa 0,0 l/m 9,7 km/h (2 Bft) SW 225 0 min 1,7 UV-I 271 W/m 9,7 C 10,0 C 16,1 km/h (3 Bft)
26.05.2022 09:03 12,1 C 13,3 C 86 % 1023,0 hPa 0,0 l/m 6,4 km/h (2 Bft) SW 225 0 min 1,8 UV-I 313 W/m 9,8 C 12,1 C 12,9 km/h (3 Bft)
26.05.2022 09:04 12,2 C 13,9 C 86 % 1023,0 hPa 0,0 l/m 6,4 km/h (2 Bft) SW 225 0 min 2,2 UV-I 313 W/m 9,9 C 12,2 C 9,7 km/h (2 Bft)
26.05.2022 09:05 12,3 C 13,9 C 85 % 1022,9 hPa 0,0 l/m 8,0 km/h (2 Bft) S-SW 202 0 min 1,9 UV-I 313 W/m 9,9 C 11,3 C 12,9 km/h (3 Bft)
26.05.2022 09:06 12,4 C 14,4 C 86 % 1023,0 hPa 0,0 l/m 8,0 km/h (2 Bft) SW 225 0 min 2,5 UV-I 313 W/m 10,1 C 11,4 C 16,1 km/h (3 Bft)
26.05.2022 09:07 12,5 C 14,4 C 85 % 1023,0 hPa 0,0 l/m 9,7 km/h (2 Bft) S-SW 202 0 min 2,5 UV-I 313 W/m 10,0 C 10,5 C 14,5 km/h (3 Bft)
26.05.2022 09:08 12,6 C 14,4 C 85 % 1023,1 hPa 0,0 l/m 9,7 km/h (2 Bft) S-SW 202 0 min 1,6 UV-I 313 W/m 10,1 C 10,6 C 16,1 km/h (3 Bft)
26.05.2022 09:09 12,6 C 14,4 C 84 % 1023,1 hPa 0,0 l/m 8,0 km/h (2 Bft) SW 225 0 min 1,5 UV-I 241 W/m 10,0 C 11,6 C 16,1 km/h (3 Bft)
26.05.2022 09:10 12,6 C 14,4 C 84 % 1023,1 hPa 0,0 l/m 8,0 km/h (2 Bft) SW 225 0 min 1,5 UV-I 250 W/m 10,0 C 11,6 C 11,3 km/h (2 Bft)
26.05.2022 09:11 12,6 C 14,4 C 84 % 1023,1 hPa 0,0 l/m 6,4 km/h (2 Bft) S-SW 202 0 min 1,5 UV-I 255 W/m 10,0 C 12,6 C 11,3 km/h (2 Bft)
26.05.2022 09:12 12,6 C 13,9 C 84 % 1023,2 hPa 0,0 l/m 11,3 km/h (2 Bft) W-SW 247 0 min 1,3 UV-I 197 W/m 10,0 C 9,8 C 16,1 km/h (3 Bft)
26.05.2022 09:13 12,5 C 13,9 C 83 % 1023,1 hPa 0,0 l/m 4,8 km/h (1 Bft) W 270 0 min 1,4 UV-I 233 W/m 9,7 C 12,5 C 6,4 km/h (2 Bft)
26.05.2022 09:14 12,6 C 13,9 C 84 % 1023,1 hPa 0,0 l/m 9,7 km/h (2 Bft) W-SW 247 0 min 1,5 UV-I 278 W/m 10,0 C 10,6 C 16,1 km/h (3 Bft)
26.05.2022 09:15 12,5 C 13,9 C 84 % 1023,2 hPa 0,0 l/m 11,3 km/h (2 Bft) W-SW 247 0 min 1,3 UV-I 267 W/m 9,9 C 9,7 C 14,5 km/h (3 Bft)
26.05.2022 09:16 12,5 C 13,9 C 84 % 1023,1 hPa 0,0 l/m 11,3 km/h (2 Bft) W-SW 247 0 min 1,3 UV-I 239 W/m 9,9 C 9,7 C 20,9 km/h (4 Bft)
26.05.2022 09:17 12,4 C 13,9 C 83 % 1023,1 hPa 0,0 l/m 11,3 km/h (2 Bft) SW 225 0 min 1,2 UV-I 204 W/m 9,6 C 9,6 C 19,3 km/h (3 Bft)
26.05.2022 09:18 12,4 C 13,3 C 82 % 1023,2 hPa 0,0 l/m 9,7 km/h (2 Bft) SW 225 0 min 1,2 UV-I 195 W/m 9,4 C 10,4 C 17,7 km/h (3 Bft)
26.05.2022 09:19 12,4 C 13,3 C 83 % 1023,1 hPa 0,0 l/m 4,8 km/h (1 Bft) SW 225 0 min 1,3 UV-I 218 W/m 9,6 C 12,4 C 11,3 km/h (2 Bft)
26.05.2022 09:20 12,3 C 13,9 C 83 % 1023,2 hPa 0,0 l/m 9,7 km/h (2 Bft) W-SW 247 0 min 1,4 UV-I 255 W/m 9,5 C 10,3 C 16,1 km/h (3 Bft)
26.05.2022 09:21 12,3 C 13,3 C 82 % 1023,1 hPa 0,0 l/m 11,3 km/h (2 Bft) W-SW 247 0 min 1,4 UV-I 257 W/m 9,3 C 9,5 C 17,7 km/h (3 Bft)
26.05.2022 09:22 12,4 C 13,9 C 83 % 1023,1 hPa 0,0 l/m 11,3 km/h (2 Bft) SW 225 0 min 1,5 UV-I 255 W/m 9,6 C 9,6 C 14,5 km/h (3 Bft)
26.05.2022 09:23 12,4 C 13,9 C 83 % 1023,2 hPa 0,0 l/m 16,1 km/h (3 Bft) S-SW 202 0 min 1,5 UV-I 264 W/m 9,6 C 7,6 C 24,1 km/h (4 Bft)
26.05.2022 09:24 12,4 C 13,9 C 83 % 1023,2 hPa 0,0 l/m 16,1 km/h (3 Bft) W-SW 247 0 min 1,5 UV-I 265 W/m 9,6 C 7,6 C 22,5 km/h (4 Bft)
26.05.2022 09:25 12,4 C 13,3 C 83 % 1023,1 hPa 0,0 l/m 12,9 km/h (3 Bft) W-SW 247 0 min 1,4 UV-I 231 W/m 9,6 C 8,9 C 17,7 km/h (3 Bft)
26.05.2022 09:26 12,4 C 13,3 C 83 % 1023,2 hPa 0,0 l/m 8,0 km/h (2 Bft) SW 225 0 min 1,3 UV-I 202 W/m 9,6 C 11,4 C 14,5 km/h (3 Bft)
26.05.2022 09:27 12,4 C 13,3 C 83 % 1023,4 hPa 0,0 l/m 8,0 km/h (2 Bft) W-SW 247 0 min 1,3 UV-I 192 W/m 9,6 C 11,4 C 12,9 km/h (3 Bft)
26.05.2022 09:28 12,4 C 13,3 C 83 % 1023,2 hPa 0,0 l/m 9,7 km/h (2 Bft) SW 225 0 min 1,3 UV-I 179 W/m 9,6 C 10,4 C 17,7 km/h (3 Bft)
26.05.2022 09:29 12,4 C 13,3 C 83 % 1023,2 hPa 0,0 l/m 6,4 km/h (2 Bft) SW 225 0 min 1,2 UV-I 162 W/m 9,6 C 12,4 C 14,5 km/h (3 Bft)
26.05.2022 09:30 12,4 C 13,3 C 83 % 1023,3 hPa 0,0 l/m 4,8 km/h (1 Bft) SW 225 0 min 1,3 UV-I 151 W/m 9,6 C 12,4 C 8,0 km/h (2 Bft)
26.05.2022 09:31 12,4 C 13,3 C 82 % 1023,3 hPa 0,0 l/m 6,4 km/h (2 Bft) S-SW 202 0 min 1,3 UV-I 150 W/m 9,4 C 12,4 C 11,3 km/h (2 Bft)
26.05.2022 09:32 12,3 C 13,3 C 82 % 1023,3 hPa 0,0 l/m 9,7 km/h (2 Bft) SW 225 0 min 1,5 UV-I 141 W/m 9,3 C 10,3 C 16,1 km/h (3 Bft)
26.05.2022 09:33 12,3 C 13,3 C 82 % 1023,3 hPa 0,0 l/m 8,0 km/h (2 Bft) SW 225 0 min 1,5 UV-I 141 W/m 9,3 C 11,3 C 14,5 km/h (3 Bft)
26.05.2022 09:34 12,2 C 13,3 C 82 % 1023,3 hPa 0,0 l/m 8,0 km/h (2 Bft) W-SW 247 0 min 1,7 UV-I 160 W/m 9,2 C 11,2 C 12,9 km/h (3 Bft)
26.05.2022 09:35 12,2 C 13,3 C 83 % 1023,3 hPa 0,0 l/m 6,4 km/h (2 Bft) W-SW 247 0 min 2,3 UV-I 220 W/m 9,4 C 12,2 C 12,9 km/h (3 Bft)
26.05.2022 09:36 12,3 C 13,3 C 83 % 1023,4 hPa 0,0 l/m 6,4 km/h (2 Bft) W-SW 247 0 min 2,2 UV-I 220 W/m 9,5 C 12,3 C 11,3 km/h (2 Bft)
26.05.2022 09:37 12,3 C 13,9 C 83 % 1023,3 hPa 0,0 l/m 11,3 km/h (2 Bft) SW 225 0 min 2,2 UV-I 220 W/m 9,5 C 9,5 C 16,1 km/h (3 Bft)
26.05.2022 09:38 12,4 C 13,9 C 82 % 1023,3 hPa 0,0 l/m 9,7 km/h (2 Bft) SW 225 0 min 2,4 UV-I 220 W/m 9,4 C 10,4 C 16,1 km/h (3 Bft)
26.05.2022 09:39 12,5 C 13,9 C 82 % 1023,4 hPa 0,0 l/m 8,0 km/h (2 Bft) S 180 0 min 2,8 UV-I 220 W/m 9,5 C 11,5 C 14,5 km/h (3 Bft)
26.05.2022 09:40 12,7 C 13,9 C 82 % 1023,4 hPa 0,0 l/m 9,7 km/h (2 Bft) SW 225 0 min 3,4 UV-I 220 W/m 9,7 C 10,7 C 12,9 km/h (3 Bft)
26.05.2022 09:41 12,8 C 14,4 C 82 % 1023,4 hPa 0,0 l/m 8,0 km/h (2 Bft) W-SW 247 1 min 3,3 UV-I 696 W/m 9,8 C 11,8 C 16,1 km/h (3 Bft)
26.05.2022 09:42 13,0 C 15,0 C 82 % 1023,3 hPa 0,0 l/m 11,3 km/h (2 Bft) SW 225 1 min 3,2 UV-I 622 W/m 10,0 C 10,3 C 17,7 km/h (3 Bft)
26.05.2022 09:43 13,1 C 15,0 C 81 % 1023,4 hPa 0,0 l/m 11,3 km/h (2 Bft) SW 225 1 min 2,2 UV-I 380 W/m 9,9 C 10,4 C 16,1 km/h (3 Bft)
26.05.2022 09:44 13,2 C 15,0 C 80 % 1023,4 hPa 0,0 l/m 8,0 km/h (2 Bft) W-SW 247 1 min 2,4 UV-I 380 W/m 9,8 C 12,2 C 16,1 km/h (3 Bft)
26.05.2022 09:45 13,2 C 15,0 C 80 % 1023,5 hPa 0,0 l/m 8,0 km/h (2 Bft) SW 225 0 min 2,1 UV-I 236 W/m 9,8 C 12,2 C 12,9 km/h (3 Bft)
26.05.2022 09:46 13,3 C 15,0 C 80 % 1023,4 hPa 0,0 l/m 12,9 km/h (3 Bft) W 270 0 min 3,1 UV-I 236 W/m 9,9 C 9,9 C 22,5 km/h (4 Bft)
26.05.2022 09:47 13,3 C 15,0 C 79 % 1023,4 hPa 0,0 l/m 11,3 km/h (2 Bft) W 270 0 min 2,2 UV-I 236 W/m 9,7 C 10,6 C 17,7 km/h (3 Bft)
26.05.2022 09:48 13,2 C 14,4 C 79 % 1023,4 hPa 0,0 l/m 12,9 km/h (3 Bft) S-SW 202 0 min 2,1 UV-I 216 W/m 9,6 C 9,8 C 19,3 km/h (3 Bft)
26.05.2022 09:49 13,2 C 14,4 C 78 % 1023,4 hPa 0,0 l/m 12,9 km/h (3 Bft) SW 225 0 min 3,0 UV-I 216 W/m 9,4 C 9,8 C 19,3 km/h (3 Bft)
26.05.2022 09:50 13,1 C 14,4 C 78 % 1023,4 hPa 0,0 l/m 11,3 km/h (2 Bft) W-SW 247 0 min 3,1 UV-I 216 W/m 9,4 C 10,4 C 17,7 km/h (3 Bft)
26.05.2022 09:51 13,2 C 14,4 C 79 % 1023,4 hPa 0,0 l/m 6,4 km/h (2 Bft) W 270 1 min 3,4 UV-I 557 W/m 9,6 C 13,2 C 14,5 km/h (3 Bft)
26.05.2022 09:52 13,2 C 15,0 C 79 % 1023,4 hPa 0,0 l/m 8,0 km/h (2 Bft) S-SW 202 1 min 3,7 UV-I 628 W/m 9,6 C 12,2 C 11,3 km/h (2 Bft)
26.05.2022 09:53 13,3 C 15,0 C 79 % 1023,4 hPa 0,0 l/m 11,3 km/h (2 Bft) S-SW 202 1 min 3,4 UV-I 628 W/m 9,7 C 10,6 C 14,5 km/h (3 Bft)
26.05.2022 09:54 13,4 C 15,0 C 78 % 1023,4 hPa 0,0 l/m 11,3 km/h (2 Bft) S 180 1 min 3,3 UV-I 391 W/m 9,6 C 10,7 C 14,5 km/h (3 Bft)
26.05.2022 09:55 13,4 C 15,0 C 78 % 1023,3 hPa 0,0 l/m 9,7 km/h (2 Bft) S-SW 202 0 min 2,7 UV-I 318 W/m 9,6 C 11,5 C 14,5 km/h (3 Bft)
26.05.2022 09:56 13,3 C 15,0 C 77 % 1023,4 hPa 0,0 l/m 12,9 km/h (3 Bft) SW 225 0 min 3,9 UV-I 318 W/m 9,4 C 9,9 C 16,1 km/h (3 Bft)
26.05.2022 09:57 13,4 C 15,6 C 78 % 1023,4 hPa 0,0 l/m 14,5 km/h (3 Bft) S-SW 202 1 min 3,5 UV-I 733 W/m 9,6 C 9,4 C 17,7 km/h (3 Bft)
26.05.2022 09:58 13,5 C 15,6 C 78 % 1023,4 hPa 0,0 l/m 11,3 km/h (2 Bft) SW 225 1 min 2,5 UV-I 733 W/m 9,7 C 10,9 C 16,1 km/h (3 Bft)
26.05.2022 09:59 13,6 C 16,1 C 78 % 1023,5 hPa 0,0 l/m 17,7 km/h (3 Bft) SW 225 1 min 2,7 UV-I 390 W/m 9,8 C 8,6 C 25,7 km/h (4 Bft)
26.05.2022 10:00 13,6 C 16,1 C 76 % 1023,4 hPa 0,2 l/m 12,9 km/h (3 Bft) SW 225 1 min 3,6 UV-I 390 W/m 9,4 C 10,3 C 20,9 km/h (4 Bft)
26.05.2022 10:01 13,7 C 16,1 C 77 % 1023,4 hPa 0,0 l/m 14,5 km/h (3 Bft) S-SW 202 1 min 2,7 UV-I 431 W/m 9,7 C 9,8 C 22,5 km/h (4 Bft)
26.05.2022 10:02 13,7 C 16,1 C 75 % 1023,4 hPa 0,0 l/m 16,1 km/h (3 Bft) S-SW 202 0 min 2,1 UV-I 343 W/m 9,3 C 9,2 C 22,5 km/h (4 Bft)
26.05.2022 10:03 13,7 C 15,6 C 75 % 1023,4 hPa 0,0 l/m 12,9 km/h (3 Bft) SW 225 0 min 1,9 UV-I 302 W/m 9,3 C 10,4 C 19,3 km/h (3 Bft)
26.05.2022 10:04 13,6 C 15,6 C 75 % 1023,4 hPa 0,0 l/m 17,7 km/h (3 Bft) W 270 0 min 1,8 UV-I 290 W/m 9,3 C 8,6 C 20,9 km/h (4 Bft)
26.05.2022 10:05 13,6 C 15,6 C 75 % 1023,4 hPa 0,0 l/m 14,5 km/h (3 Bft) W-SW 247 0 min 1,8 UV-I 283 W/m 9,3 C 9,7 C 19,3 km/h (3 Bft)
26.05.2022 10:06 13,5 C 15,0 C 75 % 1023,5 hPa 0,0 l/m 11,3 km/h (2 Bft) SW 225 0 min 1,7 UV-I 268 W/m 9,2 C 10,9 C 16,1 km/h (3 Bft)
26.05.2022 10:07 13,4 C 15,0 C 75 % 1023,5 hPa 0,0 l/m 9,7 km/h (2 Bft) W-SW 247 0 min 1,7 UV-I 271 W/m 9,1 C 11,5 C 12,9 km/h (3 Bft)
26.05.2022 10:08 13,4 C 15,0 C 76 % 1023,6 hPa 0,0 l/m 8,0 km/h (2 Bft) S-SW 202 0 min 1,8 UV-I 279 W/m 9,3 C 12,4 C 19,3 km/h (3 Bft)
26.05.2022 10:09 13,4 C 15,0 C 76 % 1023,5 hPa 0,0 l/m 12,9 km/h (3 Bft) S-SW 202 0 min 2,1 UV-I 302 W/m 9,3 C 10,1 C 16,1 km/h (3 Bft)
26.05.2022 10:10 13,4 C 15,0 C 76 % 1023,6 hPa 0,0 l/m 11,3 km/h (2 Bft) SW 225 1 min 2,5 UV-I 350 W/m 9,3 C 10,7 C 17,7 km/h (3 Bft)
26.05.2022 10:11 13,5 C 15,0 C 76 % 1023,7 hPa 0,0 l/m 11,3 km/h (2 Bft) W-SW 247 0 min 2,1 UV-I 292 W/m 9,4 C 10,9 C 19,3 km/h (3 Bft)
26.05.2022 10:12 13,5 C 15,0 C 76 % 1023,5 hPa 0,0 l/m 8,0 km/h (2 Bft) SW 225 1 min 2,3 UV-I 354 W/m 9,4 C 12,5 C 14,5 km/h (3 Bft)
26.05.2022 10:13 13,4 C 15,0 C 76 % 1023,6 hPa 0,0 l/m 11,3 km/h (2 Bft) S-SW 202 1 min 3,3 UV-I 404 W/m 9,3 C 10,7 C 14,5 km/h (3 Bft)
26.05.2022 10:14 13,5 C 15,6 C 76 % 1023,5 hPa 0,0 l/m 9,7 km/h (2 Bft) S-SW 202 1 min 3,1 UV-I 408 W/m 9,4 C 11,6 C 14,5 km/h (3 Bft)
26.05.2022 10:15 13,6 C 15,6 C 76 % 1023,6 hPa 0,0 l/m 9,7 km/h (2 Bft) SW 225 1 min 2,4 UV-I 408 W/m 9,4 C 11,7 C 16,1 km/h (3 Bft)
26.05.2022 10:16 13,6 C 15,6 C 76 % 1023,6 hPa 0,0 l/m 11,3 km/h (2 Bft) SW 225 1 min 4,0 UV-I 408 W/m 9,4 C 11,0 C 16,1 km/h (3 Bft)
26.05.2022 10:17 13,6 C 15,6 C 76 % 1023,5 hPa 0,0 l/m 11,3 km/h (2 Bft) S-SW 202 1 min 2,7 UV-I 408 W/m 9,4 C 11,0 C 16,1 km/h (3 Bft)
26.05.2022 10:18 13,6 C 15,0 C 75 % 1023,6 hPa 0,0 l/m 8,0 km/h (2 Bft) W-SW 247 0 min 3,7 UV-I 327 W/m 9,3 C 12,6 C 11,3 km/h (2 Bft)
26.05.2022 10:19 13,7 C 15,0 C 77 % 1023,6 hPa 0,0 l/m 12,9 km/h (3 Bft) S-SW 202 0 min 3,2 UV-I 327 W/m 9,7 C 10,4 C 20,9 km/h (4 Bft)
26.05.2022 10:20 13,6 C 15,0 C 75 % 1023,5 hPa 0,0 l/m 12,9 km/h (3 Bft) S-SW 202 1 min 4,0 UV-I 429 W/m 9,3 C 10,3 C 19,3 km/h (3 Bft)
26.05.2022 10:21 13,6 C 15,0 C 75 % 1023,5 hPa 0,0 l/m 17,7 km/h (3 Bft) S-SW 202 1 min 4,0 UV-I 429 W/m 9,3 C 8,6 C 22,5 km/h (4 Bft)
26.05.2022 10:22 13,7 C 15,0 C 75 % 1023,6 hPa 0,0 l/m 14,5 km/h (3 Bft) S-SW 202 1 min 4,0 UV-I 621 W/m 9,3 C 9,8 C 20,9 km/h (4 Bft)
26.05.2022 10:23 13,7 C 15,0 C 75 % 1023,7 hPa 0,0 l/m 11,3 km/h (2 Bft) S-SW 202 1 min 4,1 UV-I 621 W/m 9,3 C 11,1 C 16,1 km/h (3 Bft)
26.05.2022 10:24 13,8 C 15,6 C 75 % 1023,5 hPa 0,0 l/m 12,9 km/h (3 Bft) S-SW 202 1 min 4,1 UV-I 640 W/m 9,4 C 10,5 C 19,3 km/h (3 Bft)
26.05.2022 10:25 13,9 C 15,6 C 76 % 1023,5 hPa 0,0 l/m 12,9 km/h (3 Bft) SW 225 1 min 3,4 UV-I 668 W/m 9,7 C 10,6 C 19,3 km/h (3 Bft)
26.05.2022 10:26 14,1 C 16,1 C 76 % 1023,5 hPa 0,0 l/m 11,3 km/h (2 Bft) W-SW 247 1 min 4,2 UV-I 686 W/m 9,9 C 11,5 C 14,5 km/h (3 Bft)
26.05.2022 10:27 14,1 C 16,1 C 74 % 1023,5 hPa 0,0 l/m 12,9 km/h (3 Bft) W-SW 247 1 min 3,9 UV-I 715 W/m 9,5 C 10,9 C 17,7 km/h (3 Bft)
26.05.2022 10:28 14,2 C 16,1 C 73 % 1023,5 hPa 0,0 l/m 12,9 km/h (3 Bft) W-SW 247 1 min 3,1 UV-I 722 W/m 9,4 C 11,0 C 25,7 km/h (4 Bft)
26.05.2022 10:29 14,1 C 16,1 C 73 % 1023,5 hPa 0,0 l/m 12,9 km/h (3 Bft) SW 225 1 min 3,8 UV-I 722 W/m 9,3 C 10,9 C 20,9 km/h (4 Bft)
26.05.2022 10:30 14,1 C 16,1 C 73 % 1023,6 hPa 0,0 l/m 9,7 km/h (2 Bft) SW 225 1 min 4,4 UV-I 798 W/m 9,3 C 12,3 C 14,5 km/h (3 Bft)
26.05.2022 10:31 14,2 C 16,7 C 74 % 1023,5 hPa 0,0 l/m 9,7 km/h (2 Bft) SW 225 1 min 3,2 UV-I 798 W/m 9,6 C 12,4 C 16,1 km/h (3 Bft)
26.05.2022 10:32 14,2 C 17,2 C 75 % 1023,5 hPa 0,0 l/m 8,0 km/h (2 Bft) SW 225 1 min 2,4 UV-I 798 W/m 9,8 C 13,3 C 14,5 km/h (3 Bft)
26.05.2022 10:33 14,2 C 16,7 C 73 % 1023,6 hPa 0,0 l/m 11,3 km/h (2 Bft) W-SW 247 1 min 3,7 UV-I 798 W/m 9,4 C 11,6 C 16,1 km/h (3 Bft)
26.05.2022 10:34 14,3 C 16,7 C 74 % 1023,5 hPa 0,0 l/m 9,7 km/h (2 Bft) W-SW 247 1 min 4,0 UV-I 798 W/m 9,7 C 12,5 C 14,5 km/h (3 Bft)
26.05.2022 10:35 14,4 C 16,7 C 74 % 1023,6 hPa 0,0 l/m 11,3 km/h (2 Bft) S-SW 202 0 min 1,8 UV-I 221 W/m 9,8 C 11,9 C 16,1 km/h (3 Bft)
26.05.2022 10:36 14,3 C 16,1 C 73 % 1023,6 hPa 0,0 l/m 12,9 km/h (3 Bft) SW 225 0 min 1,4 UV-I 183 W/m 9,5 C 11,1 C 19,3 km/h (3 Bft)
26.05.2022 10:37 14,2 C 15,6 C 72 % 1023,7 hPa 0,0 l/m 12,9 km/h (3 Bft) S-SW 202 0 min 1,3 UV-I 169 W/m 9,2 C 11,0 C 17,7 km/h (3 Bft)
26.05.2022 10:38 14,1 C 15,6 C 72 % 1023,6 hPa 0,0 l/m 9,7 km/h (2 Bft) S-SW 202 0 min 1,5 UV-I 165 W/m 9,1 C 12,3 C 17,7 km/h (3 Bft)
26.05.2022 10:39 13,9 C 15,0 C 74 % 1023,6 hPa 0,0 l/m 9,7 km/h (2 Bft) SW 225 0 min 1,7 UV-I 162 W/m 9,3 C 12,0 C 16,1 km/h (3 Bft)
26.05.2022 10:40 13,8 C 15,0 C 74 % 1023,8 hPa 0,0 l/m 11,3 km/h (2 Bft) SW 225 0 min 1,9 UV-I 162 W/m 9,2 C 11,2 C 16,1 km/h (3 Bft)
26.05.2022 10:41 13,7 C 14,4 C 74 % 1023,8 hPa 0,0 l/m 11,3 km/h (2 Bft) W-SW 247 0 min 2,0 UV-I 169 W/m 9,2 C 11,1 C 16,1 km/h (3 Bft)
26.05.2022 10:42 13,6 C 14,4 C 74 % 1023,7 hPa 0,0 l/m 12,9 km/h (3 Bft) W-SW 247 0 min 2,4 UV-I 250 W/m 9,1 C 10,3 C 16,1 km/h (3 Bft)
26.05.2022 10:43 13,6 C 14,4 C 74 % 1023,7 hPa 0,0 l/m 11,3 km/h (2 Bft) W-SW 247 0 min 4,4 UV-I 250 W/m 9,1 C 11,0 C 17,7 km/h (3 Bft)
26.05.2022 10:44 13,6 C 15,0 C 75 % 1023,8 hPa 0,0 l/m 12,9 km/h (3 Bft) S-SW 202 1 min 3,0 UV-I 747 W/m 9,3 C 10,3 C 16,1 km/h (3 Bft)
26.05.2022 10:45 13,7 C 15,0 C 75 % 1023,7 hPa 0,0 l/m 9,7 km/h (2 Bft) S-SW 202 1 min 3,8 UV-I 747 W/m 9,3 C 11,8 C 16,1 km/h (3 Bft)
26.05.2022 10:46 13,8 C 15,6 C 75 % 1023,7 hPa 0,0 l/m 12,9 km/h (3 Bft) SW 225 1 min 4,6 UV-I 747 W/m 9,4 C 10,5 C 19,3 km/h (3 Bft)
26.05.2022 10:47 14,1 C 16,1 C 74 % 1023,7 hPa 0,0 l/m 12,9 km/h (3 Bft) SW 225 1 min 4,6 UV-I 735 W/m 9,5 C 10,9 C 17,7 km/h (3 Bft)
26.05.2022 10:48 14,2 C 16,1 C 74 % 1023,7 hPa 0,0 l/m 8,0 km/h (2 Bft) W 270 1 min 4,6 UV-I 737 W/m 9,6 C 13,3 C 14,5 km/h (3 Bft)
26.05.2022 10:49 14,4 C 16,7 C 75 % 1023,8 hPa 0,0 l/m 8,0 km/h (2 Bft) W-SW 247 1 min 4,7 UV-I 749 W/m 10,0 C 13,5 C 14,5 km/h (3 Bft)
26.05.2022 10:50 14,6 C 17,2 C 75 % 1023,7 hPa 0,0 l/m 9,7 km/h (2 Bft) S-SW 202 1 min 4,8 UV-I 768 W/m 10,2 C 12,8 C 14,5 km/h (3 Bft)
26.05.2022 10:51 14,7 C 17,8 C 74 % 1023,6 hPa 0,0 l/m 11,3 km/h (2 Bft) W 270 1 min 4,9 UV-I 789 W/m 10,1 C 12,2 C 19,3 km/h (3 Bft)
26.05.2022 10:52 14,9 C 18,3 C 75 % 1023,8 hPa 0,0 l/m 12,9 km/h (3 Bft) W 270 1 min 5,0 UV-I 849 W/m 10,5 C 11,8 C 17,7 km/h (3 Bft)
26.05.2022 10:53 15,1 C 18,3 C 73 % 1023,8 hPa 0,0 l/m 8,0 km/h (2 Bft) W-SW 247 1 min 4,7 UV-I 926 W/m 10,3 C 14,2 C 16,1 km/h (3 Bft)
26.05.2022 10:54 15,1 C 18,9 C 73 % 1023,7 hPa 0,0 l/m 9,7 km/h (2 Bft) W-SW 247 1 min 4,8 UV-I 765 W/m 10,3 C 13,4 C 16,1 km/h (3 Bft)
26.05.2022 10:55 15,0 C 18,9 C 72 % 1023,8 hPa 0,0 l/m 9,7 km/h (2 Bft) SW 225 1 min 3,0 UV-I 765 W/m 10,0 C 13,3 C 14,5 km/h (3 Bft)
26.05.2022 10:56 14,9 C 18,3 C 71 % 1023,8 hPa 0,0 l/m 11,3 km/h (2 Bft) S-SW 202 1 min 2,9 UV-I 499 W/m 9,7 C 12,4 C 17,7 km/h (3 Bft)
26.05.2022 10:57 14,8 C 17,8 C 72 % 1023,7 hPa 0,0 l/m 4,8 km/h (1 Bft) S-SW 202 1 min 2,3 UV-I 499 W/m 9,8 C 14,8 C 8,0 km/h (2 Bft)
26.05.2022 10:58 14,8 C 17,8 C 72 % 1023,7 hPa 0,0 l/m 9,7 km/h (2 Bft) S-SW 202 0 min 2,1 UV-I 275 W/m 9,8 C 13,0 C 14,5 km/h (3 Bft)
26.05.2022 10:59 14,7 C 16,7 C 71 % 1023,6 hPa 0,0 l/m 11,3 km/h (2 Bft) S-SW 202 0 min 1,5 UV-I 190 W/m 9,5 C 12,2 C 14,5 km/h (3 Bft)
26.05.2022 11:00 14,5 C 16,7 C 71 % 1023,7 hPa 0,0 l/m 8,0 km/h (2 Bft) S-SW 202 0 min 1,4 UV-I 181 W/m 9,3 C 13,6 C 11,3 km/h (2 Bft)
26.05.2022 11:01 14,4 C 16,1 C 72 % 1023,7 hPa 0,0 l/m 12,9 km/h (3 Bft) S-SW 202 0 min 1,6 UV-I 178 W/m 9,4 C 11,2 C 22,5 km/h (4 Bft)
26.05.2022 11:02 14,3 C 15,6 C 72 % 1023,8 hPa 0,0 l/m 14,5 km/h (3 Bft) SW 225 0 min 1,7 UV-I 167 W/m 9,3 C 10,5 C 20,9 km/h (4 Bft)
26.05.2022 11:03 14,2 C 15,6 C 72 % 1023,7 hPa 0,0 l/m 9,7 km/h (2 Bft) SW 225 0 min 1,9 UV-I 160 W/m 9,2 C 12,4 C 19,3 km/h (3 Bft)
26.05.2022 11:04 14,1 C 15,6 C 72 % 1024,0 hPa 0,0 l/m 16,1 km/h (3 Bft) W-SW 247 0 min 2,1 UV-I 155 W/m 9,1 C 9,7 C 22,5 km/h (4 Bft)
26.05.2022 11:05 14,0 C 15,0 C 72 % 1023,9 hPa 0,0 l/m 17,7 km/h (3 Bft) W 270 0 min 2,3 UV-I 141 W/m 9,0 C 9,1 C 22,5 km/h (4 Bft)
26.05.2022 11:06 13,9 C 14,4 C 72 % 1023,8 hPa 0,0 l/m 17,7 km/h (3 Bft) W-SW 247 0 min 4,9 UV-I 141 W/m 8,9 C 9,0 C 20,9 km/h (4 Bft)
26.05.2022 11:07 13,9 C 15,6 C 73 % 1023,9 hPa 0,0 l/m 11,3 km/h (2 Bft) W-SW 247 1 min 5,0 UV-I 780 W/m 9,1 C 11,3 C 14,5 km/h (3 Bft)
26.05.2022 11:08 14,2 C 16,7 C 74 % 1023,9 hPa 0,0 l/m 14,5 km/h (3 Bft) W-SW 247 1 min 5,0 UV-I 768 W/m 9,6 C 10,4 C 17,7 km/h (3 Bft)
26.05.2022 11:09 14,4 C 17,8 C 74 % 1023,7 hPa 0,0 l/m 9,7 km/h (2 Bft) SW 225 1 min 5,0 UV-I 765 W/m 9,8 C 12,6 C 14,5 km/h (3 Bft)
26.05.2022 11:10 14,6 C 18,3 C 73 % 1023,7 hPa 0,0 l/m 8,0 km/h (2 Bft) SW 225 1 min 5,1 UV-I 766 W/m 9,8 C 13,7 C 11,3 km/h (2 Bft)
26.05.2022 11:11 14,8 C 18,9 C 74 % 1023,8 hPa 0,0 l/m 9,7 km/h (2 Bft) S-SO 157 1 min 5,1 UV-I 768 W/m 10,2 C 13,0 C 14,5 km/h (3 Bft)
26.05.2022 11:12 15,1 C 20,0 C 73 % 1023,8 hPa 0,0 l/m 16,1 km/h (3 Bft) SW 225 1 min 5,2 UV-I 780 W/m 10,3 C 11,0 C 22,5 km/h (4 Bft)
26.05.2022 11:13 15,2 C 20,0 C 71 % 1023,8 hPa 0,0 l/m 16,1 km/h (3 Bft) SW 225 1 min 5,3 UV-I 800 W/m 10,0 C 11,1 C 24,1 km/h (4 Bft)
26.05.2022 11:14 15,2 C 20,0 C 70 % 1023,8 hPa 0,0 l/m 11,3 km/h (2 Bft) SW 225 1 min 5,3 UV-I 819 W/m 9,8 C 12,8 C 14,5 km/h (3 Bft)
26.05.2022 11:15 15,2 C 20,0 C 70 % 1023,8 hPa 0,0 l/m 9,7 km/h (2 Bft) W-SW 247 1 min 5,4 UV-I 863 W/m 9,8 C 13,5 C 17,7 km/h (3 Bft)
26.05.2022 11:16 15,4 C 20,6 C 72 % 1023,8 hPa 0,0 l/m 9,7 km/h (2 Bft) S-SW 202 1 min 5,7 UV-I 970 W/m 10,4 C 13,7 C 16,1 km/h (3 Bft)
26.05.2022 11:17 15,6 C 21,1 C 71 % 1023,8 hPa 0,0 l/m 12,9 km/h (3 Bft) S-SW 202 1 min 5,9 UV-I 771 W/m 10,4 C 12,6 C 19,3 km/h (3 Bft)
26.05.2022 11:20 15,7 C 19,4 C 69 % 1023,9 hPa 0,0 l/m 12,7 km/h (3 Bft) SW 223 0 min 2,8 UV-I 310 W/m 10,0 C 12,8 C 19,3 km/h (3 Bft)
26.05.2022 11:22 15,3 C 18,9 C 68 % 1023,8 hPa 0,0 l/m 16,1 km/h (3 Bft) SW 229 0 min 3,8 UV-I 307 W/m 9,4 C 11,2 C 24,1 km/h (4 Bft)
26.05.2022 11:24 15,1 C 18,9 C 70 % 1023,9 hPa 0,0 l/m 17,7 km/h (3 Bft) S-SW 209 0 min 4,8 UV-I 311 W/m 9,7 C 10,5 C 24,1 km/h (4 Bft)
26.05.2022 11:26 15,2 C 19,4 C 70 % 1024,0 hPa 0,0 l/m 12,2 km/h (2 Bft) SW 233 2 min 3,6 UV-I 760 W/m 9,8 C 12,4 C 19,3 km/h (3 Bft)
26.05.2022 11:28 15,2 C 18,9 C 68 % 1024,1 hPa 0,0 l/m 16,4 km/h (3 Bft) S-SW 199 2 min 5,2 UV-I 877 W/m 9,3 C 11,0 C 24,1 km/h (4 Bft)
26.05.2022 11:30 15,1 C 20,0 C 67 % 1024,1 hPa 0,0 l/m 14,5 km/h (3 Bft) SW 221 2 min 5,5 UV-I 930 W/m 9,0 C 11,5 C 20,9 km/h (4 Bft)
26.05.2022 11:32 15,2 C 18,9 C 69 % 1024,1 hPa 0,0 l/m 15,8 km/h (3 Bft) SW 236 2 min 3,2 UV-I 491 W/m 9,6 C 11,2 C 22,5 km/h (4 Bft)
26.05.2022 11:34 15,1 C 18,3 C 69 % 1024,1 hPa 0,0 l/m 10,8 km/h (2 Bft) W-SW 257 2 min 3,4 UV-I 418 W/m 9,5 C 12,9 C 20,9 km/h (4 Bft)
26.05.2022 11:36 15,1 C 17,2 C 70 % 1024,2 hPa 0,0 l/m 11,6 km/h (2 Bft) SW 234 2 min 2,3 UV-I 348 W/m 9,7 C 12,5 C 25,7 km/h (4 Bft)
26.05.2022 11:38 14,8 C 16,7 C 70 % 1024,2 hPa 0,0 l/m 14,7 km/h (3 Bft) W-SW 238 0 min 2,4 UV-I 307 W/m 9,4 C 11,1 C 20,9 km/h (4 Bft)
26.05.2022 11:40 14,7 C 16,1 C 70 % 1024,2 hPa 0,0 l/m 13,9 km/h (3 Bft) W-SW 242 0 min 2,6 UV-I 298 W/m 9,3 C 11,2 C 24,1 km/h (4 Bft)
26.05.2022 11:42 14,6 C 16,7 C 71 % 1024,2 hPa 0,0 l/m 14,7 km/h (3 Bft) SW 236 2 min 3,4 UV-I 347 W/m 9,4 C 10,8 C 24,1 km/h (4 Bft)
26.05.2022 11:44 14,7 C 17,2 C 72 % 1024,3 hPa 0,0 l/m 12,0 km/h (2 Bft) SW 232 2 min 5,0 UV-I 367 W/m 9,7 C 11,9 C 17,7 km/h (3 Bft)
26.05.2022 11:46 14,8 C 17,8 C 70 % 1024,2 hPa 0,0 l/m 12,8 km/h (3 Bft) W-SW 254 2 min 5,1 UV-I 367 W/m 9,4 C 11,7 C 19,3 km/h (3 Bft)
26.05.2022 11:48 15,0 C 18,9 C 71 % 1024,1 hPa 0,0 l/m 9,9 km/h (2 Bft) W 265 2 min 5,9 UV-I 674 W/m 9,8 C 13,2 C 16,1 km/h (3 Bft)
26.05.2022 11:50 15,3 C 20,0 C 69 % 1024,1 hPa 0,0 l/m 12,2 km/h (2 Bft) SW 222 2 min 5,9 UV-I 825 W/m 9,6 C 12,5 C 17,7 km/h (3 Bft)
26.05.2022 11:52 15,3 C 20,0 C 69 % 1024,1 hPa 0,0 l/m 13,1 km/h (3 Bft) SW 224 2 min 5,9 UV-I 832 W/m 9,6 C 12,2 C 19,3 km/h (3 Bft)
26.05.2022 11:54 15,4 C 20,6 C 69 % 1024,1 hPa 0,0 l/m 13,0 km/h (3 Bft) W-SW 248 2 min 6,1 UV-I 891 W/m 9,7 C 12,4 C 20,9 km/h (4 Bft)
26.05.2022 11:56 15,7 C 21,1 C 69 % 1024,1 hPa 0,0 l/m 12,1 km/h (2 Bft) SW 236 2 min 6,4 UV-I 1004 W/m 10,0 C 13,0 C 19,3 km/h (3 Bft)
26.05.2022 11:58 15,8 C 20,6 C 69 % 1024,2 hPa 0,0 l/m 10,2 km/h (2 Bft) W-SW 244 2 min 4,1 UV-I 691 W/m 10,1 C 13,9 C 17,7 km/h (3 Bft)
26.05.2022 12:00 15,6 C 18,3 C 68 % 1024,1 hPa 0,0 l/m 13,2 km/h (3 Bft) SW 232 0 min 2,3 UV-I 290 W/m 9,7 C 12,5 C 19,3 km/h (3 Bft)
26.05.2022 12:02 15,3 C 17,2 C 68 % 1024,1 hPa 0,0 l/m 8,9 km/h (2 Bft) S-SO 167 0 min 2,1 UV-I 229 W/m 9,4 C 14,0 C 14,5 km/h (3 Bft)
26.05.2022 12:04 15,1 C 16,7 C 68 % 1024,2 hPa 0,0 l/m 8,2 km/h (2 Bft) W-SW 250 0 min 2,4 UV-I 218 W/m 9,2 C 14,1 C 19,3 km/h (3 Bft)
26.05.2022 12:06 15,1 C 16,7 C 69 % 1024,2 hPa 0,0 l/m 12,1 km/h (2 Bft) W-SW 238 0 min 4,5 UV-I 209 W/m 9,5 C 12,3 C 20,9 km/h (4 Bft)
26.05.2022 12:08 15,5 C 18,9 C 69 % 1024,2 hPa 0,0 l/m 8,0 km/h (2 Bft) SW 215 2 min 6,0 UV-I 818 W/m 9,8 C 14,6 C 14,5 km/h (3 Bft)
26.05.2022 12:10 16,1 C 21,1 C 69 % 1024,2 hPa 0,0 l/m 11,1 km/h (2 Bft) SW 216 2 min 6,3 UV-I 928 W/m 10,4 C 13,9 C 20,9 km/h (4 Bft)
26.05.2022 12:12 16,2 C 20,0 C 65 % 1024,3 hPa 0,0 l/m 8,8 km/h (2 Bft) W 263 2 min 5,3 UV-I 938 W/m 9,6 C 15,0 C 17,7 km/h (3 Bft)
26.05.2022 12:14 16,3 C 21,1 C 65 % 1024,2 hPa 0,0 l/m 12,6 km/h (3 Bft) S-SW 210 2 min 6,7 UV-I 970 W/m 9,7 C 13,6 C 17,7 km/h (3 Bft)
26.05.2022 12:16 16,3 C 20,6 C 64 % 1024,1 hPa 0,0 l/m 16,0 km/h (3 Bft) S-SW 198 2 min 5,0 UV-I 870 W/m 9,5 C 12,5 C 22,5 km/h (4 Bft)
26.05.2022 12:18 15,9 C 18,3 C 65 % 1024,3 hPa 0,0 l/m 14,5 km/h (3 Bft) SW 215 0 min 3,1 UV-I 265 W/m 9,3 C 12,4 C 20,9 km/h (4 Bft)
26.05.2022 12:20 15,6 C 17,2 C 66 % 1024,3 hPa 0,0 l/m 11,4 km/h (2 Bft) W-SW 239 0 min 3,1 UV-I 232 W/m 9,3 C 13,2 C 19,3 km/h (3 Bft)
26.05.2022 12:22 15,7 C 20,0 C 68 % 1024,3 hPa 0,0 l/m 13,0 km/h (3 Bft) S-SW 202 2 min 6,4 UV-I 658 W/m 9,8 C 12,7 C 20,9 km/h (4 Bft)
26.05.2022 12:24 16,1 C 20,6 C 68 % 1024,2 hPa 0,0 l/m 14,7 km/h (3 Bft) S-SW 213 2 min 5,9 UV-I 943 W/m 10,2 C 12,6 C 25,7 km/h (4 Bft)
26.05.2022 12:26 16,2 C 20,6 C 67 % 1024,4 hPa 0,0 l/m 15,5 km/h (3 Bft) W-SW 244 2 min 5,8 UV-I 911 W/m 10,1 C 12,5 C 22,5 km/h (4 Bft)
26.05.2022 12:28 16,3 C 21,1 C 67 % 1024,3 hPa 0,0 l/m 13,5 km/h (3 Bft) SW 233 2 min 6,6 UV-I 901 W/m 10,2 C 13,2 C 22,5 km/h (4 Bft)
26.05.2022 12:30 16,4 C 21,1 C 66 % 1024,4 hPa 0,0 l/m 12,9 km/h (3 Bft) SW 223 2 min 6,9 UV-I 947 W/m 10,0 C 13,6 C 20,9 km/h (4 Bft)
26.05.2022 12:32 16,7 C 22,2 C 67 % 1024,3 hPa 0,0 l/m 13,6 km/h (3 Bft) SW 230 2 min 7,0 UV-I 1016 W/m 10,5 C 13,7 C 22,5 km/h (4 Bft)
26.05.2022 12:34 16,4 C 21,1 C 64 % 1024,2 hPa 0,0 l/m 18,2 km/h (3 Bft) S-SW 202 2 min 5,7 UV-I 1041 W/m 9,6 C 12,0 C 24,1 km/h (4 Bft)
26.05.2022 12:36 16,3 C 21,1 C 66 % 1024,3 hPa 0,0 l/m 14,2 km/h (3 Bft) S 188 2 min 5,3 UV-I 1070 W/m 9,9 C 13,0 C 19,3 km/h (3 Bft)
26.05.2022 12:38 16,1 C 19,4 C 65 % 1024,3 hPa 0,0 l/m 10,3 km/h (2 Bft) W-SW 246 2 min 3,1 UV-I 357 W/m 9,5 C 14,2 C 20,9 km/h (4 Bft)
26.05.2022 12:40 16,1 C 18,3 C 65 % 1024,3 hPa 0,0 l/m 14,7 km/h (3 Bft) W-SW 258 0 min 3,6 UV-I 290 W/m 9,5 C 12,6 C 24,1 km/h (4 Bft)
26.05.2022 12:42 16,3 C 20,6 C 66 % 1024,4 hPa 0,0 l/m 14,3 km/h (3 Bft) SW 222 2 min 6,5 UV-I 797 W/m 9,9 C 13,0 C 22,5 km/h (4 Bft)
26.05.2022 12:44 16,6 C 21,7 C 65 % 1024,4 hPa 0,0 l/m 12,9 km/h (3 Bft) SW 234 2 min 6,8 UV-I 920 W/m 10,0 C 13,8 C 19,3 km/h (3 Bft)
26.05.2022 12:46 16,6 C 22,2 C 64 % 1024,2 hPa 0,0 l/m 11,2 km/h (2 Bft) W-SW 250 2 min 6,8 UV-I 923 W/m 9,8 C 14,4 C 17,7 km/h (3 Bft)
26.05.2022 12:48 16,8 C 22,2 C 62 % 1024,2 hPa 0,0 l/m 9,4 km/h (2 Bft) S 183 2 min 6,0 UV-I 983 W/m 9,5 C 15,4 C 17,7 km/h (3 Bft)
26.05.2022 12:50 16,7 C 22,2 C 65 % 1024,3 hPa 0,0 l/m 10,5 km/h (2 Bft) W-SW 258 2 min 4,8 UV-I 496 W/m 10,1 C 14,8 C 20,9 km/h (4 Bft)
26.05.2022 12:52 16,7 C 21,7 C 64 % 1024,3 hPa 0,0 l/m 13,6 km/h (3 Bft) S 190 2 min 7,0 UV-I 422 W/m 9,9 C 13,7 C 22,5 km/h (4 Bft)
26.05.2022 12:54 16,7 C 21,7 C 62 % 1024,4 hPa 0,0 l/m 15,5 km/h (3 Bft) S-SW 192 2 min 5,1 UV-I 809 W/m 9,4 C 13,1 C 22,5 km/h (4 Bft)
26.05.2022 12:56 16,6 C 20,6 C 65 % 1024,4 hPa 0,0 l/m 11,6 km/h (2 Bft) W 265 2 min 5,9 UV-I 384 W/m 10,0 C 14,3 C 19,3 km/h (3 Bft)
26.05.2022 12:58 16,9 C 22,2 C 64 % 1024,2 hPa 0,0 l/m 10,5 km/h (2 Bft) S 180 2 min 6,8 UV-I 926 W/m 10,0 C 15,0 C 19,3 km/h (3 Bft)
26.05.2022 13:00 16,9 C 21,7 C 64 % 1024,3 hPa 0,0 l/m 15,7 km/h (3 Bft) S-SW 205 2 min 5,4 UV-I 963 W/m 10,0 C 13,3 C 20,9 km/h (4 Bft)
26.05.2022 13:02 16,6 C 18,9 C 64 % 1024,3 hPa 0,0 l/m 14,2 km/h (3 Bft) SW 233 0 min 2,9 UV-I 250 W/m 9,8 C 13,4 C 27,4 km/h (4 Bft)
26.05.2022 13:04 16,3 C 17,8 C 65 % 1024,2 hPa 0,0 l/m 13,7 km/h (3 Bft) SW 232 0 min 3,0 UV-I 236 W/m 9,7 C 13,2 C 24,1 km/h (4 Bft)
26.05.2022 13:06 15,9 C 17,2 C 66 % 1024,4 hPa 0,0 l/m 10,6 km/h (2 Bft) W-SW 254 0 min 3,0 UV-I 220 W/m 9,6 C 13,9 C 17,7 km/h (3 Bft)
26.05.2022 13:08 15,8 C 18,3 C 67 % 1024,4 hPa 0,0 l/m 12,2 km/h (2 Bft) S-SW 196 0 min 4,9 UV-I 263 W/m 9,7 C 13,1 C 20,9 km/h (4 Bft)
26.05.2022 13:10 16,2 C 21,1 C 69 % 1024,3 hPa 0,0 l/m 12,3 km/h (3 Bft) S-SW 201 2 min 6,8 UV-I 718 W/m 10,5 C 13,5 C 19,3 km/h (3 Bft)
26.05.2022 13:12 16,6 C 21,7 C 66 % 1024,3 hPa 0,0 l/m 9,6 km/h (2 Bft) W 280 2 min 6,7 UV-I 867 W/m 10,2 C 15,1 C 19,3 km/h (3 Bft)
26.05.2022 13:14 16,9 C 22,2 C 61 % 1024,3 hPa 0,0 l/m 16,3 km/h (3 Bft) W-SW 250 2 min 7,0 UV-I 883 W/m 9,3 C 13,1 C 25,7 km/h (4 Bft)
26.05.2022 13:16 17,3 C 22,8 C 63 % 1024,3 hPa 0,0 l/m 14,7 km/h (3 Bft) W-SW 252 2 min 6,8 UV-I 938 W/m 10,2 C 14,1 C 19,3 km/h (3 Bft)
26.05.2022 13:18 17,2 C 21,7 C 62 % 1024,2 hPa 0,0 l/m 14,8 km/h (3 Bft) SW 215 2 min 5,0 UV-I 998 W/m 9,9 C 13,9 C 20,9 km/h (4 Bft)
26.05.2022 13:20 16,9 C 21,7 C 62 % 1024,3 hPa 0,0 l/m 16,7 km/h (3 Bft) W 261 2 min 6,7 UV-I 1049 W/m 9,6 C 13,0 C 25,7 km/h (4 Bft)
26.05.2022 13:22 17,0 C 20,6 C 64 % 1024,3 hPa 0,0 l/m 16,1 km/h (3 Bft) W 279 2 min 4,2 UV-I 1137 W/m 10,1 C 13,3 C 25,7 km/h (4 Bft)
26.05.2022 13:24 16,7 C 20,0 C 63 % 1024,3 hPa 0,0 l/m 16,8 km/h (3 Bft) N-NW 334 2 min 5,1 UV-I 1137 W/m 9,6 C 12,7 C 24,1 km/h (4 Bft)
26.05.2022 13:26 16,7 C 21,1 C 64 % 1024,3 hPa 0,0 l/m 16,1 km/h (3 Bft) W 268 2 min 6,4 UV-I 960 W/m 9,9 C 12,9 C 27,4 km/h (4 Bft)
26.05.2022 13:28 16,7 C 21,7 C 64 % 1024,2 hPa 0,0 l/m 14,6 km/h (3 Bft) SW 225 2 min 6,9 UV-I 906 W/m 9,9 C 13,4 C 22,5 km/h (4 Bft)
26.05.2022 13:30 16,9 C 22,8 C 65 % 1024,3 hPa 0,0 l/m 8,5 km/h (2 Bft) SW 223 2 min 7,0 UV-I 918 W/m 10,3 C 15,9 C 14,5 km/h (3 Bft)
26.05.2022 13:32 17,1 C 22,8 C 65 % 1024,3 hPa 0,0 l/m 14,0 km/h (3 Bft) S-SW 198 2 min 6,8 UV-I 884 W/m 10,5 C 14,0 C 22,5 km/h (4 Bft)
26.05.2022 13:34 17,2 C 22,8 C 61 % 1024,3 hPa 0,0 l/m 20,3 km/h (4 Bft) S 188 2 min 6,9 UV-I 896 W/m 9,6 C 12,5 C 29,0 km/h (5 Bft)
26.05.2022 13:36 17,2 C 22,8 C 62 % 1024,2 hPa 0,0 l/m 14,0 km/h (3 Bft) W-SW 249 2 min 7,0 UV-I 920 W/m 9,9 C 14,2 C 22,5 km/h (4 Bft)
26.05.2022 13:38 17,2 C 23,3 C 60 % 1024,2 hPa 0,0 l/m 14,7 km/h (3 Bft) SW 217 2 min 7,1 UV-I 954 W/m 9,4 C 13,9 C 24,1 km/h (4 Bft)
26.05.2022 13:40 17,3 C 23,3 C 59 % 1024,3 hPa 0,0 l/m 15,4 km/h (3 Bft) W 278 2 min 7,2 UV-I 1006 W/m 9,2 C 13,9 C 24,1 km/h (4 Bft)
26.05.2022 13:42 17,5 C 23,9 C 60 % 1024,4 hPa 0,0 l/m 13,7 km/h (3 Bft) W 270 2 min 7,2 UV-I 1053 W/m 9,6 C 14,6 C 19,3 km/h (3 Bft)
26.05.2022 13:44 18,0 C 24,4 C 63 % 1024,3 hPa 0,0 l/m 12,2 km/h (2 Bft) W-NW 298 2 min 7,4 UV-I 1087 W/m 10,8 C 15,7 C 22,5 km/h (4 Bft)
26.05.2022 13:46 18,2 C 23,9 C 61 % 1024,4 hPa 0,0 l/m 16,1 km/h (3 Bft) W 259 2 min 5,7 UV-I 1031 W/m 10,6 C 14,8 C 27,4 km/h (4 Bft)
26.05.2022 13:48 17,7 C 20,6 C 61 % 1024,5 hPa 0,0 l/m 13,0 km/h (3 Bft) S-SW 209 2 min 3,2 UV-I 354 W/m 10,1 C 15,1 C 22,5 km/h (4 Bft)
26.05.2022 13:50 17,2 C 19,4 C 61 % 1024,4 hPa 0,0 l/m 11,3 km/h (2 Bft) SW 219 0 min 4,0 UV-I 285 W/m 9,6 C 15,1 C 17,7 km/h (3 Bft)
26.05.2022 13:52 16,9 C 21,1 C 63 % 1024,5 hPa 0,0 l/m 11,9 km/h (2 Bft) SW 217 2 min 6,3 UV-I 388 W/m 9,8 C 14,5 C 22,5 km/h (4 Bft)
26.05.2022 13:54 17,1 C 21,7 C 63 % 1024,5 hPa 0,0 l/m 11,1 km/h (2 Bft) S-SW 194 2 min 6,8 UV-I 838 W/m 10,0 C 15,0 C 17,7 km/h (3 Bft)
26.05.2022 13:56 17,4 C 22,8 C 62 % 1024,4 hPa 0,0 l/m 11,3 km/h (2 Bft) W-SW 242 2 min 6,8 UV-I 885 W/m 10,0 C 15,3 C 17,7 km/h (3 Bft)
26.05.2022 13:58 17,4 C 23,3 C 60 % 1024,4 hPa 0,0 l/m 16,7 km/h (3 Bft) W 267 2 min 6,8 UV-I 885 W/m 9,6 C 13,6 C 27,4 km/h (4 Bft)
26.05.2022 14:00 17,7 C 23,9 C 61 % 1024,5 hPa 0,0 l/m 7,9 km/h (2 Bft) S-SW 210 2 min 6,8 UV-I 886 W/m 10,1 C 17,0 C 11,3 km/h (2 Bft)
26.05.2022 14:02 17,8 C 23,9 C 59 % 1024,4 hPa 0,0 l/m 13,4 km/h (3 Bft) S-SW 195 2 min 6,9 UV-I 901 W/m 9,7 C 15,1 C 20,9 km/h (4 Bft)
26.05.2022 14:04 17,6 C 23,3 C 60 % 1024,4 hPa 0,0 l/m 13,6 km/h (3 Bft) W 262 2 min 6,3 UV-I 902 W/m 9,7 C 14,8 C 20,9 km/h (4 Bft)
26.05.2022 14:06 17,8 C 23,9 C 60 % 1024,4 hPa 0,0 l/m 11,6 km/h (2 Bft) S-SW 207 2 min 6,5 UV-I 913 W/m 9,9 C 15,6 C 19,3 km/h (3 Bft)
26.05.2022 14:08 17,8 C 23,9 C 59 % 1024,4 hPa 0,0 l/m 14,3 km/h (3 Bft) SW 223 2 min 7,1 UV-I 931 W/m 9,7 C 14,8 C 22,5 km/h (4 Bft)
26.05.2022 14:10 17,6 C 23,9 C 59 % 1024,3 hPa 0,0 l/m 16,4 km/h (3 Bft) W-SW 241 2 min 7,2 UV-I 1004 W/m 9,5 C 14,0 C 24,1 km/h (4 Bft)
26.05.2022 14:12 17,7 C 22,8 C 59 % 1024,3 hPa 0,0 l/m 14,2 km/h (3 Bft) SW 234 2 min 7,1 UV-I 998 W/m 9,6 C 14,7 C 20,9 km/h (4 Bft)
26.05.2022 14:14 17,5 C 22,8 C 60 % 1024,3 hPa 0,0 l/m 17,0 km/h (3 Bft) SW 223 2 min 6,6 UV-I 508 W/m 9,6 C 13,7 C 24,1 km/h (4 Bft)
26.05.2022 14:16 17,3 C 21,7 C 58 % 1024,2 hPa 0,0 l/m 18,8 km/h (3 Bft) S 178 2 min 5,8 UV-I 1007 W/m 9,0 C 13,0 C 30,6 km/h (5 Bft)
26.05.2022 14:18 17,2 C 22,2 C 62 % 1024,3 hPa 0,0 l/m 15,9 km/h (3 Bft) SW 228 2 min 6,9 UV-I 1007 W/m 9,9 C 13,6 C 25,7 km/h (4 Bft)
26.05.2022 14:20 17,7 C 23,3 C 62 % 1024,3 hPa 0,0 l/m 12,0 km/h (2 Bft) SW 231 2 min 6,2 UV-I 964 W/m 10,3 C 15,4 C 20,9 km/h (4 Bft)
26.05.2022 14:22 17,5 C 21,1 C 61 % 1024,3 hPa 0,0 l/m 13,9 km/h (3 Bft) S-SW 210 2 min 3,6 UV-I 445 W/m 9,9 C 14,5 C 22,5 km/h (4 Bft)
26.05.2022 14:24 17,3 C 21,7 C 63 % 1024,3 hPa 0,0 l/m 13,5 km/h (3 Bft) SW 229 2 min 5,0 UV-I 380 W/m 10,2 C 14,4 C 22,5 km/h (4 Bft)
26.05.2022 14:26 17,4 C 21,7 C 61 % 1024,3 hPa 0,0 l/m 13,7 km/h (3 Bft) S-SW 209 2 min 5,0 UV-I 381 W/m 9,8 C 14,5 C 22,5 km/h (4 Bft)
26.05.2022 14:28 17,3 C 22,2 C 63 % 1024,3 hPa 0,0 l/m 11,0 km/h (2 Bft) SW 225 2 min 6,0 UV-I 381 W/m 10,2 C 15,3 C 19,3 km/h (3 Bft)
26.05.2022 14:30 17,6 C 23,3 C 62 % 1024,3 hPa 0,0 l/m 14,6 km/h (3 Bft) S-SW 195 2 min 6,8 UV-I 902 W/m 10,2 C 14,5 C 24,1 km/h (4 Bft)
26.05.2022 14:32 17,5 C 23,3 C 59 % 1024,4 hPa 0,0 l/m 17,4 km/h (3 Bft) S 188 2 min 5,1 UV-I 900 W/m 9,4 C 13,6 C 29,0 km/h (5 Bft)
26.05.2022 14:34 17,3 C 22,2 C 58 % 1024,3 hPa 0,0 l/m 16,3 km/h (3 Bft) S 190 2 min 6,6 UV-I 910 W/m 9,0 C 13,6 C 19,3 km/h (3 Bft)
26.05.2022 14:36 17,4 C 23,3 C 59 % 1024,2 hPa 0,0 l/m 16,5 km/h (3 Bft) S-SW 200 2 min 6,5 UV-I 899 W/m 9,3 C 13,7 C 24,1 km/h (4 Bft)
26.05.2022 14:38 17,4 C 22,8 C 60 % 1024,2 hPa 0,0 l/m 12,3 km/h (3 Bft) SW 215 2 min 5,7 UV-I 919 W/m 9,6 C 14,9 C 19,3 km/h (3 Bft)
26.05.2022 14:40 17,7 C 22,8 C 60 % 1024,3 hPa 0,0 l/m 14,0 km/h (3 Bft) SW 233 2 min 4,4 UV-I 932 W/m 9,8 C 14,8 C 24,1 km/h (4 Bft)
26.05.2022 14:42 17,6 C 21,7 C 58 % 1024,2 hPa 0,0 l/m 10,0 km/h (2 Bft) SW 215 2 min 4,4 UV-I 852 W/m 9,2 C 16,0 C 20,9 km/h (4 Bft)
26.05.2022 14:44 17,3 C 21,1 C 60 % 1024,2 hPa 0,0 l/m 12,4 km/h (3 Bft) S-SW 205 0 min 4,7 UV-I 339 W/m 9,5 C 14,8 C 19,3 km/h (3 Bft)
26.05.2022 14:46 17,5 C 21,1 C 61 % 1024,2 hPa 0,0 l/m 15,9 km/h (3 Bft) W-NW 286 2 min 4,0 UV-I 471 W/m 9,9 C 14,0 C 27,4 km/h (4 Bft)
26.05.2022 14:48 17,6 C 22,2 C 61 % 1024,2 hPa 0,0 l/m 15,5 km/h (3 Bft) W-SW 247 2 min 5,7 UV-I 471 W/m 10,0 C 14,2 C 22,5 km/h (4 Bft)
26.05.2022 14:50 17,8 C 23,3 C 60 % 1024,1 hPa 0,0 l/m 15,3 km/h (3 Bft) W 273 2 min 6,3 UV-I 798 W/m 9,9 C 14,5 C 29,0 km/h (5 Bft)
26.05.2022 14:52 18,1 C 23,9 C 59 % 1024,2 hPa 0,0 l/m 12,4 km/h (3 Bft) SW 233 2 min 6,1 UV-I 911 W/m 10,0 C 15,7 C 29,0 km/h (5 Bft)
26.05.2022 14:54 18,3 C 24,4 C 58 % 1024,2 hPa 0,0 l/m 11,6 km/h (2 Bft) W-SW 244 2 min 6,3 UV-I 892 W/m 9,9 C 16,2 C 22,5 km/h (4 Bft)
26.05.2022 14:56 18,3 C 24,4 C 58 % 1024,1 hPa 0,0 l/m 12,3 km/h (3 Bft) SW 231 2 min 6,4 UV-I 919 W/m 9,9 C 16,0 C 20,9 km/h (4 Bft)
26.05.2022 14:58 18,4 C 25,0 C 58 % 1024,2 hPa 0,0 l/m 14,2 km/h (3 Bft) SW 217 2 min 6,5 UV-I 915 W/m 10,0 C 15,5 C 20,9 km/h (4 Bft)
26.05.2022 15:00 18,4 C 25,0 C 59 % 1024,1 hPa 0,0 l/m 12,7 km/h (3 Bft) W-SW 256 2 min 6,4 UV-I 891 W/m 10,2 C 16,0 C 22,5 km/h (4 Bft)
26.05.2022 15:02 18,3 C 24,4 C 58 % 1024,1 hPa 0,0 l/m 14,8 km/h (3 Bft) S-SW 193 2 min 6,2 UV-I 857 W/m 9,9 C 15,2 C 20,9 km/h (4 Bft)
26.05.2022 15:04 18,1 C 23,9 C 59 % 1024,0 hPa 0,0 l/m 8,8 km/h (2 Bft) W 260 2 min 6,2 UV-I 840 W/m 10,0 C 17,0 C 14,5 km/h (3 Bft)
26.05.2022 15:06 18,1 C 23,9 C 60 % 1023,9 hPa 0,0 l/m 13,5 km/h (3 Bft) S 181 2 min 5,9 UV-I 831 W/m 10,2 C 15,4 C 20,9 km/h (4 Bft)
26.05.2022 15:08 17,9 C 22,2 C 59 % 1024,0 hPa 0,0 l/m 12,8 km/h (3 Bft) W-SW 237 2 min 3,5 UV-I 831 W/m 9,8 C 15,4 C 20,9 km/h (4 Bft)
26.05.2022 15:10 18,2 C 23,9 C 60 % 1023,9 hPa 0,0 l/m 11,9 km/h (2 Bft) W-SW 244 2 min 5,8 UV-I 883 W/m 10,3 C 16,0 C 19,3 km/h (3 Bft)
26.05.2022 15:12 18,4 C 24,4 C 59 % 1023,9 hPa 0,0 l/m 19,3 km/h (3 Bft) SW 236 2 min 6,4 UV-I 953 W/m 10,2 C 14,3 C 30,6 km/h (5 Bft)
26.05.2022 15:14 18,7 C 25,0 C 57 % 1024,0 hPa 0,0 l/m 18,1 km/h (3 Bft) S 188 2 min 6,5 UV-I 990 W/m 10,0 C 14,9 C 29,0 km/h (5 Bft)
26.05.2022 15:16 18,6 C 25,0 C 59 % 1024,0 hPa 0,0 l/m 15,2 km/h (3 Bft) S-SW 207 2 min 6,5 UV-I 981 W/m 10,4 C 15,5 C 27,4 km/h (4 Bft)
26.05.2022 15:18 18,4 C 25,0 C 58 % 1024,0 hPa 0,0 l/m 17,0 km/h (3 Bft) SW 220 2 min 6,4 UV-I 960 W/m 10,0 C 14,8 C 29,0 km/h (5 Bft)
26.05.2022 15:20 18,4 C 25,0 C 58 % 1024,0 hPa 0,0 l/m 11,3 km/h (2 Bft) S-SW 206 2 min 6,3 UV-I 973 W/m 10,0 C 16,4 C 19,3 km/h (3 Bft)
26.05.2022 15:22 18,3 C 23,3 C 57 % 1024,1 hPa 0,0 l/m 12,7 km/h (3 Bft) S-SW 198 2 min 4,1 UV-I 727 W/m 9,6 C 15,9 C 19,3 km/h (3 Bft)
26.05.2022 15:24 18,1 C 23,3 C 59 % 1024,0 hPa 0,0 l/m 15,8 km/h (3 Bft) S-SW 199 2 min 6,0 UV-I 467 W/m 10,0 C 14,7 C 22,5 km/h (4 Bft)
26.05.2022 15:26 18,0 C 21,7 C 58 % 1024,1 hPa 0,0 l/m 15,8 km/h (3 Bft) W-SW 248 2 min 3,4 UV-I 365 W/m 9,6 C 14,6 C 27,4 km/h (4 Bft)
26.05.2022 15:28 17,7 C 21,7 C 58 % 1023,9 hPa 0,0 l/m 11,1 km/h (2 Bft) W 265 2 min 3,9 UV-I 384 W/m 9,3 C 15,7 C 16,1 km/h (3 Bft)
26.05.2022 15:30 18,0 C 23,3 C 58 % 1023,9 hPa 0,0 l/m 11,2 km/h (2 Bft) S 187 2 min 5,5 UV-I 1007 W/m 9,6 C 16,0 C 16,1 km/h (3 Bft)
26.05.2022 15:32 18,1 C 21,7 C 58 % 1023,9 hPa 0,0 l/m 15,1 km/h (3 Bft) SW 214 2 min 4,1 UV-I 490 W/m 9,7 C 14,9 C 20,9 km/h (4 Bft)
26.05.2022 15:34 17,9 C 21,7 C 57 % 1023,9 hPa 0,0 l/m 13,0 km/h (3 Bft) S-SO 160 0 min 4,6 UV-I 339 W/m 9,3 C 15,3 C 17,7 km/h (3 Bft)
26.05.2022 15:36 17,8 C 20,6 C 58 % 1023,9 hPa 0,0 l/m 11,0 km/h (2 Bft) S-SW 196 0 min 3,4 UV-I 309 W/m 9,4 C 15,8 C 19,3 km/h (3 Bft)
26.05.2022 15:38 17,8 C 22,2 C 59 % 1023,9 hPa 0,0 l/m 13,2 km/h (3 Bft) S-SW 205 2 min 5,7 UV-I 513 W/m 9,7 C 15,1 C 20,9 km/h (4 Bft)
26.05.2022 15:40 17,9 C 21,7 C 58 % 1023,9 hPa 0,0 l/m 18,5 km/h (3 Bft) S-SW 198 2 min 4,8 UV-I 913 W/m 9,5 C 13,8 C 29,0 km/h (5 Bft)
26.05.2022 15:42 17,9 C 23,3 C 57 % 1023,8 hPa 0,0 l/m 15,7 km/h (3 Bft) S-SW 209 2 min 5,9 UV-I 928 W/m 9,3 C 14,5 C 25,7 km/h (4 Bft)
26.05.2022 15:44 18,2 C 24,4 C 57 % 1023,8 hPa 0,0 l/m 16,3 km/h (3 Bft) S-SW 194 2 min 5,9 UV-I 899 W/m 9,5 C 14,7 C 27,4 km/h (4 Bft)
26.05.2022 15:46 18,2 C 23,9 C 56 % 1023,8 hPa 0,0 l/m 15,3 km/h (3 Bft) S-SW 196 2 min 5,5 UV-I 828 W/m 9,3 C 15,0 C 25,7 km/h (4 Bft)
26.05.2022 15:48 18,2 C 23,3 C 58 % 1023,7 hPa 0,0 l/m 13,3 km/h (3 Bft) S-SW 213 2 min 4,1 UV-I 572 W/m 9,8 C 15,6 C 20,9 km/h (4 Bft)
26.05.2022 15:50 18,3 C 24,4 C 58 % 1023,6 hPa 0,0 l/m 13,3 km/h (3 Bft) S 186 2 min 5,6 UV-I 761 W/m 9,9 C 15,7 C 24,1 km/h (4 Bft)
26.05.2022 15:52 18,3 C 24,4 C 57 % 1023,7 hPa 0,0 l/m 17,9 km/h (3 Bft) SW 215 2 min 5,4 UV-I 806 W/m 9,6 C 14,5 C 25,7 km/h (4 Bft)
26.05.2022 15:54 18,4 C 24,4 C 58 % 1023,5 hPa 0,0 l/m 17,1 km/h (3 Bft) S-SW 209 2 min 5,4 UV-I 810 W/m 10,0 C 14,8 C 24,1 km/h (4 Bft)
26.05.2022 15:56 18,4 C 24,4 C 58 % 1023,7 hPa 0,0 l/m 17,8 km/h (3 Bft) S 183 2 min 5,3 UV-I 789 W/m 10,0 C 14,6 C 30,6 km/h (5 Bft)
26.05.2022 15:58 18,3 C 24,4 C 58 % 1023,6 hPa 0,0 l/m 15,7 km/h (3 Bft) SW 217 2 min 5,3 UV-I 783 W/m 9,9 C 15,0 C 29,0 km/h (5 Bft)
26.05.2022 16:00 18,3 C 24,4 C 58 % 1023,5 hPa 0,0 l/m 17,9 km/h (3 Bft) S 184 2 min 5,2 UV-I 783 W/m 9,9 C 14,5 C 24,1 km/h (4 Bft)
26.05.2022 16:02 18,2 C 23,9 C 57 % 1023,5 hPa 0,0 l/m 15,9 km/h (3 Bft) S-SW 194 2 min 5,1 UV-I 770 W/m 9,5 C 14,8 C 25,7 km/h (4 Bft)
26.05.2022 16:04 18,3 C 24,4 C 59 % 1023,6 hPa 0,0 l/m 14,5 km/h (3 Bft) S 180 2 min 5,0 UV-I 758 W/m 10,1 C 15,3 C 22,5 km/h (4 Bft)
26.05.2022 16:06 18,4 C 24,4 C 58 % 1023,6 hPa 0,0 l/m 15,8 km/h (3 Bft) S-SW 201 2 min 4,9 UV-I 723 W/m 10,0 C 15,1 C 25,7 km/h (4 Bft)
26.05.2022 16:08 18,5 C 23,9 C 58 % 1023,4 hPa 0,0 l/m 14,4 km/h (3 Bft) SW 227 2 min 4,9 UV-I 730 W/m 10,1 C 15,6 C 20,9 km/h (4 Bft)
26.05.2022 16:10 18,4 C 23,9 C 58 % 1023,3 hPa 0,0 l/m 11,2 km/h (2 Bft) W-SW 256 2 min 4,9 UV-I 761 W/m 10,0 C 16,5 C 17,7 km/h (3 Bft)
26.05.2022 16:12 18,7 C 25,0 C 57 % 1023,4 hPa 0,0 l/m 13,6 km/h (3 Bft) S-SW 198 2 min 5,0 UV-I 788 W/m 10,0 C 16,1 C 22,5 km/h (4 Bft)
26.05.2022 16:14 18,8 C 25,6 C 58 % 1023,3 hPa 0,0 l/m 14,6 km/h (3 Bft) W-SW 239 2 min 5,1 UV-I 790 W/m 10,4 C 15,9 C 19,3 km/h (3 Bft)
26.05.2022 16:16 19,0 C 25,6 C 58 % 1023,4 hPa 0,0 l/m 11,9 km/h (2 Bft) W 259 2 min 5,0 UV-I 768 W/m 10,5 C 16,9 C 24,1 km/h (4 Bft)
26.05.2022 16:18 19,1 C 25,6 C 57 % 1023,3 hPa 0,0 l/m 16,1 km/h (3 Bft) W-SW 251 2 min 4,9 UV-I 764 W/m 10,4 C 15,9 C 24,1 km/h (4 Bft)
26.05.2022 16:20 19,2 C 25,6 C 58 % 1023,3 hPa 0,0 l/m 13,9 km/h (3 Bft) SW 228 2 min 4,9 UV-I 774 W/m 10,7 C 16,6 C 22,5 km/h (4 Bft)
26.05.2022 16:22 18,9 C 25,0 C 56 % 1023,3 hPa 0,0 l/m 16,8 km/h (3 Bft) W-SW 244 2 min 4,9 UV-I 773 W/m 9,9 C 15,5 C 27,4 km/h (4 Bft)
26.05.2022 16:24 18,8 C 24,4 C 58 % 1023,3 hPa 0,0 l/m 13,2 km/h (3 Bft) W-SW 238 2 min 4,8 UV-I 770 W/m 10,4 C 16,3 C 19,3 km/h (3 Bft)
26.05.2022 16:26 18,9 C 25,0 C 58 % 1023,3 hPa 0,0 l/m 13,9 km/h (3 Bft) S-SW 204 2 min 4,9 UV-I 798 W/m 10,5 C 16,2 C 25,7 km/h (4 Bft)
26.05.2022 16:28 19,1 C 25,6 C 58 % 1023,4 hPa 0,0 l/m 16,0 km/h (3 Bft) S-SW 194 2 min 4,9 UV-I 822 W/m 10,6 C 15,9 C 29,0 km/h (5 Bft)
26.05.2022 16:30 18,9 C 25,0 C 56 % 1023,3 hPa 0,0 l/m 13,9 km/h (3 Bft) S-SW 211 2 min 4,9 UV-I 823 W/m 9,9 C 16,2 C 24,1 km/h (4 Bft)
26.05.2022 16:32 18,9 C 25,0 C 57 % 1023,3 hPa 0,0 l/m 14,4 km/h (3 Bft) S-SW 211 2 min 4,7 UV-I 792 W/m 10,2 C 16,1 C 25,7 km/h (4 Bft)
26.05.2022 16:34 18,7 C 22,8 C 57 % 1023,3 hPa 0,0 l/m 15,3 km/h (3 Bft) S 186 2 min 2,7 UV-I 444 W/m 10,0 C 15,6 C 25,7 km/h (4 Bft)
26.05.2022 16:36 18,2 C 21,7 C 57 % 1023,3 hPa 0,0 l/m 19,2 km/h (3 Bft) S-SW 213 0 min 3,2 UV-I 236 W/m 9,5 C 14,1 C 25,7 km/h (4 Bft)
26.05.2022 16:38 18,2 C 23,3 C 60 % 1023,4 hPa 0,0 l/m 11,9 km/h (2 Bft) W-SW 250 0 min 4,2 UV-I 236 W/m 10,3 C 16,0 C 17,7 km/h (3 Bft)
26.05.2022 16:40 18,2 C 22,2 C 58 % 1023,3 hPa 0,0 l/m 18,2 km/h (3 Bft) SW 219 0 min 2,6 UV-I 245 W/m 9,8 C 14,3 C 29,0 km/h (5 Bft)
26.05.2022 16:42 17,9 C 20,0 C 59 % 1023,3 hPa 0,0 l/m 18,3 km/h (3 Bft) S 179 0 min 2,6 UV-I 281 W/m 9,8 C 13,9 C 25,7 km/h (4 Bft)
26.05.2022 16:44 17,9 C 21,1 C 60 % 1023,3 hPa 0,0 l/m 13,7 km/h (3 Bft) S-SW 208 0 min 3,5 UV-I 310 W/m 10,0 C 15,1 C 20,9 km/h (4 Bft)
26.05.2022 16:46 18,1 C 22,8 C 59 % 1023,3 hPa 0,0 l/m 15,6 km/h (3 Bft) S-SW 200 2 min 3,8 UV-I 697 W/m 10,0 C 14,8 C 22,5 km/h (4 Bft)
26.05.2022 16:48 18,2 C 22,8 C 61 % 1023,3 hPa 0,0 l/m 11,6 km/h (2 Bft) SW 219 0 min 3,3 UV-I 306 W/m 10,6 C 16,1 C 16,1 km/h (3 Bft)
26.05.2022 16:50 18,4 C 22,8 C 59 % 1023,4 hPa 0,0 l/m 17,4 km/h (3 Bft) S-SO 154 0 min 3,1 UV-I 311 W/m 10,2 C 14,7 C 25,7 km/h (4 Bft)
26.05.2022 16:52 18,2 C 21,7 C 59 % 1023,3 hPa 0,0 l/m 13,9 km/h (3 Bft) S-SW 212 2 min 2,8 UV-I 370 W/m 10,1 C 15,4 C 19,3 km/h (3 Bft)
26.05.2022 16:54 18,3 C 22,2 C 60 % 1023,4 hPa 0,0 l/m 11,2 km/h (2 Bft) S-SW 211 0 min 3,3 UV-I 336 W/m 10,4 C 16,3 C 22,5 km/h (4 Bft)
26.05.2022 16:56 18,3 C 21,1 C 59 % 1023,4 hPa 0,0 l/m 14,4 km/h (3 Bft) SW 234 0 min 2,4 UV-I 322 W/m 10,1 C 15,4 C 19,3 km/h (3 Bft)
26.05.2022 16:58 18,2 C 20,6 C 59 % 1023,4 hPa 0,0 l/m 11,6 km/h (2 Bft) SW 218 0 min 2,3 UV-I 305 W/m 10,1 C 16,1 C 16,1 km/h (3 Bft)
26.05.2022 17:00 18,2 C 20,6 C 60 % 1023,4 hPa 0,0 l/m 9,6 km/h (2 Bft) S-SW 192 0 min 2,3 UV-I 296 W/m 10,3 C 16,8 C 16,1 km/h (3 Bft)
26.05.2022 17:02 18,2 C 21,1 C 62 % 1023,5 hPa 0,0 l/m 12,1 km/h (2 Bft) S-SW 213 2 min 3,5 UV-I 369 W/m 10,8 C 15,9 C 24,1 km/h (4 Bft)
26.05.2022 17:04 18,4 C 21,7 C 61 % 1023,4 hPa 0,0 l/m 11,8 km/h (2 Bft) SW 217 0 min 2,4 UV-I 325 W/m 10,7 C 16,3 C 19,3 km/h (3 Bft)
26.05.2022 17:06 18,1 C 20,6 C 59 % 1023,4 hPa 0,0 l/m 17,2 km/h (3 Bft) W-SW 251 0 min 2,3 UV-I 288 W/m 10,0 C 14,4 C 22,5 km/h (4 Bft)
26.05.2022 17:08 17,8 C 20,0 C 60 % 1023,4 hPa 0,0 l/m 12,7 km/h (3 Bft) SW 221 0 min 2,2 UV-I 250 W/m 9,9 C 15,3 C 17,7 km/h (3 Bft)
26.05.2022 17:10 17,7 C 19,4 C 61 % 1023,3 hPa 0,0 l/m 14,7 km/h (3 Bft) SW 217 0 min 2,2 UV-I 297 W/m 10,1 C 14,5 C 20,9 km/h (4 Bft)
26.05.2022 17:12 17,8 C 21,7 C 61 % 1023,3 hPa 0,0 l/m 15,6 km/h (3 Bft) SW 229 2 min 3,5 UV-I 483 W/m 10,2 C 14,4 C 25,7 km/h (4 Bft)
26.05.2022 17:14 17,9 C 22,2 C 61 % 1023,3 hPa 0,0 l/m 12,7 km/h (3 Bft) S-SW 210 2 min 3,1 UV-I 568 W/m 10,3 C 15,4 C 19,3 km/h (3 Bft)
26.05.2022 17:16 18,2 C 23,9 C 61 % 1023,4 hPa 0,0 l/m 11,9 km/h (2 Bft) S 191 2 min 3,6 UV-I 600 W/m 10,6 C 16,0 C 17,7 km/h (3 Bft)
26.05.2022 17:18 18,4 C 23,9 C 61 % 1023,3 hPa 0,0 l/m 13,5 km/h (3 Bft) SW 214 2 min 3,5 UV-I 655 W/m 10,7 C 15,7 C 19,3 km/h (3 Bft)
26.05.2022 17:20 18,4 C 23,9 C 60 % 1023,2 hPa 0,0 l/m 15,8 km/h (3 Bft) S-SW 196 2 min 3,4 UV-I 655 W/m 10,5 C 15,1 C 25,7 km/h (4 Bft)
26.05.2022 17:22 18,4 C 23,9 C 61 % 1023,2 hPa 0,0 l/m 11,7 km/h (2 Bft) W 259 2 min 2,9 UV-I 650 W/m 10,7 C 16,3 C 20,9 km/h (4 Bft)
26.05.2022 17:24 18,4 C 23,9 C 59 % 1023,3 hPa 0,0 l/m 15,3 km/h (3 Bft) S-SW 196 2 min 3,1 UV-I 635 W/m 10,2 C 15,2 C 22,5 km/h (4 Bft)
26.05.2022 17:26 18,3 C 23,3 C 60 % 1023,2 hPa 0,0 l/m 11,1 km/h (2 Bft) S-SW 199 2 min 2,3 UV-I 635 W/m 10,4 C 16,4 C 17,7 km/h (3 Bft)
26.05.2022 17:28 18,1 C 21,1 C 60 % 1023,3 hPa 0,0 l/m 13,8 km/h (3 Bft) S 188 0 min 2,0 UV-I 333 W/m 10,2 C 15,3 C 20,9 km/h (4 Bft)
26.05.2022 17:30 17,8 C 20,0 C 61 % 1023,3 hPa 0,0 l/m 11,0 km/h (2 Bft) SW 215 0 min 2,0 UV-I 216 W/m 10,2 C 15,8 C 19,3 km/h (3 Bft)
26.05.2022 17:32 17,8 C 21,1 C 62 % 1023,3 hPa 0,0 l/m 14,3 km/h (3 Bft) S-SW 213 2 min 2,2 UV-I 425 W/m 10,4 C 14,8 C 25,7 km/h (4 Bft)
26.05.2022 17:34 17,8 C 20,0 C 62 % 1023,3 hPa 0,0 l/m 14,4 km/h (3 Bft) W-SW 238 0 min 1,9 UV-I 331 W/m 10,4 C 14,8 C 19,3 km/h (3 Bft)
26.05.2022 17:36 17,7 C 20,6 C 62 % 1023,4 hPa 0,0 l/m 14,7 km/h (3 Bft) S-SW 197 0 min 2,4 UV-I 244 W/m 10,3 C 14,5 C 22,5 km/h (4 Bft)
26.05.2022 17:38 17,9 C 22,2 C 62 % 1023,3 hPa 0,0 l/m 15,1 km/h (3 Bft) S-SW 192 2 min 3,1 UV-I 633 W/m 10,5 C 14,7 C 22,5 km/h (4 Bft)
26.05.2022 17:40 18,1 C 23,3 C 62 % 1023,3 hPa 0,0 l/m 13,6 km/h (3 Bft) SW 223 2 min 3,0 UV-I 607 W/m 10,7 C 15,3 C 20,9 km/h (4 Bft)
26.05.2022 17:42 18,3 C 23,9 C 63 % 1023,4 hPa 0,0 l/m 11,0 km/h (2 Bft) SW 223 2 min 2,7 UV-I 508 W/m 11,1 C 16,4 C 19,3 km/h (3 Bft)
26.05.2022 17:44 18,3 C 22,8 C 61 % 1023,4 hPa 0,0 l/m 14,8 km/h (3 Bft) SW 233 0 min 1,8 UV-I 305 W/m 10,6 C 15,2 C 22,5 km/h (4 Bft)
26.05.2022 17:46 18,2 C 21,1 C 61 % 1023,4 hPa 0,0 l/m 12,1 km/h (2 Bft) S-SW 203 0 min 1,7 UV-I 198 W/m 10,6 C 15,9 C 19,3 km/h (3 Bft)
26.05.2022 17:48 17,9 C 20,0 C 62 % 1023,3 hPa 0,0 l/m 11,4 km/h (2 Bft) SW 216 0 min 1,8 UV-I 247 W/m 10,5 C 15,8 C 19,3 km/h (3 Bft)
26.05.2022 17:50 17,9 C 20,0 C 63 % 1023,3 hPa 0,0 l/m 13,0 km/h (3 Bft) S-SW 212 0 min 2,0 UV-I 294 W/m 10,8 C 15,3 C 24,1 km/h (4 Bft)
26.05.2022 17:52 17,9 C 21,1 C 61 % 1023,2 hPa 0,0 l/m 13,9 km/h (3 Bft) W-SW 241 0 min 2,5 UV-I 340 W/m 10,3 C 15,0 C 24,1 km/h (4 Bft)
26.05.2022 17:54 17,9 C 21,7 C 62 % 1023,2 hPa 0,0 l/m 13,3 km/h (3 Bft) S 189 2 min 2,5 UV-I 350 W/m 10,5 C 15,2 C 17,7 km/h (3 Bft)
26.05.2022 17:56 18,0 C 22,2 C 63 % 1023,2 hPa 0,0 l/m 10,1 km/h (2 Bft) S 185 2 min 2,1 UV-I 503 W/m 10,8 C 16,4 C 16,1 km/h (3 Bft)
26.05.2022 17:58 17,9 C 20,6 C 62 % 1023,3 hPa 0,0 l/m 10,2 km/h (2 Bft) S-SW 194 0 min 1,6 UV-I 250 W/m 10,5 C 16,2 C 17,7 km/h (3 Bft)
26.05.2022 18:00 17,8 C 18,9 C 62 % 1023,2 hPa 0,0 l/m 14,9 km/h (3 Bft) SW 229 0 min 1,4 UV-I 178 W/m 10,4 C 14,6 C 29,0 km/h (5 Bft)
26.05.2022 18:02 17,7 C 18,9 C 63 % 1023,3 hPa 0,0 l/m 14,1 km/h (3 Bft) SW 230 0 min 1,3 UV-I 194 W/m 10,6 C 14,7 C 24,1 km/h (4 Bft)
26.05.2022 18:04 17,7 C 20,6 C 63 % 1023,2 hPa 0,0 l/m 12,5 km/h (3 Bft) S-SW 204 0 min 1,6 UV-I 199 W/m 10,6 C 15,2 C 19,3 km/h (3 Bft)
26.05.2022 18:06 17,8 C 21,1 C 63 % 1023,3 hPa 0,0 l/m 16,1 km/h (3 Bft) S 191 0 min 2,0 UV-I 338 W/m 10,7 C 14,3 C 24,1 km/h (4 Bft)
26.05.2022 18:08 17,8 C 21,7 C 63 % 1023,2 hPa 0,0 l/m 14,4 km/h (3 Bft) W-SW 250 2 min 1,8 UV-I 476 W/m 10,7 C 14,8 C 25,7 km/h (4 Bft)
26.05.2022 18:10 17,9 C 21,7 C 63 % 1023,2 hPa 0,0 l/m 16,4 km/h (3 Bft) S 187 2 min 1,9 UV-I 419 W/m 10,8 C 14,3 C 27,4 km/h (4 Bft)
26.05.2022 18:12 17,9 C 21,7 C 63 % 1023,3 hPa 0,0 l/m 12,4 km/h (3 Bft) S 180 2 min 1,8 UV-I 364 W/m 10,8 C 15,5 C 17,7 km/h (3 Bft)
26.05.2022 18:14 17,9 C 21,1 C 63 % 1023,1 hPa 0,0 l/m 12,5 km/h (3 Bft) S 185 0 min 1,7 UV-I 290 W/m 10,8 C 15,4 C 19,3 km/h (3 Bft)
26.05.2022 18:16 17,9 C 20,6 C 63 % 1023,1 hPa 0,0 l/m 12,9 km/h (3 Bft) S-SW 213 0 min 1,6 UV-I 235 W/m 10,8 C 15,3 C 19,3 km/h (3 Bft)
26.05.2022 18:18 17,8 C 20,6 C 63 % 1023,0 hPa 0,0 l/m 12,8 km/h (3 Bft) W-SW 244 2 min 1,6 UV-I 374 W/m 10,7 C 15,2 C 17,7 km/h (3 Bft)
26.05.2022 18:20 17,8 C 20,0 C 63 % 1023,1 hPa 0,0 l/m 14,1 km/h (3 Bft) S-SW 195 0 min 1,5 UV-I 229 W/m 10,7 C 14,8 C 25,7 km/h (4 Bft)
26.05.2022 18:22 17,7 C 20,0 C 63 % 1023,0 hPa 0,0 l/m 15,0 km/h (3 Bft) S-SW 207 2 min 1,6 UV-I 370 W/m 10,6 C 14,5 C 25,7 km/h (4 Bft)
26.05.2022 18:24 17,8 C 20,6 C 63 % 1023,0 hPa 0,0 l/m 13,6 km/h (3 Bft) W 259 2 min 1,8 UV-I 401 W/m 10,7 C 15,0 C 20,9 km/h (4 Bft)
26.05.2022 18:26 17,9 C 20,6 C 64 % 1023,0 hPa 0,0 l/m 11,9 km/h (2 Bft) SW 215 2 min 1,7 UV-I 389 W/m 11,0 C 15,6 C 19,3 km/h (3 Bft)
26.05.2022 18:28 18,1 C 20,6 C 63 % 1022,8 hPa 0,0 l/m 12,4 km/h (3 Bft) W-SW 246 2 min 1,7 UV-I 352 W/m 10,9 C 15,7 C 20,9 km/h (4 Bft)
26.05.2022 18:30 18,1 C 20,0 C 62 % 1023,0 hPa 0,0 l/m 14,7 km/h (3 Bft) S-SW 192 2 min 1,7 UV-I 366 W/m 10,7 C 15,0 C 22,5 km/h (4 Bft)
26.05.2022 18:32 18,1 C 20,0 C 63 % 1022,9 hPa 0,0 l/m 10,5 km/h (2 Bft) W 268 0 min 1,6 UV-I 333 W/m 10,9 C 16,4 C 17,7 km/h (3 Bft)
26.05.2022 18:34 17,9 C 19,4 C 63 % 1023,0 hPa 0,0 l/m 11,5 km/h (2 Bft) W-SW 252 0 min 1,5 UV-I 302 W/m 10,8 C 15,8 C 19,3 km/h (3 Bft)
26.05.2022 18:36 17,9 C 19,4 C 63 % 1022,9 hPa 0,0 l/m 15,0 km/h (3 Bft) W-SW 250 0 min 1,4 UV-I 265 W/m 10,8 C 14,7 C 24,1 km/h (4 Bft)
26.05.2022 18:38 17,8 C 18,9 C 63 % 1022,9 hPa 0,0 l/m 12,3 km/h (3 Bft) S-SW 205 0 min 1,3 UV-I 248 W/m 10,7 C 15,4 C 22,5 km/h (4 Bft)
26.05.2022 18:40 17,7 C 18,9 C 63 % 1022,8 hPa 0,0 l/m 12,8 km/h (3 Bft) W-SW 252 0 min 1,3 UV-I 258 W/m 10,6 C 15,1 C 24,1 km/h (4 Bft)
26.05.2022 18:42 17,7 C 18,9 C 64 % 1023,0 hPa 0,0 l/m 10,5 km/h (2 Bft) W 267 0 min 1,3 UV-I 258 W/m 10,8 C 15,9 C 19,3 km/h (3 Bft)
26.05.2022 18:44 17,8 C 19,4 C 65 % 1022,9 hPa 0,0 l/m 5,1 km/h (1 Bft) SW 229 0 min 1,3 UV-I 271 W/m 11,1 C 17,8 C 12,9 km/h (3 Bft)
26.05.2022 18:46 17,8 C 19,4 C 65 % 1022,9 hPa 0,0 l/m 8,8 km/h (2 Bft) S-SW 213 0 min 1,3 UV-I 265 W/m 11,1 C 16,7 C 14,5 km/h (3 Bft)
26.05.2022 18:48 17,8 C 19,4 C 64 % 1022,9 hPa 0,0 l/m 12,3 km/h (3 Bft) SW 218 0 min 1,3 UV-I 249 W/m 10,9 C 15,4 C 20,9 km/h (4 Bft)
26.05.2022 18:50 17,7 C 18,9 C 64 % 1023,0 hPa 0,0 l/m 10,4 km/h (2 Bft) SW 226 0 min 1,2 UV-I 228 W/m 10,8 C 15,9 C 19,3 km/h (3 Bft)
26.05.2022 18:52 17,6 C 18,9 C 64 % 1022,9 hPa 0,0 l/m 10,3 km/h (2 Bft) W-SW 242 0 min 1,3 UV-I 230 W/m 10,7 C 15,9 C 25,7 km/h (4 Bft)
26.05.2022 18:54 17,6 C 18,9 C 64 % 1023,0 hPa 0,0 l/m 11,5 km/h (2 Bft) S-SW 199 0 min 1,1 UV-I 175 W/m 10,7 C 15,4 C 24,1 km/h (4 Bft)
26.05.2022 18:56 17,4 C 18,3 C 64 % 1022,9 hPa 0,0 l/m 11,7 km/h (2 Bft) S-SW 198 0 min 1,0 UV-I 174 W/m 10,5 C 15,1 C 24,1 km/h (4 Bft)
26.05.2022 18:58 17,3 C 18,9 C 64 % 1023,1 hPa 0,0 l/m 13,7 km/h (3 Bft) SW 224 0 min 1,1 UV-I 185 W/m 10,4 C 14,4 C 20,9 km/h (4 Bft)
26.05.2022 19:00 17,4 C 19,4 C 64 % 1023,0 hPa 0,0 l/m 11,9 km/h (2 Bft) W-SW 237 0 min 1,0 UV-I 232 W/m 10,5 C 15,1 C 20,9 km/h (4 Bft)
26.05.2022 19:02 17,4 C 19,4 C 65 % 1023,0 hPa 0,0 l/m 9,1 km/h (2 Bft) SW 215 0 min 1,0 UV-I 244 W/m 10,8 C 16,1 C 14,5 km/h (3 Bft)
26.05.2022 19:04 17,4 C 19,4 C 65 % 1023,0 hPa 0,0 l/m 8,7 km/h (2 Bft) SW 227 0 min 1,0 UV-I 221 W/m 10,8 C 16,3 C 14,5 km/h (3 Bft)
26.05.2022 19:06 17,4 C 19,4 C 65 % 1023,1 hPa 0,0 l/m 9,3 km/h (2 Bft) W 263 0 min 1,0 UV-I 222 W/m 10,8 C 16,1 C 19,3 km/h (3 Bft)
26.05.2022 19:08 17,4 C 19,4 C 65 % 1023,0 hPa 0,0 l/m 10,1 km/h (2 Bft) W-SW 246 0 min 0,9 UV-I 210 W/m 10,8 C 15,7 C 24,1 km/h (4 Bft)
26.05.2022 19:10 17,4 C 18,9 C 65 % 1023,1 hPa 0,0 l/m 13,7 km/h (3 Bft) W-SW 255 0 min 0,8 UV-I 176 W/m 10,8 C 14,5 C 22,5 km/h (4 Bft)
26.05.2022 19:12 17,3 C 18,3 C 65 % 1023,1 hPa 0,0 l/m 11,0 km/h (2 Bft) W 265 0 min 0,8 UV-I 168 W/m 10,7 C 15,3 C 24,1 km/h (4 Bft)
26.05.2022 19:14 17,2 C 18,3 C 65 % 1023,0 hPa 0,0 l/m 15,7 km/h (3 Bft) W-SW 252 0 min 0,8 UV-I 159 W/m 10,6 C 13,7 C 25,7 km/h (4 Bft)
26.05.2022 19:16 17,1 C 17,8 C 66 % 1022,9 hPa 0,0 l/m 13,6 km/h (3 Bft) W-SW 242 0 min 0,7 UV-I 156 W/m 10,7 C 14,2 C 25,7 km/h (4 Bft)
26.05.2022 19:18 17,0 C 17,8 C 65 % 1023,0 hPa 0,0 l/m 11,2 km/h (2 Bft) W-SW 249 0 min 0,7 UV-I 150 W/m 10,4 C 14,9 C 20,9 km/h (4 Bft)
26.05.2022 19:20 17,0 C 17,8 C 66 % 1023,0 hPa 0,0 l/m 6,4 km/h (2 Bft) SW 223 0 min 0,7 UV-I 142 W/m 10,6 C 17,0 C 12,9 km/h (3 Bft)
26.05.2022 19:22 16,9 C 17,2 C 66 % 1023,1 hPa 0,0 l/m 13,3 km/h (3 Bft) SW 229 0 min 0,7 UV-I 139 W/m 10,5 C 14,0 C 24,1 km/h (4 Bft)
26.05.2022 19:24 16,8 C 17,2 C 66 % 1023,0 hPa 0,0 l/m 9,7 km/h (2 Bft) W-SW 238 0 min 0,7 UV-I 137 W/m 10,4 C 15,2 C 20,9 km/h (4 Bft)
26.05.2022 19:26 16,8 C 17,2 C 66 % 1023,0 hPa 0,0 l/m 13,8 km/h (3 Bft) S-SW 200 0 min 0,7 UV-I 131 W/m 10,4 C 13,7 C 24,1 km/h (4 Bft)
26.05.2022 19:28 16,7 C 17,2 C 67 % 1023,1 hPa 0,0 l/m 7,0 km/h (2 Bft) W-SW 244 0 min 0,7 UV-I 123 W/m 10,5 C 16,4 C 11,3 km/h (2 Bft)
26.05.2022 19:30 16,7 C 17,2 C 67 % 1023,0 hPa 0,0 l/m 14,6 km/h (3 Bft) SW 232 0 min 0,6 UV-I 122 W/m 10,5 C 13,4 C 20,9 km/h (4 Bft)
26.05.2022 19:32 16,6 C 16,7 C 67 % 1023,0 hPa 0,0 l/m 12,3 km/h (3 Bft) S-SW 210 0 min 0,6 UV-I 131 W/m 10,4 C 14,0 C 22,5 km/h (4 Bft)
26.05.2022 19:34 16,6 C 17,2 C 67 % 1023,0 hPa 0,0 l/m 10,5 km/h (2 Bft) W-SW 257 0 min 0,6 UV-I 137 W/m 10,4 C 14,7 C 19,3 km/h (3 Bft)
26.05.2022 19:36 16,6 C 17,2 C 67 % 1023,0 hPa 0,0 l/m 10,9 km/h (2 Bft) SW 214 0 min 0,6 UV-I 143 W/m 10,4 C 14,5 C 20,9 km/h (4 Bft)
26.05.2022 19:38 16,6 C 17,2 C 67 % 1023,1 hPa 0,0 l/m 7,6 km/h (2 Bft) W-SW 249 0 min 0,6 UV-I 143 W/m 10,4 C 16,0 C 14,5 km/h (3 Bft)
26.05.2022 19:40 16,5 C 17,2 C 67 % 1022,9 hPa 0,0 l/m 8,6 km/h (2 Bft) SW 222 0 min 0,6 UV-I 141 W/m 10,4 C 15,4 C 19,3 km/h (3 Bft)
26.05.2022 19:42 16,5 C 17,2 C 68 % 1022,9 hPa 0,0 l/m 10,7 km/h (2 Bft) W 279 0 min 0,6 UV-I 132 W/m 10,6 C 14,5 C 20,9 km/h (4 Bft)
26.05.2022 19:44 16,5 C 17,2 C 68 % 1023,0 hPa 0,0 l/m 11,7 km/h (2 Bft) W-SW 256 0 min 0,5 UV-I 126 W/m 10,6 C 14,1 C 20,9 km/h (4 Bft)
26.05.2022 19:46 16,4 C 16,7 C 68 % 1022,8 hPa 0,0 l/m 9,9 km/h (2 Bft) W-SW 251 0 min 0,5 UV-I 120 W/m 10,5 C 14,7 C 20,9 km/h (4 Bft)
26.05.2022 19:48 16,4 C 16,7 C 68 % 1023,0 hPa 0,0 l/m 18,5 km/h (3 Bft) W-SW 248 0 min 0,5 UV-I 114 W/m 10,5 C 11,9 C 25,7 km/h (4 Bft)
26.05.2022 19:50 16,3 C 16,7 C 68 % 1023,0 hPa 0,0 l/m 12,6 km/h (3 Bft) SW 227 0 min 0,5 UV-I 109 W/m 10,4 C 13,6 C 20,9 km/h (4 Bft)
26.05.2022 19:52 16,3 C 16,1 C 68 % 1022,9 hPa 0,0 l/m 12,7 km/h (3 Bft) S-SW 199 0 min 0,5 UV-I 105 W/m 10,4 C 13,5 C 24,1 km/h (4 Bft)
26.05.2022 19:54 16,2 C 16,1 C 69 % 1022,9 hPa 0,0 l/m 8,8 km/h (2 Bft) SW 217 0 min 0,2 UV-I 98 W/m 10,5 C 15,0 C 16,1 km/h (3 Bft)
26.05.2022 19:56 16,1 C 16,1 C 69 % 1022,9 hPa 0,0 l/m 9,8 km/h (2 Bft) S-SW 197 0 min 0,0 UV-I 94 W/m 10,4 C 14,4 C 16,1 km/h (3 Bft)
26.05.2022 19:58 16,1 C 16,1 C 69 % 1022,8 hPa 0,0 l/m 8,0 km/h (2 Bft) W 259 0 min 0,0 UV-I 88 W/m 10,4 C 15,3 C 14,5 km/h (3 Bft)
26.05.2022 20:00 16,1 C 16,1 C 69 % 1022,8 hPa 0,0 l/m 11,8 km/h (2 Bft) W-SW 254 0 min 0,0 UV-I 80 W/m 10,4 C 13,6 C 20,9 km/h (4 Bft)
26.05.2022 20:02 15,9 C 15,6 C 70 % 1022,8 hPa 0,0 l/m 10,7 km/h (2 Bft) SW 222 0 min 0,0 UV-I 75 W/m 10,4 C 13,8 C 20,9 km/h (4 Bft)
26.05.2022 20:04 15,9 C 15,6 C 70 % 1022,8 hPa 0,0 l/m 10,1 km/h (2 Bft) W-SW 252 0 min 0,0 UV-I 69 W/m 10,4 C 14,1 C 24,1 km/h (4 Bft)
26.05.2022 20:06 15,8 C 15,6 C 70 % 1022,7 hPa 0,0 l/m 9,6 km/h (2 Bft) S-SW 200 0 min 0,0 UV-I 65 W/m 10,3 C 14,2 C 19,3 km/h (3 Bft)
26.05.2022 20:08 15,8 C 15,6 C 70 % 1022,8 hPa 0,0 l/m 12,0 km/h (2 Bft) W-SW 251 0 min 0,0 UV-I 61 W/m 10,3 C 13,2 C 19,3 km/h (3 Bft)
26.05.2022 20:10 15,7 C 15,0 C 70 % 1022,8 hPa 0,0 l/m 11,8 km/h (2 Bft) S-SW 209 0 min 0,0 UV-I 59 W/m 10,2 C 13,2 C 22,5 km/h (4 Bft)
26.05.2022 20:12 15,7 C 15,0 C 71 % 1022,8 hPa 0,0 l/m 7,2 km/h (2 Bft) SW 228 0 min 0,0 UV-I 55 W/m 10,5 C 15,3 C 12,9 km/h (3 Bft)
26.05.2022 20:14 15,7 C 15,0 C 71 % 1022,8 hPa 0,0 l/m 8,6 km/h (2 Bft) S-SW 210 0 min 0,0 UV-I 54 W/m 10,5 C 14,5 C 16,1 km/h (3 Bft)
26.05.2022 20:16 15,6 C 15,0 C 71 % 1022,9 hPa 0,0 l/m 7,1 km/h (2 Bft) SW 219 0 min 0,0 UV-I 53 W/m 10,4 C 15,2 C 14,5 km/h (3 Bft)
26.05.2022 20:18 15,6 C 15,0 C 71 % 1022,9 hPa 0,0 l/m 6,5 km/h (2 Bft) SW 217 0 min 0,0 UV-I 52 W/m 10,4 C 15,6 C 9,7 km/h (2 Bft)
26.05.2022 20:20 15,5 C 15,0 C 71 % 1022,8 hPa 0,0 l/m 7,3 km/h (2 Bft) W-SW 254 0 min 0,0 UV-I 51 W/m 10,3 C 15,0 C 14,5 km/h (3 Bft)
26.05.2022 20:22 15,4 C 15,0 C 71 % 1022,7 hPa 0,0 l/m 9,4 km/h (2 Bft) S-SW 212 0 min 0,0 UV-I 51 W/m 10,2 C 13,8 C 16,1 km/h (3 Bft)
26.05.2022 20:24 15,4 C 15,0 C 71 % 1022,7 hPa 0,0 l/m 12,0 km/h (2 Bft) SW 219 0 min 0,0 UV-I 49 W/m 10,2 C 12,7 C 20,9 km/h (4 Bft)
26.05.2022 20:26 15,4 C 15,0 C 71 % 1022,5 hPa 0,0 l/m 13,3 km/h (3 Bft) SW 222 0 min 0,0 UV-I 49 W/m 10,2 C 12,3 C 19,3 km/h (3 Bft)
26.05.2022 20:28 15,4 C 15,0 C 71 % 1022,7 hPa 0,0 l/m 11,5 km/h (2 Bft) S-SW 207 0 min 0,0 UV-I 47 W/m 10,2 C 12,9 C 19,3 km/h (3 Bft)
26.05.2022 20:30 15,4 C 15,0 C 71 % 1022,7 hPa 0,0 l/m 11,0 km/h (2 Bft) SW 215 0 min 0,0 UV-I 46 W/m 10,2 C 13,1 C 17,7 km/h (3 Bft)
26.05.2022 20:32 15,3 C 15,0 C 72 % 1022,7 hPa 0,0 l/m 9,3 km/h (2 Bft) S-SW 192 0 min 0,0 UV-I 44 W/m 10,3 C 13,8 C 14,5 km/h (3 Bft)
26.05.2022 20:34 15,3 C 14,4 C 72 % 1022,8 hPa 0,0 l/m 8,6 km/h (2 Bft) SW 221 0 min 0,0 UV-I 43 W/m 10,3 C 14,1 C 12,9 km/h (3 Bft)
26.05.2022 20:36 15,3 C 14,4 C 72 % 1022,8 hPa 0,0 l/m 5,4 km/h (1 Bft) S-SW 212 0 min 0,0 UV-I 41 W/m 10,3 C 15,3 C 9,7 km/h (2 Bft)
26.05.2022 20:38 15,3 C 14,4 C 72 % 1022,9 hPa 0,0 l/m 9,0 km/h (2 Bft) S-SW 205 0 min 0,0 UV-I 39 W/m 10,3 C 13,9 C 14,5 km/h (3 Bft)
26.05.2022 20:40 15,2 C 14,4 C 72 % 1023,0 hPa 0,0 l/m 9,8 km/h (2 Bft) SW 215 0 min 0,0 UV-I 37 W/m 10,2 C 13,4 C 19,3 km/h (3 Bft)
26.05.2022 20:42 15,2 C 14,4 C 72 % 1023,1 hPa 0,0 l/m 9,0 km/h (2 Bft) W-SW 252 0 min 0,0 UV-I 34 W/m 10,2 C 13,8 C 17,7 km/h (3 Bft)
26.05.2022 20:44 15,2 C 14,4 C 72 % 1023,0 hPa 0,0 l/m 9,9 km/h (2 Bft) S-SW 210 0 min 0,0 UV-I 32 W/m 10,2 C 13,4 C 17,7 km/h (3 Bft)
26.05.2022 20:46 15,1 C 14,4 C 72 % 1023,0 hPa 0,0 l/m 9,4 km/h (2 Bft) W 273 0 min 0,0 UV-I 30 W/m 10,1 C 13,5 C 17,7 km/h (3 Bft)
26.05.2022 20:48 15,1 C 14,4 C 72 % 1022,9 hPa 0,0 l/m 9,8 km/h (2 Bft) SW 228 0 min 0,0 UV-I 29 W/m 10,1 C 13,3 C 16,1 km/h (3 Bft)
26.05.2022 20:50 15,1 C 13,9 C 73 % 1022,9 hPa 0,0 l/m 11,0 km/h (2 Bft) S-SW 195 0 min 0,0 UV-I 28 W/m 10,3 C 12,8 C 17,7 km/h (3 Bft)
26.05.2022 20:52 15,0 C 13,9 C 73 % 1023,0 hPa 0,0 l/m 11,3 km/h (2 Bft) SW 215 0 min 0,0 UV-I 26 W/m 10,2 C 12,6 C 22,5 km/h (4 Bft)
26.05.2022 20:54 15,0 C 13,9 C 73 % 1023,1 hPa 0,0 l/m 12,0 km/h (2 Bft) SW 226 0 min 0,0 UV-I 26 W/m 10,2 C 12,3 C 19,3 km/h (3 Bft)
26.05.2022 20:56 15,0 C 13,9 C 73 % 1023,1 hPa 0,0 l/m 15,0 km/h (3 Bft) S-SW 205 0 min 0,0 UV-I 25 W/m 10,2 C 11,2 C 25,7 km/h (4 Bft)
26.05.2022 20:58 14,9 C 13,9 C 73 % 1023,0 hPa 0,0 l/m 11,1 km/h (2 Bft) SW 229 0 min 0,0 UV-I 25 W/m 10,1 C 12,5 C 17,7 km/h (3 Bft)
26.05.2022 21:00 14,9 C 13,9 C 73 % 1022,9 hPa 0,0 l/m 10,9 km/h (2 Bft) S-SW 202 0 min 0,0 UV-I 22 W/m 10,1 C 12,6 C 17,7 km/h (3 Bft)
26.05.2022 21:02 14,9 C 13,9 C 73 % 1022,8 hPa 0,0 l/m 10,5 km/h (2 Bft) S-SW 193 0 min 0,0 UV-I 21 W/m 10,1 C 12,8 C 17,7 km/h (3 Bft)
26.05.2022 21:04 14,8 C 13,9 C 73 % 1022,9 hPa 0,0 l/m 9,7 km/h (2 Bft) SW 226 0 min 0,0 UV-I 20 W/m 10,0 C 13,0 C 14,5 km/h (3 Bft)
26.05.2022 21:06 14,7 C 13,9 C 74 % 1023,1 hPa 0,0 l/m 11,3 km/h (2 Bft) SW 221 0 min 0,0 UV-I 21 W/m 10,1 C 12,2 C 16,1 km/h (3 Bft)
26.05.2022 21:08 14,7 C 13,9 C 74 % 1023,0 hPa 0,0 l/m 11,2 km/h (2 Bft) S 178 0 min 0,0 UV-I 20 W/m 10,1 C 12,3 C 16,1 km/h (3 Bft)
26.05.2022 21:10 14,7 C 13,9 C 74 % 1023,1 hPa 0,0 l/m 8,7 km/h (2 Bft) S-SW 192 0 min 0,0 UV-I 16 W/m 10,1 C 13,4 C 14,5 km/h (3 Bft)
26.05.2022 21:12 14,6 C 13,9 C 74 % 1023,1 hPa 0,0 l/m 8,5 km/h (2 Bft) SW 215 0 min 0,0 UV-I 13 W/m 10,0 C 13,4 C 14,5 km/h (3 Bft)
26.05.2022 21:14 14,6 C 13,9 C 74 % 1023,1 hPa 0,0 l/m 11,2 km/h (2 Bft) W-SW 250 0 min 0,0 UV-I 11 W/m 10,0 C 12,1 C 19,3 km/h (3 Bft)
26.05.2022 21:16 14,6 C 13,9 C 74 % 1023,2 hPa 0,0 l/m 11,1 km/h (2 Bft) SW 222 0 min 0,0 UV-I 10 W/m 10,0 C 12,2 C 17,7 km/h (3 Bft)
26.05.2022 21:18 14,6 C 13,9 C 74 % 1023,1 hPa 0,0 l/m 9,2 km/h (2 Bft) S-SO 163 0 min 0,0 UV-I 9 W/m 10,0 C 13,1 C 14,5 km/h (3 Bft)
26.05.2022 21:20 14,5 C 13,3 C 74 % 1023,2 hPa 0,0 l/m 9,4 km/h (2 Bft) S-SW 200 0 min 0,0 UV-I 9 W/m 9,9 C 12,9 C 16,1 km/h (3 Bft)
26.05.2022 21:22 14,5 C 13,3 C 74 % 1023,0 hPa 0,0 l/m 12,8 km/h (3 Bft) W-SW 255 0 min 0,0 UV-I 8 W/m 9,9 C 11,4 C 19,3 km/h (3 Bft)
26.05.2022 21:24 14,4 C 13,3 C 74 % 1023,1 hPa 0,0 l/m 9,7 km/h (2 Bft) S-SW 200 0 min 0,0 UV-I 7 W/m 9,8 C 12,6 C 14,5 km/h (3 Bft)
26.05.2022 21:26 14,4 C 13,3 C 74 % 1023,1 hPa 0,0 l/m 14,1 km/h (3 Bft) S 173 0 min 0,0 UV-I 6 W/m 9,8 C 10,8 C 22,5 km/h (4 Bft)
26.05.2022 21:28 14,4 C 13,3 C 74 % 1023,1 hPa 0,0 l/m 13,2 km/h (3 Bft) SW 221 0 min 0,0 UV-I 5 W/m 9,8 C 11,1 C 19,3 km/h (3 Bft)
26.05.2022 21:30 14,4 C 13,3 C 74 % 1023,1 hPa 0,0 l/m 12,2 km/h (2 Bft) S-SW 194 0 min 0,0 UV-I 8 W/m 9,8 C 11,5 C 24,1 km/h (4 Bft)
26.05.2022 21:32 14,4 C 13,3 C 74 % 1023,2 hPa 0,0 l/m 16,3 km/h (3 Bft) S 189 0 min 0,0 UV-I 9 W/m 9,8 C 10,0 C 22,5 km/h (4 Bft)
26.05.2022 21:34 14,4 C 13,9 C 74 % 1023,1 hPa 0,0 l/m 8,4 km/h (2 Bft) S-SW 201 0 min 0,0 UV-I 9 W/m 9,8 C 13,3 C 14,5 km/h (3 Bft)
26.05.2022 21:36 14,4 C 13,3 C 74 % 1023,2 hPa 0,0 l/m 13,3 km/h (3 Bft) SW 214 0 min 0,0 UV-I 10 W/m 9,8 C 11,1 C 24,1 km/h (4 Bft)
26.05.2022 21:38 14,4 C 13,3 C 74 % 1023,2 hPa 0,0 l/m 8,8 km/h (2 Bft) S-SW 195 0 min 0,0 UV-I 8 W/m 9,8 C 13,0 C 12,9 km/h (3 Bft)
26.05.2022 21:40 14,4 C 13,3 C 74 % 1023,2 hPa 0,0 l/m 12,0 km/h (2 Bft) S 186 0 min 0,0 UV-I 6 W/m 9,8 C 11,6 C 16,1 km/h (3 Bft)
26.05.2022 21:42 14,4 C 13,3 C 74 % 1023,2 hPa 0,0 l/m 10,4 km/h (2 Bft) SW 219 0 min 0,0 UV-I 3 W/m 9,8 C 12,3 C 19,3 km/h (3 Bft)
26.05.2022 21:44 14,3 C 13,3 C 74 % 1023,3 hPa 0,0 l/m 7,2 km/h (2 Bft) S-SW 201 0 min 0,0 UV-I 0 W/m 9,7 C 13,8 C 14,5 km/h (3 Bft)
26.05.2022 21:46 14,3 C 13,3 C 75 % 1023,3 hPa 0,0 l/m 13,8 km/h (3 Bft) S-SW 213 0 min 0,0 UV-I 0 W/m 9,9 C 10,8 C 20,9 km/h (4 Bft)
26.05.2022 21:48 14,3 C 13,3 C 75 % 1023,3 hPa 0,0 l/m 14,0 km/h (3 Bft) SW 231 0 min 0,0 UV-I 0 W/m 9,9 C 10,7 C 20,9 km/h (4 Bft)
26.05.2022 21:50 14,3 C 13,3 C 75 % 1023,3 hPa 0,0 l/m 9,9 km/h (2 Bft) S-SW 209 0 min 0,0 UV-I 0 W/m 9,9 C 12,4 C 20,9 km/h (4 Bft)
26.05.2022 21:52 14,2 C 13,3 C 75 % 1023,2 hPa 0,0 l/m 12,8 km/h (3 Bft) SW 215 0 min 0,0 UV-I 0 W/m 9,8 C 11,0 C 22,5 km/h (4 Bft)
26.05.2022 21:54 14,3 C 13,3 C 75 % 1023,2 hPa 0,0 l/m 16,5 km/h (3 Bft) SW 233 0 min 0,0 UV-I 0 W/m 9,9 C 9,9 C 25,7 km/h (4 Bft)
26.05.2022 21:56 14,2 C 13,3 C 75 % 1023,3 hPa 0,0 l/m 11,6 km/h (2 Bft) S-SO 165 0 min 0,0 UV-I 0 W/m 9,8 C 11,5 C 17,7 km/h (3 Bft)
26.05.2022 21:58 14,2 C 13,3 C 75 % 1023,4 hPa 0,0 l/m 9,8 km/h (2 Bft) S-SW 203 0 min 0,0 UV-I 0 W/m 9,8 C 12,3 C 16,1 km/h (3 Bft)
26.05.2022 22:00 14,1 C 12,8 C 75 % 1023,4 hPa 0,0 l/m 6,6 km/h (2 Bft) S-SW 200 0 min 0,0 UV-I 0 W/m 9,7 C 14,0 C 14,5 km/h (3 Bft)
26.05.2022 22:02 14,0 C 12,8 C 76 % 1023,5 hPa 0,0 l/m 8,6 km/h (2 Bft) S-SW 207 0 min 0,0 UV-I 0 W/m 9,8 C 12,7 C 14,5 km/h (3 Bft)
26.05.2022 22:04 14,0 C 12,8 C 76 % 1023,5 hPa 0,0 l/m 10,6 km/h (2 Bft) SW 234 0 min 0,0 UV-I 0 W/m 9,8 C 11,7 C 16,1 km/h (3 Bft)
26.05.2022 22:06 14,0 C 13,3 C 76 % 1023,5 hPa 0,0 l/m 9,0 km/h (2 Bft) S-SW 193 0 min 0,0 UV-I 0 W/m 9,8 C 12,5 C 14,5 km/h (3 Bft)
26.05.2022 22:08 14,1 C 13,3 C 76 % 1023,6 hPa 0,0 l/m 6,6 km/h (2 Bft) SW 216 0 min 0,0 UV-I 0 W/m 9,9 C 14,0 C 9,7 km/h (2 Bft)
26.05.2022 22:10 14,0 C 13,3 C 76 % 1023,6 hPa 0,0 l/m 5,0 km/h (1 Bft) S-SW 198 0 min 0,0 UV-I 0 W/m 9,8 C 14,0 C 8,0 km/h (2 Bft)
26.05.2022 22:12 14,0 C 13,3 C 76 % 1023,6 hPa 0,0 l/m 9,6 km/h (2 Bft) S-SW 200 0 min 0,0 UV-I 0 W/m 9,8 C 12,2 C 14,5 km/h (3 Bft)
26.05.2022 22:14 14,0 C 13,3 C 76 % 1023,6 hPa 0,0 l/m 7,8 km/h (2 Bft) S-SW 207 0 min 0,0 UV-I 0 W/m 9,8 C 13,2 C 12,9 km/h (3 Bft)
26.05.2022 22:16 14,0 C 13,3 C 76 % 1023,6 hPa 0,0 l/m 7,9 km/h (2 Bft) S-SW 206 0 min 0,0 UV-I 0 W/m 9,8 C 13,1 C 14,5 km/h (3 Bft)
26.05.2022 22:18 14,1 C 13,3 C 76 % 1023,5 hPa 0,0 l/m 8,4 km/h (2 Bft) S 182 0 min 0,0 UV-I 0 W/m 9,9 C 12,9 C 14,5 km/h (3 Bft)
26.05.2022 22:20 14,1 C 13,3 C 76 % 1023,5 hPa 0,0 l/m 8,6 km/h (2 Bft) S 185 0 min 0,0 UV-I 0 W/m 9,9 C 12,8 C 16,1 km/h (3 Bft)
26.05.2022 22:22 14,0 C 13,3 C 77 % 1023,6 hPa 0,0 l/m 6,3 km/h (2 Bft) S-SW 197 0 min 0,0 UV-I 0 W/m 10,0 C 14,0 C 12,9 km/h (3 Bft)
26.05.2022 22:24 14,1 C 13,3 C 77 % 1023,6 hPa 0,0 l/m 9,0 km/h (2 Bft) SW 215 0 min 0,0 UV-I 0 W/m 10,1 C 12,6 C 12,9 km/h (3 Bft)
26.05.2022 22:26 14,1 C 13,3 C 77 % 1023,5 hPa 0,0 l/m 10,3 km/h (2 Bft) S-SW 208 0 min 0,0 UV-I 0 W/m 10,1 C 12,0 C 19,3 km/h (3 Bft)
26.05.2022 22:28 14,1 C 13,3 C 77 % 1023,4 hPa 0,0 l/m 11,1 km/h (2 Bft) S 188 0 min 0,0 UV-I 0 W/m 10,1 C 11,6 C 17,7 km/h (3 Bft)
26.05.2022 22:30 14,1 C 13,3 C 77 % 1023,4 hPa 0,0 l/m 9,4 km/h (2 Bft) S-SW 199 0 min 0,0 UV-I 0 W/m 10,1 C 12,4 C 16,1 km/h (3 Bft)
26.05.2022 22:32 14,1 C 13,3 C 77 % 1023,5 hPa 0,0 l/m 11,9 km/h (2 Bft) SW 214 0 min 0,0 UV-I 0 W/m 10,1 C 11,3 C 17,7 km/h (3 Bft)
26.05.2022 22:34 14,0 C 13,3 C 77 % 1023,5 hPa 0,0 l/m 12,1 km/h (2 Bft) S-SW 192 0 min 0,0 UV-I 0 W/m 10,0 C 11,1 C 19,3 km/h (3 Bft)
26.05.2022 22:36 14,1 C 13,3 C 77 % 1023,6 hPa 0,0 l/m 10,4 km/h (2 Bft) S 186 0 min 0,0 UV-I 0 W/m 10,1 C 11,9 C 16,1 km/h (3 Bft)
26.05.2022 22:38 14,1 C 13,3 C 77 % 1023,6 hPa 0,0 l/m 8,2 km/h (2 Bft) S-SW 202 0 min 0,0 UV-I 0 W/m 10,1 C 13,0 C 11,3 km/h (2 Bft)
26.05.2022 22:40 14,1 C 13,3 C 77 % 1023,6 hPa 0,0 l/m 11,0 km/h (2 Bft) S-SW 203 0 min 0,0 UV-I 0 W/m 10,1 C 11,7 C 20,9 km/h (4 Bft)
26.05.2022 22:42 14,0 C 13,3 C 77 % 1023,6 hPa 0,0 l/m 7,2 km/h (2 Bft) S-SW 201 0 min 0,0 UV-I 0 W/m 10,0 C 13,5 C 11,3 km/h (2 Bft)
26.05.2022 22:44 14,0 C 13,3 C 77 % 1023,6 hPa 0,0 l/m 10,1 km/h (2 Bft) S 173 0 min 0,0 UV-I 0 W/m 10,0 C 12,0 C 14,5 km/h (3 Bft)
26.05.2022 22:46 14,0 C 13,3 C 77 % 1023,4 hPa 0,0 l/m 7,5 km/h (2 Bft) S 175 0 min 0,0 UV-I 0 W/m 10,0 C 13,3 C 12,9 km/h (3 Bft)
26.05.2022 22:48 14,0 C 13,3 C 77 % 1023,4 hPa 0,0 l/m 12,3 km/h (3 Bft) SW 230 0 min 0,0 UV-I 0 W/m 10,0 C 11,0 C 19,3 km/h (3 Bft)
26.05.2022 22:50 13,9 C 13,3 C 77 % 1023,6 hPa 0,0 l/m 10,3 km/h (2 Bft) S-SW 204 0 min 0,0 UV-I 0 W/m 9,9 C 11,8 C 14,5 km/h (3 Bft)
26.05.2022 22:52 14,0 C 13,3 C 77 % 1023,5 hPa 0,0 l/m 14,4 km/h (3 Bft) S-SW 204 0 min 0,0 UV-I 0 W/m 10,0 C 10,2 C 27,4 km/h (4 Bft)
26.05.2022 22:54 14,1 C 13,3 C 77 % 1023,6 hPa 0,0 l/m 13,6 km/h (3 Bft) S-SW 201 0 min 0,0 UV-I 0 W/m 10,1 C 10,6 C 19,3 km/h (3 Bft)
26.05.2022 22:56 14,1 C 13,3 C 77 % 1023,6 hPa 0,0 l/m 11,8 km/h (2 Bft) S-SW 211 0 min 0,0 UV-I 0 W/m 10,1 C 11,3 C 20,9 km/h (4 Bft)
26.05.2022 22:58 14,1 C 13,3 C 77 % 1023,5 hPa 0,0 l/m 8,5 km/h (2 Bft) S 173 0 min 0,0 UV-I 0 W/m 10,1 C 12,9 C 14,5 km/h (3 Bft)
26.05.2022 23:00 14,0 C 13,3 C 77 % 1023,5 hPa 0,0 l/m 10,9 km/h (2 Bft) S-SW 210 0 min 0,0 UV-I 0 W/m 10,0 C 11,6 C 17,7 km/h (3 Bft)
26.05.2022 23:02 14,0 C 13,3 C 77 % 1023,6 hPa 0,0 l/m 9,8 km/h (2 Bft) SW 215 0 min 0,0 UV-I 0 W/m 10,0 C 12,1 C 19,3 km/h (3 Bft)
26.05.2022 23:04 14,0 C 13,3 C 77 % 1023,5 hPa 0,0 l/m 10,3 km/h (2 Bft) S-SW 194 0 min 0,0 UV-I 0 W/m 10,0 C 11,9 C 16,1 km/h (3 Bft)
26.05.2022 23:06 14,0 C 13,3 C 77 % 1023,5 hPa 0,0 l/m 6,8 km/h (2 Bft) S 187 0 min 0,0 UV-I 0 W/m 10,0 C 13,8 C 11,3 km/h (2 Bft)
26.05.2022 23:08 13,9 C 13,3 C 78 % 1023,6 hPa 0,0 l/m 8,9 km/h (2 Bft) SW 234 0 min 0,0 UV-I 0 W/m 10,1 C 12,5 C 20,9 km/h (4 Bft)
26.05.2022 23:10 13,9 C 13,3 C 78 % 1023,4 hPa 0,0 l/m 10,3 km/h (2 Bft) W 268 0 min 0,0 UV-I 0 W/m 10,1 C 11,8 C 20,9 km/h (4 Bft)
26.05.2022 23:12 13,9 C 13,3 C 78 % 1023,5 hPa 0,0 l/m 11,5 km/h (2 Bft) SW 219 0 min 0,0 UV-I 0 W/m 10,1 C 11,2 C 19,3 km/h (3 Bft)
26.05.2022 23:14 13,9 C 13,3 C 78 % 1023,5 hPa 0,0 l/m 12,4 km/h (3 Bft) W-SW 256 0 min 0,0 UV-I 0 W/m 10,1 C 10,8 C 19,3 km/h (3 Bft)
26.05.2022 23:16 13,9 C 13,3 C 78 % 1023,5 hPa 0,0 l/m 8,9 km/h (2 Bft) S-SW 200 0 min 0,0 UV-I 0 W/m 10,1 C 12,5 C 17,7 km/h (3 Bft)
26.05.2022 23:18 13,9 C 13,3 C 78 % 1023,4 hPa 0,0 l/m 9,5 km/h (2 Bft) S-SW 213 0 min 0,0 UV-I 0 W/m 10,1 C 12,1 C 16,1 km/h (3 Bft)
26.05.2022 23:20 13,9 C 13,3 C 78 % 1023,4 hPa 0,0 l/m 15,5 km/h (3 Bft) SW 217 0 min 0,0 UV-I 0 W/m 10,1 C 9,7 C 24,1 km/h (4 Bft)
26.05.2022 23:22 13,9 C 13,3 C 78 % 1023,4 hPa 0,0 l/m 14,8 km/h (3 Bft) W 275 0 min 0,0 UV-I 0 W/m 10,1 C 9,9 C 25,7 km/h (4 Bft)
26.05.2022 23:24 13,9 C 13,3 C 78 % 1023,4 hPa 0,0 l/m 14,6 km/h (3 Bft) W-SW 246 0 min 0,0 UV-I 0 W/m 10,1 C 10,0 C 20,9 km/h (4 Bft)
26.05.2022 23:26 13,9 C 13,3 C 78 % 1023,5 hPa 0,0 l/m 11,5 km/h (2 Bft) S 190 0 min 0,0 UV-I 0 W/m 10,1 C 11,2 C 17,7 km/h (3 Bft)
26.05.2022 23:28 13,9 C 13,3 C 78 % 1023,4 hPa 0,0 l/m 10,4 km/h (2 Bft) S-SW 196 0 min 0,0 UV-I 0 W/m 10,1 C 11,7 C 17,7 km/h (3 Bft)
26.05.2022 23:30 13,9 C 13,3 C 78 % 1023,4 hPa 0,0 l/m 12,0 km/h (2 Bft) S-SW 213 0 min 0,0 UV-I 0 W/m 10,1 C 11,0 C 24,1 km/h (4 Bft)
26.05.2022 23:32 13,8 C 13,3 C 78 % 1023,3 hPa 0,0 l/m 10,5 km/h (2 Bft) W-SW 247 0 min 0,0 UV-I 0 W/m 10,0 C 11,6 C 22,5 km/h (4 Bft)
26.05.2022 23:34 13,8 C 13,3 C 79 % 1023,3 hPa 0,0 l/m 14,0 km/h (3 Bft) S 181 0 min 0,0 UV-I 0 W/m 10,2 C 10,1 C 20,9 km/h (4 Bft)
26.05.2022 23:36 13,8 C 13,3 C 78 % 1023,3 hPa 0,0 l/m 15,4 km/h (3 Bft) S-SW 207 0 min 0,0 UV-I 0 W/m 10,0 C 9,6 C 22,5 km/h (4 Bft)
26.05.2022 23:38 13,8 C 13,3 C 79 % 1023,3 hPa 0,0 l/m 10,7 km/h (2 Bft) SW 222 0 min 0,0 UV-I 0 W/m 10,2 C 11,5 C 16,1 km/h (3 Bft)
26.05.2022 23:40 13,8 C 13,3 C 79 % 1023,2 hPa 0,0 l/m 14,2 km/h (3 Bft) SW 220 0 min 0,0 UV-I 0 W/m 10,2 C 10,0 C 25,7 km/h (4 Bft)
26.05.2022 23:42 13,8 C 13,3 C 79 % 1023,3 hPa 0,0 l/m 14,7 km/h (3 Bft) S-SW 200 0 min 0,0 UV-I 0 W/m 10,2 C 9,8 C 25,7 km/h (4 Bft)
26.05.2022 23:44 13,8 C 13,3 C 79 % 1023,3 hPa 0,0 l/m 11,6 km/h (2 Bft) S-SW 192 0 min 0,0 UV-I 0 W/m 10,2 C 11,1 C 19,3 km/h (3 Bft)
26.05.2022 23:46 13,8 C 13,3 C 79 % 1023,3 hPa 0,0 l/m 12,8 km/h (3 Bft) S-SW 205 0 min 0,0 UV-I 0 W/m 10,2 C 10,6 C 22,5 km/h (4 Bft)
26.05.2022 23:48 13,8 C 13,3 C 79 % 1023,2 hPa 0,0 l/m 16,9 km/h (3 Bft) SW 227 0 min 0,0 UV-I 0 W/m 10,2 C 9,1 C 29,0 km/h (5 Bft)
26.05.2022 23:50 13,8 C 13,3 C 79 % 1023,2 hPa 0,0 l/m 11,9 km/h (2 Bft) S 186 0 min 0,0 UV-I 0 W/m 10,2 C 10,9 C 17,7 km/h (3 Bft)
26.05.2022 23:52 13,7 C 13,3 C 79 % 1023,1 hPa 0,0 l/m 13,3 km/h (3 Bft) S-SO 166 0 min 0,0 UV-I 0 W/m 10,1 C 10,2 C 17,7 km/h (3 Bft)
26.05.2022 23:54 13,7 C 12,8 C 79 % 1023,1 hPa 0,0 l/m 16,0 km/h (3 Bft) S-SW 200 0 min 0,0 UV-I 0 W/m 10,1 C 9,3 C 24,1 km/h (4 Bft)
26.05.2022 23:56 13,7 C 12,8 C 79 % 1023,1 hPa 0,0 l/m 13,8 km/h (3 Bft) S-SW 194 0 min 0,0 UV-I 0 W/m 10,1 C 10,1 C 22,5 km/h (4 Bft)
26.05.2022 23:58 13,7 C 13,3 C 79 % 1023,1 hPa 0,0 l/m 12,1 km/h (2 Bft) W-SW 240 0 min 0,0 UV-I 0 W/m 10,1 C 10,7 C 19,3 km/h (3 Bft)
26.05.2022 23:59 13,7 C 13,3 C 79 % 1023,1 hPa 0,0 l/m 11,3 km/h (2 Bft) S-SW 202 0 min 0,0 UV-I 0 W/m 10,1 C 11,1 C 22,5 km/h (4 Bft)
_ Min-Zeit 03:43 03:19 15:46 00:01 - 07:47 - - - - - 00:00 01:43 07:47
Minimum _ 10,2 C 9,4 C 56 % 1020,7 hPa - 3,2 km/h (1 Bft) - - - - - 7,3 C 4,8 C 4,8 km/h (1 Bft)
_ Max-Zeit 16:20 16:14 05:00 13:48 03:31 01:43 - - 11:26 13:44 13:22 17:42 18:44 01:25
Maximum _ 19,2 C 25,6 C 91 % 1024,5 hPa 0,2 l/m 22,5 km/h
S-SW (4 Bft)
- - 2 min 7,4 UV-I 1137 W/m 11,1 C 17,8 C 30,6 km/h
S (5 Bft)
Durchschnitt _ 14,1 C 15,4 C 74 % 1022,8 hPa #0,4 l/m 11,6 km/h (2 Bft) S-SW - #6:28 h 3,6 UV-I 384 W/m 9,4 C 11,6 C 18,2 km/h (3 Bft)